<?xml version="1.0" encoding="UTF-8" standalone="no" ?>
<gpx xmlns="http://www.topografix.com/GPX/1/1" xmlns:xsi="http://www.w3.org/2001/XMLSchema-instance" xsi:schemaLocation="http://www.topografix.com/GPX/1/1 http://www.topografix.com/GPX/1/1/gpx.xsd" version="1.1" creator="VisuGPX - https://www.visugpx.com">
  <metadata>
    <name>Reco Pilon du Roi </name>
    <desc><![CDATA[Guy, Maurice, Serge, Robert
Passage ds une propriété privée....
]]></desc>
  </metadata>
  <trk>
    <name><![CDATA[ACTIVE LOG090021]]></name>
    <trkseg>
      <trkpt lat="43.42999" lon="5.43563">
        <ele>225.715</ele>
        <time>2011-11-23T08:00:20Z</time>
      </trkpt>
      <trkpt lat="43.42999" lon="5.43563">
        <ele>229.73</ele>
        <time>2011-11-23T08:00:31Z</time>
      </trkpt>
      <trkpt lat="43.43" lon="5.43563">
        <ele>232.861</ele>
        <time>2011-11-23T08:00:41Z</time>
      </trkpt>
    </trkseg>
  </trk>
  <trk>
    <name><![CDATA[ACTIVE LOG090045]]></name>
    <trkseg>
      <trkpt lat="43.42999" lon="5.43563">
        <ele>233.914</ele>
        <time>2011-11-23T08:00:44Z</time>
      </trkpt>
      <trkpt lat="43.42998" lon="5.43563">
        <ele>235.277</ele>
        <time>2011-11-23T08:00:54Z</time>
      </trkpt>
      <trkpt lat="43.42998" lon="5.43562">
        <ele>235.633</ele>
        <time>2011-11-23T08:01:04Z</time>
      </trkpt>
      <trkpt lat="43.42997" lon="5.43562">
        <ele>235.886</ele>
        <time>2011-11-23T08:01:14Z</time>
      </trkpt>
      <trkpt lat="43.42997" lon="5.43561">
        <ele>235.827</ele>
        <time>2011-11-23T08:01:24Z</time>
      </trkpt>
      <trkpt lat="43.42997" lon="5.43561">
        <ele>236.405</ele>
        <time>2011-11-23T08:01:34Z</time>
      </trkpt>
      <trkpt lat="43.42997" lon="5.4356">
        <ele>235.337</ele>
        <time>2011-11-23T08:01:44Z</time>
      </trkpt>
      <trkpt lat="43.42997" lon="5.43561">
        <ele>235.291</ele>
        <time>2011-11-23T08:01:54Z</time>
      </trkpt>
      <trkpt lat="43.42998" lon="5.43561">
        <ele>236.297</ele>
        <time>2011-11-23T08:02:04Z</time>
      </trkpt>
      <trkpt lat="43.42997" lon="5.43561">
        <ele>235.511</ele>
        <time>2011-11-23T08:02:14Z</time>
      </trkpt>
      <trkpt lat="43.42997" lon="5.4356">
        <ele>235.611</ele>
        <time>2011-11-23T08:02:24Z</time>
      </trkpt>
      <trkpt lat="43.42998" lon="5.4356">
        <ele>235.211</ele>
        <time>2011-11-23T08:02:34Z</time>
      </trkpt>
      <trkpt lat="43.42998" lon="5.4356">
        <ele>235.469</ele>
        <time>2011-11-23T08:02:44Z</time>
      </trkpt>
      <trkpt lat="43.42998" lon="5.4356">
        <ele>235.471</ele>
        <time>2011-11-23T08:02:54Z</time>
      </trkpt>
      <trkpt lat="43.42997" lon="5.43559">
        <ele>234.869</ele>
        <time>2011-11-23T08:03:04Z</time>
      </trkpt>
      <trkpt lat="43.42998" lon="5.4356">
        <ele>234.927</ele>
        <time>2011-11-23T08:03:14Z</time>
      </trkpt>
      <trkpt lat="43.42995" lon="5.4356">
        <ele>235.108</ele>
        <time>2011-11-23T08:03:24Z</time>
      </trkpt>
      <trkpt lat="43.4299" lon="5.43566">
        <ele>234.842</ele>
        <time>2011-11-23T08:03:34Z</time>
      </trkpt>
      <trkpt lat="43.4299" lon="5.43566">
        <ele>236.811</ele>
        <time>2011-11-23T08:03:44Z</time>
      </trkpt>
      <trkpt lat="43.42991" lon="5.43563">
        <ele>236.446</ele>
        <time>2011-11-23T08:03:54Z</time>
      </trkpt>
      <trkpt lat="43.42992" lon="5.43563">
        <ele>235.801</ele>
        <time>2011-11-23T08:04:04Z</time>
      </trkpt>
      <trkpt lat="43.42993" lon="5.43568">
        <ele>235.627</ele>
        <time>2011-11-23T08:04:14Z</time>
      </trkpt>
      <trkpt lat="43.42993" lon="5.43572">
        <ele>236.222</ele>
        <time>2011-11-23T08:04:24Z</time>
      </trkpt>
      <trkpt lat="43.42993" lon="5.43573">
        <ele>235.205</ele>
        <time>2011-11-23T08:04:34Z</time>
      </trkpt>
      <trkpt lat="43.42994" lon="5.43572">
        <ele>236.216</ele>
        <time>2011-11-23T08:04:44Z</time>
      </trkpt>
      <trkpt lat="43.42994" lon="5.43572">
        <ele>236.077</ele>
        <time>2011-11-23T08:04:54Z</time>
      </trkpt>
      <trkpt lat="43.42994" lon="5.43571">
        <ele>236.849</ele>
        <time>2011-11-23T08:05:04Z</time>
      </trkpt>
      <trkpt lat="43.42996" lon="5.43573">
        <ele>236.457</ele>
        <time>2011-11-23T08:05:14Z</time>
      </trkpt>
      <trkpt lat="43.42992" lon="5.43574">
        <ele>237.265</ele>
        <time>2011-11-23T08:05:24Z</time>
      </trkpt>
      <trkpt lat="43.42985" lon="5.43576">
        <ele>237.257</ele>
        <time>2011-11-23T08:05:34Z</time>
      </trkpt>
      <trkpt lat="43.42977" lon="5.43579">
        <ele>237.299</ele>
        <time>2011-11-23T08:05:44Z</time>
      </trkpt>
      <trkpt lat="43.42968" lon="5.43589">
        <ele>237.878</ele>
        <time>2011-11-23T08:05:54Z</time>
      </trkpt>
      <trkpt lat="43.42956" lon="5.43595">
        <ele>237.484</ele>
        <time>2011-11-23T08:06:04Z</time>
      </trkpt>
      <trkpt lat="43.42946" lon="5.43603">
        <ele>238.255</ele>
        <time>2011-11-23T08:06:14Z</time>
      </trkpt>
      <trkpt lat="43.42935" lon="5.43612">
        <ele>238.684</ele>
        <time>2011-11-23T08:06:24Z</time>
      </trkpt>
      <trkpt lat="43.42922" lon="5.43621">
        <ele>235.956</ele>
        <time>2011-11-23T08:06:34Z</time>
      </trkpt>
      <trkpt lat="43.42914" lon="5.43626">
        <ele>238.12</ele>
        <time>2011-11-23T08:06:44Z</time>
      </trkpt>
      <trkpt lat="43.42915" lon="5.43626">
        <ele>239.098</ele>
        <time>2011-11-23T08:06:54Z</time>
      </trkpt>
      <trkpt lat="43.42915" lon="5.43625">
        <ele>238.888</ele>
        <time>2011-11-23T08:07:04Z</time>
      </trkpt>
      <trkpt lat="43.4291" lon="5.43627">
        <ele>238.583</ele>
        <time>2011-11-23T08:07:14Z</time>
      </trkpt>
      <trkpt lat="43.42908" lon="5.43626">
        <ele>239.544</ele>
        <time>2011-11-23T08:07:24Z</time>
      </trkpt>
      <trkpt lat="43.42906" lon="5.43621">
        <ele>240.545</ele>
        <time>2011-11-23T08:07:34Z</time>
      </trkpt>
      <trkpt lat="43.42904" lon="5.43605">
        <ele>240.697</ele>
        <time>2011-11-23T08:07:44Z</time>
      </trkpt>
      <trkpt lat="43.42903" lon="5.43583">
        <ele>242.448</ele>
        <time>2011-11-23T08:07:54Z</time>
      </trkpt>
      <trkpt lat="43.42903" lon="5.4357">
        <ele>243.242</ele>
        <time>2011-11-23T08:08:04Z</time>
      </trkpt>
      <trkpt lat="43.42902" lon="5.43559">
        <ele>241.789</ele>
        <time>2011-11-23T08:08:14Z</time>
      </trkpt>
      <trkpt lat="43.42903" lon="5.43545">
        <ele>243.588</ele>
        <time>2011-11-23T08:08:24Z</time>
      </trkpt>
      <trkpt lat="43.42903" lon="5.43538">
        <ele>246.248</ele>
        <time>2011-11-23T08:08:29Z</time>
      </trkpt>
      <trkpt lat="43.42903" lon="5.43532">
        <ele>245.259</ele>
        <time>2011-11-23T08:08:34Z</time>
      </trkpt>
      <trkpt lat="43.42901" lon="5.43524">
        <ele>246.28</ele>
        <time>2011-11-23T08:08:44Z</time>
      </trkpt>
      <trkpt lat="43.42906" lon="5.4351">
        <ele>245.972</ele>
        <time>2011-11-23T08:08:54Z</time>
      </trkpt>
      <trkpt lat="43.42906" lon="5.43495">
        <ele>247.482</ele>
        <time>2011-11-23T08:09:04Z</time>
      </trkpt>
      <trkpt lat="43.42906" lon="5.43479">
        <ele>247.811</ele>
        <time>2011-11-23T08:09:14Z</time>
      </trkpt>
      <trkpt lat="43.42902" lon="5.43465">
        <ele>248.636</ele>
        <time>2011-11-23T08:09:24Z</time>
      </trkpt>
      <trkpt lat="43.42897" lon="5.43455">
        <ele>247.718</ele>
        <time>2011-11-23T08:09:34Z</time>
      </trkpt>
      <trkpt lat="43.42897" lon="5.43449">
        <ele>248.438</ele>
        <time>2011-11-23T08:09:44Z</time>
      </trkpt>
      <trkpt lat="43.42894" lon="5.43444">
        <ele>249.729</ele>
        <time>2011-11-23T08:09:54Z</time>
      </trkpt>
      <trkpt lat="43.4289" lon="5.43433">
        <ele>250.512</ele>
        <time>2011-11-23T08:10:04Z</time>
      </trkpt>
      <trkpt lat="43.4289" lon="5.43418">
        <ele>250.073</ele>
        <time>2011-11-23T08:10:14Z</time>
      </trkpt>
      <trkpt lat="43.4289" lon="5.43403">
        <ele>251.649</ele>
        <time>2011-11-23T08:10:24Z</time>
      </trkpt>
      <trkpt lat="43.42887" lon="5.43389">
        <ele>253.79</ele>
        <time>2011-11-23T08:10:34Z</time>
      </trkpt>
      <trkpt lat="43.4289" lon="5.43372">
        <ele>253.184</ele>
        <time>2011-11-23T08:10:44Z</time>
      </trkpt>
      <trkpt lat="43.4289" lon="5.43348">
        <ele>252.23</ele>
        <time>2011-11-23T08:10:54Z</time>
      </trkpt>
      <trkpt lat="43.42893" lon="5.43328">
        <ele>253.548</ele>
        <time>2011-11-23T08:11:04Z</time>
      </trkpt>
      <trkpt lat="43.42899" lon="5.43312">
        <ele>251.323</ele>
        <time>2011-11-23T08:11:14Z</time>
      </trkpt>
      <trkpt lat="43.42897" lon="5.43297">
        <ele>251.255</ele>
        <time>2011-11-23T08:11:24Z</time>
      </trkpt>
      <trkpt lat="43.42899" lon="5.43281">
        <ele>251.013</ele>
        <time>2011-11-23T08:11:34Z</time>
      </trkpt>
      <trkpt lat="43.42897" lon="5.43272">
        <ele>250.021</ele>
        <time>2011-11-23T08:11:44Z</time>
      </trkpt>
      <trkpt lat="43.42889" lon="5.43263">
        <ele>250.443</ele>
        <time>2011-11-23T08:11:54Z</time>
      </trkpt>
      <trkpt lat="43.42885" lon="5.43248">
        <ele>249.333</ele>
        <time>2011-11-23T08:12:04Z</time>
      </trkpt>
      <trkpt lat="43.42879" lon="5.43232">
        <ele>249.299</ele>
        <time>2011-11-23T08:12:14Z</time>
      </trkpt>
      <trkpt lat="43.42875" lon="5.43217">
        <ele>249.138</ele>
        <time>2011-11-23T08:12:24Z</time>
      </trkpt>
      <trkpt lat="43.4287" lon="5.43207">
        <ele>248.868</ele>
        <time>2011-11-23T08:12:34Z</time>
      </trkpt>
      <trkpt lat="43.42865" lon="5.43192">
        <ele>248.924</ele>
        <time>2011-11-23T08:12:44Z</time>
      </trkpt>
      <trkpt lat="43.42859" lon="5.43179">
        <ele>247.654</ele>
        <time>2011-11-23T08:12:54Z</time>
      </trkpt>
      <trkpt lat="43.42852" lon="5.43171">
        <ele>246.729</ele>
        <time>2011-11-23T08:13:04Z</time>
      </trkpt>
      <trkpt lat="43.42843" lon="5.43163">
        <ele>245.582</ele>
        <time>2011-11-23T08:13:14Z</time>
      </trkpt>
      <trkpt lat="43.42837" lon="5.43166">
        <ele>243.617</ele>
        <time>2011-11-23T08:13:24Z</time>
      </trkpt>
      <trkpt lat="43.4283" lon="5.43166">
        <ele>242.178</ele>
        <time>2011-11-23T08:13:34Z</time>
      </trkpt>
      <trkpt lat="43.42822" lon="5.43166">
        <ele>240.5</ele>
        <time>2011-11-23T08:13:44Z</time>
      </trkpt>
      <trkpt lat="43.42816" lon="5.43164">
        <ele>239.812</ele>
        <time>2011-11-23T08:13:54Z</time>
      </trkpt>
      <trkpt lat="43.42815" lon="5.43159">
        <ele>240.253</ele>
        <time>2011-11-23T08:14:04Z</time>
      </trkpt>
      <trkpt lat="43.42815" lon="5.43159">
        <ele>239.372</ele>
        <time>2011-11-23T08:14:14Z</time>
      </trkpt>
      <trkpt lat="43.42816" lon="5.43159">
        <ele>239.157</ele>
        <time>2011-11-23T08:14:24Z</time>
      </trkpt>
      <trkpt lat="43.42817" lon="5.43159">
        <ele>239.508</ele>
        <time>2011-11-23T08:14:34Z</time>
      </trkpt>
      <trkpt lat="43.42815" lon="5.43155">
        <ele>239.485</ele>
        <time>2011-11-23T08:14:44Z</time>
      </trkpt>
      <trkpt lat="43.42814" lon="5.43155">
        <ele>239.958</ele>
        <time>2011-11-23T08:14:54Z</time>
      </trkpt>
      <trkpt lat="43.42814" lon="5.43152">
        <ele>239.255</ele>
        <time>2011-11-23T08:15:04Z</time>
      </trkpt>
      <trkpt lat="43.42814" lon="5.43152">
        <ele>240.29</ele>
        <time>2011-11-23T08:15:14Z</time>
      </trkpt>
      <trkpt lat="43.42817" lon="5.43146">
        <ele>239.036</ele>
        <time>2011-11-23T08:15:24Z</time>
      </trkpt>
      <trkpt lat="43.42821" lon="5.43136">
        <ele>238.276</ele>
        <time>2011-11-23T08:15:34Z</time>
      </trkpt>
      <trkpt lat="43.42823" lon="5.43124">
        <ele>237.186</ele>
        <time>2011-11-23T08:15:44Z</time>
      </trkpt>
      <trkpt lat="43.42827" lon="5.43111">
        <ele>236.697</ele>
        <time>2011-11-23T08:15:54Z</time>
      </trkpt>
      <trkpt lat="43.42829" lon="5.43097">
        <ele>236.5</ele>
        <time>2011-11-23T08:16:04Z</time>
      </trkpt>
    </trkseg>
  </trk>
  <trk>
    <name><![CDATA[ACTIVE LOG091647]]></name>
    <trkseg>
      <trkpt lat="43.42841" lon="5.43032">
        <ele>232.897</ele>
        <time>2011-11-23T08:16:47Z</time>
      </trkpt>
      <trkpt lat="43.42844" lon="5.43013">
        <ele>233.013</ele>
        <time>2011-11-23T08:16:57Z</time>
      </trkpt>
      <trkpt lat="43.42839" lon="5.42998">
        <ele>231.88</ele>
        <time>2011-11-23T08:17:07Z</time>
      </trkpt>
      <trkpt lat="43.42835" lon="5.42984">
        <ele>231.486</ele>
        <time>2011-11-23T08:17:17Z</time>
      </trkpt>
      <trkpt lat="43.42834" lon="5.42967">
        <ele>232.54</ele>
        <time>2011-11-23T08:17:27Z</time>
      </trkpt>
      <trkpt lat="43.4283" lon="5.42952">
        <ele>232.994</ele>
        <time>2011-11-23T08:17:37Z</time>
      </trkpt>
      <trkpt lat="43.42825" lon="5.4294">
        <ele>233.223</ele>
        <time>2011-11-23T08:17:47Z</time>
      </trkpt>
      <trkpt lat="43.42824" lon="5.42936">
        <ele>233.731</ele>
        <time>2011-11-23T08:17:57Z</time>
      </trkpt>
      <trkpt lat="43.42824" lon="5.42936">
        <ele>233.417</ele>
        <time>2011-11-23T08:18:07Z</time>
      </trkpt>
      <trkpt lat="43.42825" lon="5.42936">
        <ele>233.779</ele>
        <time>2011-11-23T08:18:17Z</time>
      </trkpt>
      <trkpt lat="43.42826" lon="5.4293">
        <ele>234.308</ele>
        <time>2011-11-23T08:18:27Z</time>
      </trkpt>
      <trkpt lat="43.42825" lon="5.42918">
        <ele>234.645</ele>
        <time>2011-11-23T08:18:37Z</time>
      </trkpt>
      <trkpt lat="43.42827" lon="5.42902">
        <ele>236.154</ele>
        <time>2011-11-23T08:18:47Z</time>
      </trkpt>
      <trkpt lat="43.42829" lon="5.42887">
        <ele>237.199</ele>
        <time>2011-11-23T08:18:57Z</time>
      </trkpt>
      <trkpt lat="43.42835" lon="5.42875">
        <ele>237.42</ele>
        <time>2011-11-23T08:19:07Z</time>
      </trkpt>
      <trkpt lat="43.42839" lon="5.42862">
        <ele>238.182</ele>
        <time>2011-11-23T08:19:17Z</time>
      </trkpt>
      <trkpt lat="43.42842" lon="5.42849">
        <ele>239.119</ele>
        <time>2011-11-23T08:19:27Z</time>
      </trkpt>
      <trkpt lat="43.42845" lon="5.42836">
        <ele>239.688</ele>
        <time>2011-11-23T08:19:37Z</time>
      </trkpt>
      <trkpt lat="43.4285" lon="5.42821">
        <ele>240.275</ele>
        <time>2011-11-23T08:19:47Z</time>
      </trkpt>
      <trkpt lat="43.42856" lon="5.42805">
        <ele>241.033</ele>
        <time>2011-11-23T08:19:58Z</time>
      </trkpt>
      <trkpt lat="43.42857" lon="5.4279">
        <ele>242.203</ele>
        <time>2011-11-23T08:20:08Z</time>
      </trkpt>
      <trkpt lat="43.42858" lon="5.42775">
        <ele>243.259</ele>
        <time>2011-11-23T08:20:18Z</time>
      </trkpt>
      <trkpt lat="43.42856" lon="5.42759">
        <ele>244.148</ele>
        <time>2011-11-23T08:20:28Z</time>
      </trkpt>
      <trkpt lat="43.42857" lon="5.42746">
        <ele>245.079</ele>
        <time>2011-11-23T08:20:38Z</time>
      </trkpt>
      <trkpt lat="43.42855" lon="5.42723">
        <ele>245.498</ele>
        <time>2011-11-23T08:20:48Z</time>
      </trkpt>
      <trkpt lat="43.42856" lon="5.42708">
        <ele>246.31</ele>
        <time>2011-11-23T08:20:58Z</time>
      </trkpt>
      <trkpt lat="43.4286" lon="5.42697">
        <ele>245.992</ele>
        <time>2011-11-23T08:21:08Z</time>
      </trkpt>
      <trkpt lat="43.4286" lon="5.42694">
        <ele>246.555</ele>
        <time>2011-11-23T08:21:18Z</time>
      </trkpt>
      <trkpt lat="43.42859" lon="5.42687">
        <ele>246.495</ele>
        <time>2011-11-23T08:21:28Z</time>
      </trkpt>
      <trkpt lat="43.42858" lon="5.42675">
        <ele>245.786</ele>
        <time>2011-11-23T08:21:38Z</time>
      </trkpt>
      <trkpt lat="43.42857" lon="5.42664">
        <ele>244.548</ele>
        <time>2011-11-23T08:21:48Z</time>
      </trkpt>
      <trkpt lat="43.42854" lon="5.42648">
        <ele>243.998</ele>
        <time>2011-11-23T08:21:58Z</time>
      </trkpt>
      <trkpt lat="43.42852" lon="5.4263">
        <ele>242.742</ele>
        <time>2011-11-23T08:22:08Z</time>
      </trkpt>
      <trkpt lat="43.4285" lon="5.42618">
        <ele>242.458</ele>
        <time>2011-11-23T08:22:18Z</time>
      </trkpt>
      <trkpt lat="43.42849" lon="5.42603">
        <ele>241.858</ele>
        <time>2011-11-23T08:22:28Z</time>
      </trkpt>
      <trkpt lat="43.42849" lon="5.42597">
        <ele>241.459</ele>
        <time>2011-11-23T08:22:38Z</time>
      </trkpt>
      <trkpt lat="43.42847" lon="5.42591">
        <ele>241.162</ele>
        <time>2011-11-23T08:22:48Z</time>
      </trkpt>
      <trkpt lat="43.42845" lon="5.42578">
        <ele>240.275</ele>
        <time>2011-11-23T08:22:58Z</time>
      </trkpt>
      <trkpt lat="43.42843" lon="5.42564">
        <ele>238.612</ele>
        <time>2011-11-23T08:23:08Z</time>
      </trkpt>
      <trkpt lat="43.42842" lon="5.42547">
        <ele>237.002</ele>
        <time>2011-11-23T08:23:18Z</time>
      </trkpt>
      <trkpt lat="43.42837" lon="5.42535">
        <ele>236.15</ele>
        <time>2011-11-23T08:23:28Z</time>
      </trkpt>
      <trkpt lat="43.4283" lon="5.42522">
        <ele>234.401</ele>
        <time>2011-11-23T08:23:38Z</time>
      </trkpt>
      <trkpt lat="43.42825" lon="5.42513">
        <ele>233.723</ele>
        <time>2011-11-23T08:23:48Z</time>
      </trkpt>
      <trkpt lat="43.42819" lon="5.42501">
        <ele>232.57</ele>
        <time>2011-11-23T08:23:58Z</time>
      </trkpt>
      <trkpt lat="43.42815" lon="5.42492">
        <ele>232.247</ele>
        <time>2011-11-23T08:24:08Z</time>
      </trkpt>
      <trkpt lat="43.42814" lon="5.42475">
        <ele>230.681</ele>
        <time>2011-11-23T08:24:18Z</time>
      </trkpt>
      <trkpt lat="43.4281" lon="5.42457">
        <ele>229.962</ele>
        <time>2011-11-23T08:24:28Z</time>
      </trkpt>
      <trkpt lat="43.42811" lon="5.42441">
        <ele>229.493</ele>
        <time>2011-11-23T08:24:38Z</time>
      </trkpt>
      <trkpt lat="43.42809" lon="5.42425">
        <ele>228.346</ele>
        <time>2011-11-23T08:24:48Z</time>
      </trkpt>
      <trkpt lat="43.42801" lon="5.42412">
        <ele>228.067</ele>
        <time>2011-11-23T08:24:58Z</time>
      </trkpt>
      <trkpt lat="43.42791" lon="5.42398">
        <ele>228.414</ele>
        <time>2011-11-23T08:25:08Z</time>
      </trkpt>
      <trkpt lat="43.42784" lon="5.42384">
        <ele>227.73</ele>
        <time>2011-11-23T08:25:18Z</time>
      </trkpt>
      <trkpt lat="43.42778" lon="5.4237">
        <ele>227.204</ele>
        <time>2011-11-23T08:25:28Z</time>
      </trkpt>
      <trkpt lat="43.42771" lon="5.42351">
        <ele>226.697</ele>
        <time>2011-11-23T08:25:38Z</time>
      </trkpt>
      <trkpt lat="43.42763" lon="5.42336">
        <ele>226.106</ele>
        <time>2011-11-23T08:25:48Z</time>
      </trkpt>
      <trkpt lat="43.42749" lon="5.42327">
        <ele>226</ele>
        <time>2011-11-23T08:25:58Z</time>
      </trkpt>
      <trkpt lat="43.42743" lon="5.42311">
        <ele>226.437</ele>
        <time>2011-11-23T08:26:08Z</time>
      </trkpt>
      <trkpt lat="43.42736" lon="5.42292">
        <ele>226.461</ele>
        <time>2011-11-23T08:26:18Z</time>
      </trkpt>
      <trkpt lat="43.42729" lon="5.42278">
        <ele>226.403</ele>
        <time>2011-11-23T08:26:28Z</time>
      </trkpt>
      <trkpt lat="43.42722" lon="5.42269">
        <ele>225.886</ele>
        <time>2011-11-23T08:26:38Z</time>
      </trkpt>
      <trkpt lat="43.42713" lon="5.42262">
        <ele>227.173</ele>
        <time>2011-11-23T08:26:48Z</time>
      </trkpt>
      <trkpt lat="43.42709" lon="5.42253">
        <ele>228.024</ele>
        <time>2011-11-23T08:26:58Z</time>
      </trkpt>
      <trkpt lat="43.42702" lon="5.42245">
        <ele>229.72</ele>
        <time>2011-11-23T08:27:08Z</time>
      </trkpt>
      <trkpt lat="43.42696" lon="5.42236">
        <ele>231.071</ele>
        <time>2011-11-23T08:27:18Z</time>
      </trkpt>
      <trkpt lat="43.42691" lon="5.42221">
        <ele>231.616</ele>
        <time>2011-11-23T08:27:28Z</time>
      </trkpt>
      <trkpt lat="43.42686" lon="5.42206">
        <ele>231.318</ele>
        <time>2011-11-23T08:27:38Z</time>
      </trkpt>
      <trkpt lat="43.42684" lon="5.42193">
        <ele>230.846</ele>
        <time>2011-11-23T08:27:48Z</time>
      </trkpt>
      <trkpt lat="43.42681" lon="5.42188">
        <ele>230.647</ele>
        <time>2011-11-23T08:27:58Z</time>
      </trkpt>
      <trkpt lat="43.42681" lon="5.42181">
        <ele>230.571</ele>
        <time>2011-11-23T08:28:08Z</time>
      </trkpt>
      <trkpt lat="43.42679" lon="5.42176">
        <ele>230.582</ele>
        <time>2011-11-23T08:28:18Z</time>
      </trkpt>
      <trkpt lat="43.42678" lon="5.42165">
        <ele>230.856</ele>
        <time>2011-11-23T08:28:28Z</time>
      </trkpt>
      <trkpt lat="43.42677" lon="5.42149">
        <ele>230.439</ele>
        <time>2011-11-23T08:28:38Z</time>
      </trkpt>
      <trkpt lat="43.4268" lon="5.42138">
        <ele>231.167</ele>
        <time>2011-11-23T08:28:48Z</time>
      </trkpt>
      <trkpt lat="43.42678" lon="5.42123">
        <ele>231.567</ele>
        <time>2011-11-23T08:28:58Z</time>
      </trkpt>
      <trkpt lat="43.42673" lon="5.42108">
        <ele>232.87</ele>
        <time>2011-11-23T08:29:08Z</time>
      </trkpt>
      <trkpt lat="43.4267" lon="5.42095">
        <ele>233.575</ele>
        <time>2011-11-23T08:29:18Z</time>
      </trkpt>
      <trkpt lat="43.42676" lon="5.42077">
        <ele>234.19</ele>
        <time>2011-11-23T08:29:28Z</time>
      </trkpt>
      <trkpt lat="43.42668" lon="5.42063">
        <ele>235.462</ele>
        <time>2011-11-23T08:29:38Z</time>
      </trkpt>
      <trkpt lat="43.42662" lon="5.4205">
        <ele>235.759</ele>
        <time>2011-11-23T08:29:48Z</time>
      </trkpt>
      <trkpt lat="43.42658" lon="5.42041">
        <ele>237.44</ele>
        <time>2011-11-23T08:29:58Z</time>
      </trkpt>
      <trkpt lat="43.42649" lon="5.4203">
        <ele>238.103</ele>
        <time>2011-11-23T08:30:08Z</time>
      </trkpt>
      <trkpt lat="43.42647" lon="5.42021">
        <ele>238.497</ele>
        <time>2011-11-23T08:30:18Z</time>
      </trkpt>
      <trkpt lat="43.42637" lon="5.42013">
        <ele>239.529</ele>
        <time>2011-11-23T08:30:28Z</time>
      </trkpt>
      <trkpt lat="43.42624" lon="5.42009">
        <ele>240.278</ele>
        <time>2011-11-23T08:30:38Z</time>
      </trkpt>
      <trkpt lat="43.42607" lon="5.42008">
        <ele>240.188</ele>
        <time>2011-11-23T08:30:48Z</time>
      </trkpt>
      <trkpt lat="43.42596" lon="5.41999">
        <ele>240.92</ele>
        <time>2011-11-23T08:30:58Z</time>
      </trkpt>
      <trkpt lat="43.42583" lon="5.42">
        <ele>241.136</ele>
        <time>2011-11-23T08:31:08Z</time>
      </trkpt>
      <trkpt lat="43.42578" lon="5.41993">
        <ele>241.519</ele>
        <time>2011-11-23T08:31:18Z</time>
      </trkpt>
      <trkpt lat="43.4258" lon="5.41979">
        <ele>241.279</ele>
        <time>2011-11-23T08:31:28Z</time>
      </trkpt>
      <trkpt lat="43.42572" lon="5.41961">
        <ele>241.451</ele>
        <time>2011-11-23T08:31:38Z</time>
      </trkpt>
      <trkpt lat="43.42564" lon="5.41952">
        <ele>241.816</ele>
        <time>2011-11-23T08:31:48Z</time>
      </trkpt>
      <trkpt lat="43.42556" lon="5.4195">
        <ele>241.964</ele>
        <time>2011-11-23T08:31:58Z</time>
      </trkpt>
      <trkpt lat="43.42539" lon="5.41951">
        <ele>242.637</ele>
        <time>2011-11-23T08:32:08Z</time>
      </trkpt>
      <trkpt lat="43.42531" lon="5.41945">
        <ele>243.266</ele>
        <time>2011-11-23T08:32:18Z</time>
      </trkpt>
      <trkpt lat="43.42527" lon="5.41943">
        <ele>243.564</ele>
        <time>2011-11-23T08:32:28Z</time>
      </trkpt>
      <trkpt lat="43.42519" lon="5.4194">
        <ele>244.399</ele>
        <time>2011-11-23T08:32:38Z</time>
      </trkpt>
      <trkpt lat="43.42518" lon="5.41936">
        <ele>244.257</ele>
        <time>2011-11-23T08:32:48Z</time>
      </trkpt>
      <trkpt lat="43.4252" lon="5.41941">
        <ele>244.963</ele>
        <time>2011-11-23T08:32:58Z</time>
      </trkpt>
      <trkpt lat="43.42516" lon="5.41953">
        <ele>245.04</ele>
        <time>2011-11-23T08:33:08Z</time>
      </trkpt>
      <trkpt lat="43.42515" lon="5.41954">
        <ele>244.481</ele>
        <time>2011-11-23T08:33:09Z</time>
      </trkpt>
      <trkpt lat="43.42507" lon="5.41956">
        <ele>244.985</ele>
        <time>2011-11-23T08:33:18Z</time>
      </trkpt>
      <trkpt lat="43.425" lon="5.41962">
        <ele>245.456</ele>
        <time>2011-11-23T08:33:28Z</time>
      </trkpt>
      <trkpt lat="43.42492" lon="5.41971">
        <ele>246.093</ele>
        <time>2011-11-23T08:33:38Z</time>
      </trkpt>
      <trkpt lat="43.42487" lon="5.41979">
        <ele>246.092</ele>
        <time>2011-11-23T08:33:48Z</time>
      </trkpt>
      <trkpt lat="43.42492" lon="5.4199">
        <ele>246.012</ele>
        <time>2011-11-23T08:33:58Z</time>
      </trkpt>
      <trkpt lat="43.42484" lon="5.41995">
        <ele>246.315</ele>
        <time>2011-11-23T08:34:08Z</time>
      </trkpt>
      <trkpt lat="43.42471" lon="5.41999">
        <ele>246.642</ele>
        <time>2011-11-23T08:34:18Z</time>
      </trkpt>
      <trkpt lat="43.42461" lon="5.42004">
        <ele>246.971</ele>
        <time>2011-11-23T08:34:28Z</time>
      </trkpt>
      <trkpt lat="43.42461" lon="5.42016">
        <ele>247.051</ele>
        <time>2011-11-23T08:34:38Z</time>
      </trkpt>
      <trkpt lat="43.42465" lon="5.42032">
        <ele>247.771</ele>
        <time>2011-11-23T08:34:48Z</time>
      </trkpt>
      <trkpt lat="43.42454" lon="5.42056">
        <ele>248.568</ele>
        <time>2011-11-23T08:34:58Z</time>
      </trkpt>
      <trkpt lat="43.42455" lon="5.42069">
        <ele>248.954</ele>
        <time>2011-11-23T08:35:08Z</time>
      </trkpt>
      <trkpt lat="43.42452" lon="5.42074">
        <ele>249.675</ele>
        <time>2011-11-23T08:35:18Z</time>
      </trkpt>
      <trkpt lat="43.42448" lon="5.42093">
        <ele>250.421</ele>
        <time>2011-11-23T08:35:28Z</time>
      </trkpt>
      <trkpt lat="43.42449" lon="5.42114">
        <ele>252.091</ele>
        <time>2011-11-23T08:35:38Z</time>
      </trkpt>
      <trkpt lat="43.42445" lon="5.42118">
        <ele>252.337</ele>
        <time>2011-11-23T08:35:48Z</time>
      </trkpt>
      <trkpt lat="43.42442" lon="5.4213">
        <ele>254.4</ele>
        <time>2011-11-23T08:35:58Z</time>
      </trkpt>
      <trkpt lat="43.42436" lon="5.42143">
        <ele>255.669</ele>
        <time>2011-11-23T08:36:08Z</time>
      </trkpt>
      <trkpt lat="43.4244" lon="5.42158">
        <ele>256.905</ele>
        <time>2011-11-23T08:36:18Z</time>
      </trkpt>
      <trkpt lat="43.42434" lon="5.42166">
        <ele>257.533</ele>
        <time>2011-11-23T08:36:28Z</time>
      </trkpt>
      <trkpt lat="43.42423" lon="5.42173">
        <ele>258.578</ele>
        <time>2011-11-23T08:36:38Z</time>
      </trkpt>
      <trkpt lat="43.42411" lon="5.42178">
        <ele>258.76</ele>
        <time>2011-11-23T08:36:48Z</time>
      </trkpt>
      <trkpt lat="43.42403" lon="5.42189">
        <ele>258.441</ele>
        <time>2011-11-23T08:36:58Z</time>
      </trkpt>
      <trkpt lat="43.42398" lon="5.42205">
        <ele>257.486</ele>
        <time>2011-11-23T08:37:08Z</time>
      </trkpt>
      <trkpt lat="43.42388" lon="5.42211">
        <ele>257.113</ele>
        <time>2011-11-23T08:37:18Z</time>
      </trkpt>
      <trkpt lat="43.42379" lon="5.4222">
        <ele>256.182</ele>
        <time>2011-11-23T08:37:28Z</time>
      </trkpt>
      <trkpt lat="43.4237" lon="5.42229">
        <ele>256.077</ele>
        <time>2011-11-23T08:37:38Z</time>
      </trkpt>
      <trkpt lat="43.42358" lon="5.42236">
        <ele>255.94</ele>
        <time>2011-11-23T08:37:48Z</time>
      </trkpt>
      <trkpt lat="43.42353" lon="5.42247">
        <ele>256.485</ele>
        <time>2011-11-23T08:37:58Z</time>
      </trkpt>
      <trkpt lat="43.42338" lon="5.42253">
        <ele>256.305</ele>
        <time>2011-11-23T08:38:08Z</time>
      </trkpt>
      <trkpt lat="43.42329" lon="5.4226">
        <ele>257.206</ele>
        <time>2011-11-23T08:38:18Z</time>
      </trkpt>
      <trkpt lat="43.42313" lon="5.42262">
        <ele>257.864</ele>
        <time>2011-11-23T08:38:28Z</time>
      </trkpt>
      <trkpt lat="43.42298" lon="5.42263">
        <ele>257.721</ele>
        <time>2011-11-23T08:38:38Z</time>
      </trkpt>
      <trkpt lat="43.42291" lon="5.42273">
        <ele>257.833</ele>
        <time>2011-11-23T08:38:48Z</time>
      </trkpt>
      <trkpt lat="43.4228" lon="5.42283">
        <ele>258.679</ele>
        <time>2011-11-23T08:38:58Z</time>
      </trkpt>
      <trkpt lat="43.42272" lon="5.42297">
        <ele>259.168</ele>
        <time>2011-11-23T08:39:08Z</time>
      </trkpt>
      <trkpt lat="43.42266" lon="5.42312">
        <ele>259.577</ele>
        <time>2011-11-23T08:39:18Z</time>
      </trkpt>
      <trkpt lat="43.42263" lon="5.4233">
        <ele>260.754</ele>
        <time>2011-11-23T08:39:28Z</time>
      </trkpt>
      <trkpt lat="43.42256" lon="5.42344">
        <ele>260.665</ele>
        <time>2011-11-23T08:39:38Z</time>
      </trkpt>
      <trkpt lat="43.42247" lon="5.42356">
        <ele>260.538</ele>
        <time>2011-11-23T08:39:48Z</time>
      </trkpt>
      <trkpt lat="43.42238" lon="5.42366">
        <ele>260.837</ele>
        <time>2011-11-23T08:39:58Z</time>
      </trkpt>
      <trkpt lat="43.4223" lon="5.42373">
        <ele>261.247</ele>
        <time>2011-11-23T08:40:08Z</time>
      </trkpt>
      <trkpt lat="43.42217" lon="5.42384">
        <ele>261.913</ele>
        <time>2011-11-23T08:40:18Z</time>
      </trkpt>
      <trkpt lat="43.42212" lon="5.42399">
        <ele>262.645</ele>
        <time>2011-11-23T08:40:28Z</time>
      </trkpt>
      <trkpt lat="43.42205" lon="5.42411">
        <ele>263.147</ele>
        <time>2011-11-23T08:40:38Z</time>
      </trkpt>
      <trkpt lat="43.42196" lon="5.42424">
        <ele>263.917</ele>
        <time>2011-11-23T08:40:48Z</time>
      </trkpt>
      <trkpt lat="43.42186" lon="5.42436">
        <ele>264.293</ele>
        <time>2011-11-23T08:40:58Z</time>
      </trkpt>
      <trkpt lat="43.42175" lon="5.42444">
        <ele>264.18</ele>
        <time>2011-11-23T08:41:08Z</time>
      </trkpt>
      <trkpt lat="43.42162" lon="5.42452">
        <ele>263.726</ele>
        <time>2011-11-23T08:41:18Z</time>
      </trkpt>
      <trkpt lat="43.42152" lon="5.42457">
        <ele>264.415</ele>
        <time>2011-11-23T08:41:28Z</time>
      </trkpt>
      <trkpt lat="43.42147" lon="5.42457">
        <ele>264.361</ele>
        <time>2011-11-23T08:41:38Z</time>
      </trkpt>
      <trkpt lat="43.42134" lon="5.42458">
        <ele>264.664</ele>
        <time>2011-11-23T08:41:48Z</time>
      </trkpt>
      <trkpt lat="43.42125" lon="5.42458">
        <ele>264.672</ele>
        <time>2011-11-23T08:41:58Z</time>
      </trkpt>
      <trkpt lat="43.42116" lon="5.42455">
        <ele>265.193</ele>
        <time>2011-11-23T08:42:08Z</time>
      </trkpt>
      <trkpt lat="43.42105" lon="5.42449">
        <ele>265.095</ele>
        <time>2011-11-23T08:42:18Z</time>
      </trkpt>
      <trkpt lat="43.42096" lon="5.42443">
        <ele>264.629</ele>
        <time>2011-11-23T08:42:28Z</time>
      </trkpt>
      <trkpt lat="43.42084" lon="5.42434">
        <ele>265.444</ele>
        <time>2011-11-23T08:42:38Z</time>
      </trkpt>
      <trkpt lat="43.42079" lon="5.4243">
        <ele>265.282</ele>
        <time>2011-11-23T08:42:48Z</time>
      </trkpt>
      <trkpt lat="43.42072" lon="5.42423">
        <ele>265.738</ele>
        <time>2011-11-23T08:42:58Z</time>
      </trkpt>
      <trkpt lat="43.4205" lon="5.4241">
        <ele>266.288</ele>
        <time>2011-11-23T08:43:08Z</time>
      </trkpt>
      <trkpt lat="43.42043" lon="5.42416">
        <ele>267.822</ele>
        <time>2011-11-23T08:43:18Z</time>
      </trkpt>
      <trkpt lat="43.42036" lon="5.42427">
        <ele>269.235</ele>
        <time>2011-11-23T08:43:28Z</time>
      </trkpt>
      <trkpt lat="43.42034" lon="5.42439">
        <ele>270.282</ele>
        <time>2011-11-23T08:43:38Z</time>
      </trkpt>
      <trkpt lat="43.4203" lon="5.42453">
        <ele>271.279</ele>
        <time>2011-11-23T08:43:48Z</time>
      </trkpt>
      <trkpt lat="43.42024" lon="5.42464">
        <ele>272.133</ele>
        <time>2011-11-23T08:43:58Z</time>
      </trkpt>
      <trkpt lat="43.42014" lon="5.42473">
        <ele>272.422</ele>
        <time>2011-11-23T08:44:08Z</time>
      </trkpt>
      <trkpt lat="43.42004" lon="5.42481">
        <ele>273.211</ele>
        <time>2011-11-23T08:44:18Z</time>
      </trkpt>
      <trkpt lat="43.41987" lon="5.42489">
        <ele>274.303</ele>
        <time>2011-11-23T08:44:28Z</time>
      </trkpt>
      <trkpt lat="43.41977" lon="5.42486">
        <ele>275.643</ele>
        <time>2011-11-23T08:44:38Z</time>
      </trkpt>
      <trkpt lat="43.41965" lon="5.42484">
        <ele>276.401</ele>
        <time>2011-11-23T08:44:48Z</time>
      </trkpt>
      <trkpt lat="43.41963" lon="5.42481">
        <ele>277.933</ele>
        <time>2011-11-23T08:44:58Z</time>
      </trkpt>
      <trkpt lat="43.41958" lon="5.4249">
        <ele>278.409</ele>
        <time>2011-11-23T08:45:08Z</time>
      </trkpt>
      <trkpt lat="43.41951" lon="5.42505">
        <ele>278.916</ele>
        <time>2011-11-23T08:45:18Z</time>
      </trkpt>
      <trkpt lat="43.41946" lon="5.42521">
        <ele>279.816</ele>
        <time>2011-11-23T08:45:28Z</time>
      </trkpt>
      <trkpt lat="43.41943" lon="5.42535">
        <ele>280.296</ele>
        <time>2011-11-23T08:45:38Z</time>
      </trkpt>
      <trkpt lat="43.41937" lon="5.42553">
        <ele>281.247</ele>
        <time>2011-11-23T08:45:48Z</time>
      </trkpt>
      <trkpt lat="43.41926" lon="5.42565">
        <ele>282.294</ele>
        <time>2011-11-23T08:45:58Z</time>
      </trkpt>
      <trkpt lat="43.41913" lon="5.42573">
        <ele>283.159</ele>
        <time>2011-11-23T08:46:08Z</time>
      </trkpt>
      <trkpt lat="43.41901" lon="5.42576">
        <ele>283.84</ele>
        <time>2011-11-23T08:46:18Z</time>
      </trkpt>
      <trkpt lat="43.41891" lon="5.42577">
        <ele>284.37</ele>
        <time>2011-11-23T08:46:28Z</time>
      </trkpt>
      <trkpt lat="43.41884" lon="5.42577">
        <ele>284.901</ele>
        <time>2011-11-23T08:46:38Z</time>
      </trkpt>
      <trkpt lat="43.41875" lon="5.42586">
        <ele>285.473</ele>
        <time>2011-11-23T08:46:48Z</time>
      </trkpt>
      <trkpt lat="43.41864" lon="5.42594">
        <ele>285.669</ele>
        <time>2011-11-23T08:46:58Z</time>
      </trkpt>
      <trkpt lat="43.41853" lon="5.42603">
        <ele>286.448</ele>
        <time>2011-11-23T08:47:08Z</time>
      </trkpt>
      <trkpt lat="43.41844" lon="5.42614">
        <ele>287.21</ele>
        <time>2011-11-23T08:47:18Z</time>
      </trkpt>
      <trkpt lat="43.41834" lon="5.42623">
        <ele>287.922</ele>
        <time>2011-11-23T08:47:28Z</time>
      </trkpt>
      <trkpt lat="43.41827" lon="5.4263">
        <ele>288.343</ele>
        <time>2011-11-23T08:47:38Z</time>
      </trkpt>
      <trkpt lat="43.41816" lon="5.42636">
        <ele>288.869</ele>
        <time>2011-11-23T08:47:48Z</time>
      </trkpt>
      <trkpt lat="43.41808" lon="5.4264">
        <ele>290</ele>
        <time>2011-11-23T08:47:58Z</time>
      </trkpt>
      <trkpt lat="43.41797" lon="5.42643">
        <ele>290.736</ele>
        <time>2011-11-23T08:48:08Z</time>
      </trkpt>
      <trkpt lat="43.41787" lon="5.42646">
        <ele>291.309</ele>
        <time>2011-11-23T08:48:18Z</time>
      </trkpt>
      <trkpt lat="43.41768" lon="5.42643">
        <ele>292.053</ele>
        <time>2011-11-23T08:48:28Z</time>
      </trkpt>
      <trkpt lat="43.41756" lon="5.42637">
        <ele>292.431</ele>
        <time>2011-11-23T08:48:38Z</time>
      </trkpt>
      <trkpt lat="43.41745" lon="5.4263">
        <ele>293.278</ele>
        <time>2011-11-23T08:48:48Z</time>
      </trkpt>
      <trkpt lat="43.41739" lon="5.42625">
        <ele>294.121</ele>
        <time>2011-11-23T08:48:58Z</time>
      </trkpt>
      <trkpt lat="43.41728" lon="5.42624">
        <ele>295.759</ele>
        <time>2011-11-23T08:49:08Z</time>
      </trkpt>
      <trkpt lat="43.41721" lon="5.4262">
        <ele>296.655</ele>
        <time>2011-11-23T08:49:18Z</time>
      </trkpt>
      <trkpt lat="43.41716" lon="5.42614">
        <ele>297.447</ele>
        <time>2011-11-23T08:49:28Z</time>
      </trkpt>
      <trkpt lat="43.41707" lon="5.42616">
        <ele>298.624</ele>
        <time>2011-11-23T08:49:38Z</time>
      </trkpt>
      <trkpt lat="43.41697" lon="5.4262">
        <ele>299.522</ele>
        <time>2011-11-23T08:49:48Z</time>
      </trkpt>
      <trkpt lat="43.41692" lon="5.42629">
        <ele>300.544</ele>
        <time>2011-11-23T08:49:58Z</time>
      </trkpt>
      <trkpt lat="43.41694" lon="5.42645">
        <ele>301.538</ele>
        <time>2011-11-23T08:50:08Z</time>
      </trkpt>
      <trkpt lat="43.41695" lon="5.4266">
        <ele>302.017</ele>
        <time>2011-11-23T08:50:18Z</time>
      </trkpt>
      <trkpt lat="43.4169" lon="5.42673">
        <ele>302.833</ele>
        <time>2011-11-23T08:50:28Z</time>
      </trkpt>
      <trkpt lat="43.41681" lon="5.42683">
        <ele>303.947</ele>
        <time>2011-11-23T08:50:38Z</time>
      </trkpt>
      <trkpt lat="43.41674" lon="5.42688">
        <ele>304.926</ele>
        <time>2011-11-23T08:50:48Z</time>
      </trkpt>
      <trkpt lat="43.41659" lon="5.42691">
        <ele>306.067</ele>
        <time>2011-11-23T08:50:58Z</time>
      </trkpt>
      <trkpt lat="43.41653" lon="5.4269">
        <ele>306.549</ele>
        <time>2011-11-23T08:51:08Z</time>
      </trkpt>
      <trkpt lat="43.41642" lon="5.4269">
        <ele>306.648</ele>
        <time>2011-11-23T08:51:18Z</time>
      </trkpt>
      <trkpt lat="43.41626" lon="5.4269">
        <ele>307.349</ele>
        <time>2011-11-23T08:51:28Z</time>
      </trkpt>
      <trkpt lat="43.41609" lon="5.4269">
        <ele>307.069</ele>
        <time>2011-11-23T08:51:38Z</time>
      </trkpt>
      <trkpt lat="43.41597" lon="5.42688">
        <ele>307.802</ele>
        <time>2011-11-23T08:51:48Z</time>
      </trkpt>
      <trkpt lat="43.41585" lon="5.42683">
        <ele>308.159</ele>
        <time>2011-11-23T08:51:58Z</time>
      </trkpt>
      <trkpt lat="43.41568" lon="5.4268">
        <ele>308.392</ele>
        <time>2011-11-23T08:52:08Z</time>
      </trkpt>
      <trkpt lat="43.41555" lon="5.42684">
        <ele>308.802</ele>
        <time>2011-11-23T08:52:18Z</time>
      </trkpt>
      <trkpt lat="43.41546" lon="5.42694">
        <ele>309.152</ele>
        <time>2011-11-23T08:52:28Z</time>
      </trkpt>
      <trkpt lat="43.4154" lon="5.42702">
        <ele>309.121</ele>
        <time>2011-11-23T08:52:38Z</time>
      </trkpt>
      <trkpt lat="43.41536" lon="5.42719">
        <ele>309.373</ele>
        <time>2011-11-23T08:52:48Z</time>
      </trkpt>
      <trkpt lat="43.41534" lon="5.42737">
        <ele>309.545</ele>
        <time>2011-11-23T08:52:58Z</time>
      </trkpt>
      <trkpt lat="43.41527" lon="5.4275">
        <ele>309.826</ele>
        <time>2011-11-23T08:53:08Z</time>
      </trkpt>
      <trkpt lat="43.4152" lon="5.42764">
        <ele>309.833</ele>
        <time>2011-11-23T08:53:18Z</time>
      </trkpt>
      <trkpt lat="43.41519" lon="5.42784">
        <ele>309.984</ele>
        <time>2011-11-23T08:53:28Z</time>
      </trkpt>
      <trkpt lat="43.41514" lon="5.42799">
        <ele>309.943</ele>
        <time>2011-11-23T08:53:38Z</time>
      </trkpt>
      <trkpt lat="43.41516" lon="5.42817">
        <ele>309.832</ele>
        <time>2011-11-23T08:53:48Z</time>
      </trkpt>
      <trkpt lat="43.41516" lon="5.42822">
        <ele>310.33</ele>
        <time>2011-11-23T08:53:58Z</time>
      </trkpt>
      <trkpt lat="43.41514" lon="5.42828">
        <ele>310.739</ele>
        <time>2011-11-23T08:54:08Z</time>
      </trkpt>
      <trkpt lat="43.41513" lon="5.42837">
        <ele>310.513</ele>
        <time>2011-11-23T08:54:18Z</time>
      </trkpt>
      <trkpt lat="43.41512" lon="5.42853">
        <ele>310.074</ele>
        <time>2011-11-23T08:54:28Z</time>
      </trkpt>
      <trkpt lat="43.41514" lon="5.42871">
        <ele>310.845</ele>
        <time>2011-11-23T08:54:38Z</time>
      </trkpt>
      <trkpt lat="43.41512" lon="5.42887">
        <ele>310.548</ele>
        <time>2011-11-23T08:54:48Z</time>
      </trkpt>
      <trkpt lat="43.4151" lon="5.42906">
        <ele>310.86</ele>
        <time>2011-11-23T08:54:58Z</time>
      </trkpt>
      <trkpt lat="43.41505" lon="5.4292">
        <ele>310.748</ele>
        <time>2011-11-23T08:55:08Z</time>
      </trkpt>
      <trkpt lat="43.41506" lon="5.42937">
        <ele>311.504</ele>
        <time>2011-11-23T08:55:18Z</time>
      </trkpt>
      <trkpt lat="43.41512" lon="5.42957">
        <ele>311.007</ele>
        <time>2011-11-23T08:55:28Z</time>
      </trkpt>
      <trkpt lat="43.41505" lon="5.4297">
        <ele>310.899</ele>
        <time>2011-11-23T08:55:38Z</time>
      </trkpt>
      <trkpt lat="43.41494" lon="5.42968">
        <ele>310.724</ele>
        <time>2011-11-23T08:55:48Z</time>
      </trkpt>
      <trkpt lat="43.41477" lon="5.42971">
        <ele>310.897</ele>
        <time>2011-11-23T08:55:58Z</time>
      </trkpt>
      <trkpt lat="43.41472" lon="5.42982">
        <ele>310.9</ele>
        <time>2011-11-23T08:56:08Z</time>
      </trkpt>
      <trkpt lat="43.41461" lon="5.42989">
        <ele>310.745</ele>
        <time>2011-11-23T08:56:18Z</time>
      </trkpt>
      <trkpt lat="43.41455" lon="5.42985">
        <ele>310.139</ele>
        <time>2011-11-23T08:56:28Z</time>
      </trkpt>
      <trkpt lat="43.41457" lon="5.42984">
        <ele>310.711</ele>
        <time>2011-11-23T08:56:38Z</time>
      </trkpt>
      <trkpt lat="43.41461" lon="5.42968">
        <ele>310.139</ele>
        <time>2011-11-23T08:56:48Z</time>
      </trkpt>
      <trkpt lat="43.41467" lon="5.42954">
        <ele>310.473</ele>
        <time>2011-11-23T08:56:58Z</time>
      </trkpt>
      <trkpt lat="43.41469" lon="5.42939">
        <ele>310.45</ele>
        <time>2011-11-23T08:57:08Z</time>
      </trkpt>
      <trkpt lat="43.41473" lon="5.42925">
        <ele>310.94</ele>
        <time>2011-11-23T08:57:18Z</time>
      </trkpt>
      <trkpt lat="43.41478" lon="5.4291">
        <ele>310.977</ele>
        <time>2011-11-23T08:57:28Z</time>
      </trkpt>
      <trkpt lat="43.41477" lon="5.42895">
        <ele>310.997</ele>
        <time>2011-11-23T08:57:38Z</time>
      </trkpt>
      <trkpt lat="43.41479" lon="5.42879">
        <ele>311.042</ele>
        <time>2011-11-23T08:57:48Z</time>
      </trkpt>
      <trkpt lat="43.41476" lon="5.42864">
        <ele>311.385</ele>
        <time>2011-11-23T08:57:58Z</time>
      </trkpt>
      <trkpt lat="43.4147" lon="5.42849">
        <ele>310.6</ele>
        <time>2011-11-23T08:58:08Z</time>
      </trkpt>
      <trkpt lat="43.41469" lon="5.42835">
        <ele>309.252</ele>
        <time>2011-11-23T08:58:18Z</time>
      </trkpt>
      <trkpt lat="43.41458" lon="5.42818">
        <ele>307.464</ele>
        <time>2011-11-23T08:58:28Z</time>
      </trkpt>
      <trkpt lat="43.41461" lon="5.42817">
        <ele>307.568</ele>
        <time>2011-11-23T08:58:38Z</time>
      </trkpt>
      <trkpt lat="43.41463" lon="5.42817">
        <ele>307.374</ele>
        <time>2011-11-23T08:58:48Z</time>
      </trkpt>
      <trkpt lat="43.4147" lon="5.42817">
        <ele>307.817</ele>
        <time>2011-11-23T08:58:58Z</time>
      </trkpt>
      <trkpt lat="43.41472" lon="5.42818">
        <ele>308.308</ele>
        <time>2011-11-23T08:59:08Z</time>
      </trkpt>
      <trkpt lat="43.41469" lon="5.42818">
        <ele>307.683</ele>
        <time>2011-11-23T08:59:18Z</time>
      </trkpt>
      <trkpt lat="43.41469" lon="5.42822">
        <ele>307.923</ele>
        <time>2011-11-23T08:59:28Z</time>
      </trkpt>
      <trkpt lat="43.41471" lon="5.42828">
        <ele>308.304</ele>
        <time>2011-11-23T08:59:38Z</time>
      </trkpt>
      <trkpt lat="43.41463" lon="5.42822">
        <ele>306.447</ele>
        <time>2011-11-23T08:59:48Z</time>
      </trkpt>
      <trkpt lat="43.41463" lon="5.42823">
        <ele>307.074</ele>
        <time>2011-11-23T08:59:58Z</time>
      </trkpt>
      <trkpt lat="43.41467" lon="5.42818">
        <ele>307.165</ele>
        <time>2011-11-23T09:00:08Z</time>
      </trkpt>
      <trkpt lat="43.41463" lon="5.42815">
        <ele>306.604</ele>
        <time>2011-11-23T09:00:18Z</time>
      </trkpt>
      <trkpt lat="43.41462" lon="5.42813">
        <ele>305.686</ele>
        <time>2011-11-23T09:00:28Z</time>
      </trkpt>
      <trkpt lat="43.41462" lon="5.42798">
        <ele>305.447</ele>
        <time>2011-11-23T09:00:38Z</time>
      </trkpt>
      <trkpt lat="43.41458" lon="5.42785">
        <ele>304.258</ele>
        <time>2011-11-23T09:00:48Z</time>
      </trkpt>
      <trkpt lat="43.41461" lon="5.42784">
        <ele>304.248</ele>
        <time>2011-11-23T09:00:58Z</time>
      </trkpt>
      <trkpt lat="43.41464" lon="5.42784">
        <ele>303.86</ele>
        <time>2011-11-23T09:01:08Z</time>
      </trkpt>
      <trkpt lat="43.41466" lon="5.42774">
        <ele>303.729</ele>
        <time>2011-11-23T09:01:18Z</time>
      </trkpt>
      <trkpt lat="43.41464" lon="5.42758">
        <ele>303.613</ele>
        <time>2011-11-23T09:01:28Z</time>
      </trkpt>
      <trkpt lat="43.41461" lon="5.42743">
        <ele>302.629</ele>
        <time>2011-11-23T09:01:38Z</time>
      </trkpt>
      <trkpt lat="43.41463" lon="5.42728">
        <ele>301.836</ele>
        <time>2011-11-23T09:01:48Z</time>
      </trkpt>
      <trkpt lat="43.41457" lon="5.42707">
        <ele>301.012</ele>
        <time>2011-11-23T09:01:58Z</time>
      </trkpt>
      <trkpt lat="43.4146" lon="5.42692">
        <ele>300.966</ele>
        <time>2011-11-23T09:02:08Z</time>
      </trkpt>
      <trkpt lat="43.41462" lon="5.42679">
        <ele>300.386</ele>
        <time>2011-11-23T09:02:18Z</time>
      </trkpt>
      <trkpt lat="43.41462" lon="5.4267">
        <ele>300.171</ele>
        <time>2011-11-23T09:02:28Z</time>
      </trkpt>
      <trkpt lat="43.41463" lon="5.42656">
        <ele>299.276</ele>
        <time>2011-11-23T09:02:38Z</time>
      </trkpt>
      <trkpt lat="43.41464" lon="5.42651">
        <ele>298.491</ele>
        <time>2011-11-23T09:02:48Z</time>
      </trkpt>
      <trkpt lat="43.41461" lon="5.42644">
        <ele>297.485</ele>
        <time>2011-11-23T09:02:58Z</time>
      </trkpt>
      <trkpt lat="43.41463" lon="5.42627">
        <ele>295.572</ele>
        <time>2011-11-23T09:03:08Z</time>
      </trkpt>
      <trkpt lat="43.41467" lon="5.42609">
        <ele>294.013</ele>
        <time>2011-11-23T09:03:18Z</time>
      </trkpt>
      <trkpt lat="43.41468" lon="5.42593">
        <ele>293.279</ele>
        <time>2011-11-23T09:03:28Z</time>
      </trkpt>
      <trkpt lat="43.41458" lon="5.42585">
        <ele>292.552</ele>
        <time>2011-11-23T09:03:38Z</time>
      </trkpt>
      <trkpt lat="43.41446" lon="5.42587">
        <ele>292.826</ele>
        <time>2011-11-23T09:03:48Z</time>
      </trkpt>
      <trkpt lat="43.41435" lon="5.42588">
        <ele>292.746</ele>
        <time>2011-11-23T09:03:58Z</time>
      </trkpt>
      <trkpt lat="43.41425" lon="5.4259">
        <ele>292.882</ele>
        <time>2011-11-23T09:04:08Z</time>
      </trkpt>
      <trkpt lat="43.41416" lon="5.42592">
        <ele>291.386</ele>
        <time>2011-11-23T09:04:18Z</time>
      </trkpt>
      <trkpt lat="43.41405" lon="5.42588">
        <ele>290.544</ele>
        <time>2011-11-23T09:04:28Z</time>
      </trkpt>
      <trkpt lat="43.41393" lon="5.42582">
        <ele>291.584</ele>
        <time>2011-11-23T09:04:38Z</time>
      </trkpt>
      <trkpt lat="43.4138" lon="5.42576">
        <ele>293.591</ele>
        <time>2011-11-23T09:04:48Z</time>
      </trkpt>
      <trkpt lat="43.41369" lon="5.42567">
        <ele>293.631</ele>
        <time>2011-11-23T09:04:58Z</time>
      </trkpt>
      <trkpt lat="43.41363" lon="5.42555">
        <ele>293.969</ele>
        <time>2011-11-23T09:05:08Z</time>
      </trkpt>
      <trkpt lat="43.41353" lon="5.42545">
        <ele>294.365</ele>
        <time>2011-11-23T09:05:18Z</time>
      </trkpt>
      <trkpt lat="43.41344" lon="5.42532">
        <ele>294.654</ele>
        <time>2011-11-23T09:05:28Z</time>
      </trkpt>
      <trkpt lat="43.41336" lon="5.42522">
        <ele>294.172</ele>
        <time>2011-11-23T09:05:38Z</time>
      </trkpt>
      <trkpt lat="43.41326" lon="5.42513">
        <ele>294.507</ele>
        <time>2011-11-23T09:05:48Z</time>
      </trkpt>
      <trkpt lat="43.41311" lon="5.42498">
        <ele>295.518</ele>
        <time>2011-11-23T09:05:58Z</time>
      </trkpt>
      <trkpt lat="43.41301" lon="5.42493">
        <ele>295.852</ele>
        <time>2011-11-23T09:06:08Z</time>
      </trkpt>
      <trkpt lat="43.41289" lon="5.42487">
        <ele>296.51</ele>
        <time>2011-11-23T09:06:18Z</time>
      </trkpt>
      <trkpt lat="43.41283" lon="5.42484">
        <ele>297.517</ele>
        <time>2011-11-23T09:06:28Z</time>
      </trkpt>
      <trkpt lat="43.41271" lon="5.42492">
        <ele>297.735</ele>
        <time>2011-11-23T09:06:38Z</time>
      </trkpt>
      <trkpt lat="43.41256" lon="5.42503">
        <ele>298.322</ele>
        <time>2011-11-23T09:06:48Z</time>
      </trkpt>
      <trkpt lat="43.41246" lon="5.42513">
        <ele>298.272</ele>
        <time>2011-11-23T09:06:58Z</time>
      </trkpt>
      <trkpt lat="43.41241" lon="5.4253">
        <ele>298.667</ele>
        <time>2011-11-23T09:07:08Z</time>
      </trkpt>
      <trkpt lat="43.41238" lon="5.42548">
        <ele>299.125</ele>
        <time>2011-11-23T09:07:18Z</time>
      </trkpt>
      <trkpt lat="43.41228" lon="5.42558">
        <ele>299.397</ele>
        <time>2011-11-23T09:07:28Z</time>
      </trkpt>
      <trkpt lat="43.4122" lon="5.4257">
        <ele>299.677</ele>
        <time>2011-11-23T09:07:38Z</time>
      </trkpt>
      <trkpt lat="43.41203" lon="5.42577">
        <ele>299.136</ele>
        <time>2011-11-23T09:07:48Z</time>
      </trkpt>
      <trkpt lat="43.41191" lon="5.42585">
        <ele>299.246</ele>
        <time>2011-11-23T09:07:58Z</time>
      </trkpt>
      <trkpt lat="43.41184" lon="5.42596">
        <ele>300.029</ele>
        <time>2011-11-23T09:08:08Z</time>
      </trkpt>
      <trkpt lat="43.4117" lon="5.426">
        <ele>301.341</ele>
        <time>2011-11-23T09:08:18Z</time>
      </trkpt>
      <trkpt lat="43.41155" lon="5.42603">
        <ele>301.993</ele>
        <time>2011-11-23T09:08:28Z</time>
      </trkpt>
      <trkpt lat="43.41144" lon="5.42611">
        <ele>302.173</ele>
        <time>2011-11-23T09:08:38Z</time>
      </trkpt>
      <trkpt lat="43.41131" lon="5.42616">
        <ele>302.34</ele>
        <time>2011-11-23T09:08:48Z</time>
      </trkpt>
      <trkpt lat="43.41125" lon="5.42623">
        <ele>302.272</ele>
        <time>2011-11-23T09:08:58Z</time>
      </trkpt>
      <trkpt lat="43.41118" lon="5.42634">
        <ele>302.903</ele>
        <time>2011-11-23T09:09:08Z</time>
      </trkpt>
      <trkpt lat="43.41116" lon="5.42644">
        <ele>302.667</ele>
        <time>2011-11-23T09:09:18Z</time>
      </trkpt>
      <trkpt lat="43.41116" lon="5.42646">
        <ele>303.509</ele>
        <time>2011-11-23T09:09:28Z</time>
      </trkpt>
      <trkpt lat="43.41115" lon="5.42663">
        <ele>303.424</ele>
        <time>2011-11-23T09:09:38Z</time>
      </trkpt>
      <trkpt lat="43.41108" lon="5.42681">
        <ele>303.35</ele>
        <time>2011-11-23T09:09:48Z</time>
      </trkpt>
      <trkpt lat="43.41107" lon="5.42697">
        <ele>304.342</ele>
        <time>2011-11-23T09:09:58Z</time>
      </trkpt>
      <trkpt lat="43.411" lon="5.42706">
        <ele>304.439</ele>
        <time>2011-11-23T09:10:08Z</time>
      </trkpt>
      <trkpt lat="43.41094" lon="5.42719">
        <ele>304.854</ele>
        <time>2011-11-23T09:10:18Z</time>
      </trkpt>
      <trkpt lat="43.41092" lon="5.42733">
        <ele>305.381</ele>
        <time>2011-11-23T09:10:28Z</time>
      </trkpt>
      <trkpt lat="43.41093" lon="5.42747">
        <ele>305.519</ele>
        <time>2011-11-23T09:10:38Z</time>
      </trkpt>
      <trkpt lat="43.41097" lon="5.42764">
        <ele>305.567</ele>
        <time>2011-11-23T09:10:48Z</time>
      </trkpt>
      <trkpt lat="43.41098" lon="5.4278">
        <ele>305.498</ele>
        <time>2011-11-23T09:10:58Z</time>
      </trkpt>
      <trkpt lat="43.41097" lon="5.42795">
        <ele>305.937</ele>
        <time>2011-11-23T09:11:08Z</time>
      </trkpt>
      <trkpt lat="43.4109" lon="5.42807">
        <ele>306.488</ele>
        <time>2011-11-23T09:11:18Z</time>
      </trkpt>
      <trkpt lat="43.41079" lon="5.4282">
        <ele>306.696</ele>
        <time>2011-11-23T09:11:28Z</time>
      </trkpt>
      <trkpt lat="43.41071" lon="5.42835">
        <ele>307.414</ele>
        <time>2011-11-23T09:11:38Z</time>
      </trkpt>
      <trkpt lat="43.41065" lon="5.42844">
        <ele>308.087</ele>
        <time>2011-11-23T09:11:48Z</time>
      </trkpt>
      <trkpt lat="43.41058" lon="5.42856">
        <ele>308.771</ele>
        <time>2011-11-23T09:11:58Z</time>
      </trkpt>
      <trkpt lat="43.41052" lon="5.42867">
        <ele>309.224</ele>
        <time>2011-11-23T09:12:08Z</time>
      </trkpt>
      <trkpt lat="43.41043" lon="5.42872">
        <ele>310.399</ele>
        <time>2011-11-23T09:12:18Z</time>
      </trkpt>
      <trkpt lat="43.41035" lon="5.42884">
        <ele>310.609</ele>
        <time>2011-11-23T09:12:28Z</time>
      </trkpt>
      <trkpt lat="43.41024" lon="5.42895">
        <ele>310.283</ele>
        <time>2011-11-23T09:12:38Z</time>
      </trkpt>
      <trkpt lat="43.41011" lon="5.42901">
        <ele>310.005</ele>
        <time>2011-11-23T09:12:48Z</time>
      </trkpt>
      <trkpt lat="43.40999" lon="5.42908">
        <ele>310.498</ele>
        <time>2011-11-23T09:12:58Z</time>
      </trkpt>
      <trkpt lat="43.40985" lon="5.42911">
        <ele>310.907</ele>
        <time>2011-11-23T09:13:08Z</time>
      </trkpt>
      <trkpt lat="43.40976" lon="5.42911">
        <ele>311.435</ele>
        <time>2011-11-23T09:13:18Z</time>
      </trkpt>
      <trkpt lat="43.40968" lon="5.42924">
        <ele>311.494</ele>
        <time>2011-11-23T09:13:28Z</time>
      </trkpt>
      <trkpt lat="43.40968" lon="5.42941">
        <ele>311.849</ele>
        <time>2011-11-23T09:13:38Z</time>
      </trkpt>
      <trkpt lat="43.40965" lon="5.42956">
        <ele>311.954</ele>
        <time>2011-11-23T09:13:48Z</time>
      </trkpt>
      <trkpt lat="43.4096" lon="5.42975">
        <ele>312.691</ele>
        <time>2011-11-23T09:13:58Z</time>
      </trkpt>
      <trkpt lat="43.40951" lon="5.42983">
        <ele>313.365</ele>
        <time>2011-11-23T09:14:08Z</time>
      </trkpt>
      <trkpt lat="43.4094" lon="5.42993">
        <ele>314.221</ele>
        <time>2011-11-23T09:14:18Z</time>
      </trkpt>
      <trkpt lat="43.40936" lon="5.43006">
        <ele>315.164</ele>
        <time>2011-11-23T09:14:28Z</time>
      </trkpt>
      <trkpt lat="43.40934" lon="5.43017">
        <ele>315.92</ele>
        <time>2011-11-23T09:14:38Z</time>
      </trkpt>
      <trkpt lat="43.40927" lon="5.43026">
        <ele>316.776</ele>
        <time>2011-11-23T09:14:48Z</time>
      </trkpt>
      <trkpt lat="43.40919" lon="5.43032">
        <ele>316.95</ele>
        <time>2011-11-23T09:14:58Z</time>
      </trkpt>
      <trkpt lat="43.40903" lon="5.43031">
        <ele>317.51</ele>
        <time>2011-11-23T09:15:08Z</time>
      </trkpt>
      <trkpt lat="43.40888" lon="5.43023">
        <ele>317.743</ele>
        <time>2011-11-23T09:15:18Z</time>
      </trkpt>
      <trkpt lat="43.40883" lon="5.43012">
        <ele>318.071</ele>
        <time>2011-11-23T09:15:28Z</time>
      </trkpt>
      <trkpt lat="43.40874" lon="5.43008">
        <ele>318.012</ele>
        <time>2011-11-23T09:15:38Z</time>
      </trkpt>
      <trkpt lat="43.40859" lon="5.43009">
        <ele>318.639</ele>
        <time>2011-11-23T09:15:48Z</time>
      </trkpt>
      <trkpt lat="43.40842" lon="5.43013">
        <ele>318.898</ele>
        <time>2011-11-23T09:15:58Z</time>
      </trkpt>
      <trkpt lat="43.40828" lon="5.43017">
        <ele>318.684</ele>
        <time>2011-11-23T09:16:08Z</time>
      </trkpt>
      <trkpt lat="43.40818" lon="5.43023">
        <ele>318.768</ele>
        <time>2011-11-23T09:16:18Z</time>
      </trkpt>
      <trkpt lat="43.40806" lon="5.43026">
        <ele>319.199</ele>
        <time>2011-11-23T09:16:28Z</time>
      </trkpt>
      <trkpt lat="43.40803" lon="5.43039">
        <ele>319.933</ele>
        <time>2011-11-23T09:16:38Z</time>
      </trkpt>
      <trkpt lat="43.408" lon="5.43046">
        <ele>319.928</ele>
        <time>2011-11-23T09:16:48Z</time>
      </trkpt>
      <trkpt lat="43.40789" lon="5.43049">
        <ele>320.422</ele>
        <time>2011-11-23T09:16:58Z</time>
      </trkpt>
      <trkpt lat="43.40784" lon="5.43059">
        <ele>321.011</ele>
        <time>2011-11-23T09:17:08Z</time>
      </trkpt>
      <trkpt lat="43.40789" lon="5.43076">
        <ele>321.397</ele>
        <time>2011-11-23T09:17:18Z</time>
      </trkpt>
      <trkpt lat="43.40793" lon="5.43091">
        <ele>321.727</ele>
        <time>2011-11-23T09:17:28Z</time>
      </trkpt>
      <trkpt lat="43.40793" lon="5.43102">
        <ele>322.425</ele>
        <time>2011-11-23T09:17:38Z</time>
      </trkpt>
      <trkpt lat="43.40791" lon="5.43119">
        <ele>322.772</ele>
        <time>2011-11-23T09:17:48Z</time>
      </trkpt>
      <trkpt lat="43.40789" lon="5.43129">
        <ele>323.349</ele>
        <time>2011-11-23T09:17:58Z</time>
      </trkpt>
      <trkpt lat="43.40791" lon="5.43144">
        <ele>323.715</ele>
        <time>2011-11-23T09:18:08Z</time>
      </trkpt>
      <trkpt lat="43.40792" lon="5.43163">
        <ele>324.832</ele>
        <time>2011-11-23T09:18:18Z</time>
      </trkpt>
      <trkpt lat="43.40782" lon="5.4317">
        <ele>325.262</ele>
        <time>2011-11-23T09:18:28Z</time>
      </trkpt>
      <trkpt lat="43.40769" lon="5.43174">
        <ele>324.898</ele>
        <time>2011-11-23T09:18:38Z</time>
      </trkpt>
      <trkpt lat="43.40764" lon="5.43179">
        <ele>325.51</ele>
        <time>2011-11-23T09:18:48Z</time>
      </trkpt>
      <trkpt lat="43.40755" lon="5.43187">
        <ele>325.864</ele>
        <time>2011-11-23T09:18:58Z</time>
      </trkpt>
      <trkpt lat="43.40744" lon="5.43193">
        <ele>326.381</ele>
        <time>2011-11-23T09:19:08Z</time>
      </trkpt>
      <trkpt lat="43.40733" lon="5.432">
        <ele>327.147</ele>
        <time>2011-11-23T09:19:18Z</time>
      </trkpt>
      <trkpt lat="43.40724" lon="5.43202">
        <ele>327.719</ele>
        <time>2011-11-23T09:19:28Z</time>
      </trkpt>
      <trkpt lat="43.40714" lon="5.432">
        <ele>328.106</ele>
        <time>2011-11-23T09:19:38Z</time>
      </trkpt>
      <trkpt lat="43.40705" lon="5.43211">
        <ele>328.701</ele>
        <time>2011-11-23T09:19:48Z</time>
      </trkpt>
      <trkpt lat="43.40703" lon="5.43224">
        <ele>328.933</ele>
        <time>2011-11-23T09:19:58Z</time>
      </trkpt>
      <trkpt lat="43.40696" lon="5.43235">
        <ele>329.113</ele>
        <time>2011-11-23T09:20:08Z</time>
      </trkpt>
      <trkpt lat="43.40695" lon="5.43249">
        <ele>329.837</ele>
        <time>2011-11-23T09:20:18Z</time>
      </trkpt>
      <trkpt lat="43.40693" lon="5.43261">
        <ele>330.077</ele>
        <time>2011-11-23T09:20:28Z</time>
      </trkpt>
      <trkpt lat="43.40689" lon="5.43276">
        <ele>330.616</ele>
        <time>2011-11-23T09:20:38Z</time>
      </trkpt>
      <trkpt lat="43.40692" lon="5.43292">
        <ele>331.25</ele>
        <time>2011-11-23T09:20:48Z</time>
      </trkpt>
      <trkpt lat="43.40692" lon="5.43308">
        <ele>331.656</ele>
        <time>2011-11-23T09:20:58Z</time>
      </trkpt>
      <trkpt lat="43.40692" lon="5.43323">
        <ele>331.763</ele>
        <time>2011-11-23T09:21:08Z</time>
      </trkpt>
      <trkpt lat="43.40695" lon="5.43337">
        <ele>332.359</ele>
        <time>2011-11-23T09:21:18Z</time>
      </trkpt>
      <trkpt lat="43.40695" lon="5.43351">
        <ele>333.254</ele>
        <time>2011-11-23T09:21:28Z</time>
      </trkpt>
      <trkpt lat="43.40697" lon="5.43364">
        <ele>334.633</ele>
        <time>2011-11-23T09:21:38Z</time>
      </trkpt>
      <trkpt lat="43.40694" lon="5.43378">
        <ele>334.78</ele>
        <time>2011-11-23T09:21:48Z</time>
      </trkpt>
      <trkpt lat="43.40697" lon="5.43389">
        <ele>335.066</ele>
        <time>2011-11-23T09:21:58Z</time>
      </trkpt>
      <trkpt lat="43.4069" lon="5.43402">
        <ele>334.95</ele>
        <time>2011-11-23T09:22:08Z</time>
      </trkpt>
      <trkpt lat="43.40682" lon="5.43416">
        <ele>334.917</ele>
        <time>2011-11-23T09:22:18Z</time>
      </trkpt>
      <trkpt lat="43.40674" lon="5.43428">
        <ele>335.718</ele>
        <time>2011-11-23T09:22:28Z</time>
      </trkpt>
      <trkpt lat="43.40674" lon="5.43446">
        <ele>336.299</ele>
        <time>2011-11-23T09:22:38Z</time>
      </trkpt>
      <trkpt lat="43.40674" lon="5.43458">
        <ele>336.596</ele>
        <time>2011-11-23T09:22:48Z</time>
      </trkpt>
      <trkpt lat="43.40677" lon="5.43474">
        <ele>337.048</ele>
        <time>2011-11-23T09:22:58Z</time>
      </trkpt>
      <trkpt lat="43.40687" lon="5.43488">
        <ele>337.505</ele>
        <time>2011-11-23T09:23:08Z</time>
      </trkpt>
      <trkpt lat="43.40694" lon="5.43502">
        <ele>338.383</ele>
        <time>2011-11-23T09:23:18Z</time>
      </trkpt>
      <trkpt lat="43.40697" lon="5.43516">
        <ele>339.224</ele>
        <time>2011-11-23T09:23:28Z</time>
      </trkpt>
      <trkpt lat="43.40695" lon="5.43531">
        <ele>339.334</ele>
        <time>2011-11-23T09:23:38Z</time>
      </trkpt>
      <trkpt lat="43.40685" lon="5.43544">
        <ele>340.608</ele>
        <time>2011-11-23T09:23:48Z</time>
      </trkpt>
      <trkpt lat="43.40678" lon="5.43559">
        <ele>340.801</ele>
        <time>2011-11-23T09:23:58Z</time>
      </trkpt>
      <trkpt lat="43.40671" lon="5.4357">
        <ele>340.604</ele>
        <time>2011-11-23T09:24:08Z</time>
      </trkpt>
      <trkpt lat="43.40663" lon="5.43576">
        <ele>340.383</ele>
        <time>2011-11-23T09:24:18Z</time>
      </trkpt>
      <trkpt lat="43.40658" lon="5.43587">
        <ele>340.392</ele>
        <time>2011-11-23T09:24:28Z</time>
      </trkpt>
      <trkpt lat="43.40656" lon="5.436">
        <ele>340.659</ele>
        <time>2011-11-23T09:24:38Z</time>
      </trkpt>
      <trkpt lat="43.40652" lon="5.43614">
        <ele>340.816</ele>
        <time>2011-11-23T09:24:48Z</time>
      </trkpt>
      <trkpt lat="43.40659" lon="5.43628">
        <ele>341.138</ele>
        <time>2011-11-23T09:24:58Z</time>
      </trkpt>
      <trkpt lat="43.40671" lon="5.43644">
        <ele>342.062</ele>
        <time>2011-11-23T09:25:08Z</time>
      </trkpt>
      <trkpt lat="43.4067" lon="5.43655">
        <ele>343.544</ele>
        <time>2011-11-23T09:25:18Z</time>
      </trkpt>
      <trkpt lat="43.40673" lon="5.43669">
        <ele>344.55</ele>
        <time>2011-11-23T09:25:28Z</time>
      </trkpt>
      <trkpt lat="43.40674" lon="5.43682">
        <ele>345.631</ele>
        <time>2011-11-23T09:25:38Z</time>
      </trkpt>
      <trkpt lat="43.40682" lon="5.43696">
        <ele>346.053</ele>
        <time>2011-11-23T09:25:48Z</time>
      </trkpt>
      <trkpt lat="43.40678" lon="5.43706">
        <ele>346.682</ele>
        <time>2011-11-23T09:25:58Z</time>
      </trkpt>
      <trkpt lat="43.4068" lon="5.43721">
        <ele>348.336</ele>
        <time>2011-11-23T09:26:08Z</time>
      </trkpt>
      <trkpt lat="43.40685" lon="5.43733">
        <ele>349.029</ele>
        <time>2011-11-23T09:26:18Z</time>
      </trkpt>
      <trkpt lat="43.40684" lon="5.43743">
        <ele>350.532</ele>
        <time>2011-11-23T09:26:28Z</time>
      </trkpt>
      <trkpt lat="43.40678" lon="5.43753">
        <ele>352.005</ele>
        <time>2011-11-23T09:26:38Z</time>
      </trkpt>
      <trkpt lat="43.40678" lon="5.43769">
        <ele>353.563</ele>
        <time>2011-11-23T09:26:48Z</time>
      </trkpt>
      <trkpt lat="43.40677" lon="5.43781">
        <ele>354.39</ele>
        <time>2011-11-23T09:26:58Z</time>
      </trkpt>
      <trkpt lat="43.40675" lon="5.43796">
        <ele>355.92</ele>
        <time>2011-11-23T09:27:08Z</time>
      </trkpt>
      <trkpt lat="43.40671" lon="5.4381">
        <ele>356.185</ele>
        <time>2011-11-23T09:27:18Z</time>
      </trkpt>
      <trkpt lat="43.40676" lon="5.43823">
        <ele>356.009</ele>
        <time>2011-11-23T09:27:28Z</time>
      </trkpt>
      <trkpt lat="43.40681" lon="5.43833">
        <ele>354.972</ele>
        <time>2011-11-23T09:27:38Z</time>
      </trkpt>
      <trkpt lat="43.40682" lon="5.43846">
        <ele>353.489</ele>
        <time>2011-11-23T09:27:48Z</time>
      </trkpt>
      <trkpt lat="43.40674" lon="5.43859">
        <ele>352.924</ele>
        <time>2011-11-23T09:27:58Z</time>
      </trkpt>
      <trkpt lat="43.40672" lon="5.4387">
        <ele>351.724</ele>
        <time>2011-11-23T09:28:08Z</time>
      </trkpt>
      <trkpt lat="43.40669" lon="5.43881">
        <ele>351.568</ele>
        <time>2011-11-23T09:28:18Z</time>
      </trkpt>
      <trkpt lat="43.40665" lon="5.43894">
        <ele>352.943</ele>
        <time>2011-11-23T09:28:28Z</time>
      </trkpt>
      <trkpt lat="43.40655" lon="5.43901">
        <ele>353.94</ele>
        <time>2011-11-23T09:28:38Z</time>
      </trkpt>
      <trkpt lat="43.40651" lon="5.43912">
        <ele>354.228</ele>
        <time>2011-11-23T09:28:48Z</time>
      </trkpt>
      <trkpt lat="43.40648" lon="5.43924">
        <ele>353.199</ele>
        <time>2011-11-23T09:28:58Z</time>
      </trkpt>
      <trkpt lat="43.40645" lon="5.43935">
        <ele>354.384</ele>
        <time>2011-11-23T09:29:08Z</time>
      </trkpt>
      <trkpt lat="43.40646" lon="5.43947">
        <ele>356.087</ele>
        <time>2011-11-23T09:29:18Z</time>
      </trkpt>
      <trkpt lat="43.40648" lon="5.43962">
        <ele>357.527</ele>
        <time>2011-11-23T09:29:28Z</time>
      </trkpt>
      <trkpt lat="43.40653" lon="5.43972">
        <ele>358.521</ele>
        <time>2011-11-23T09:29:38Z</time>
      </trkpt>
      <trkpt lat="43.40659" lon="5.43984">
        <ele>359.525</ele>
        <time>2011-11-23T09:29:48Z</time>
      </trkpt>
      <trkpt lat="43.40666" lon="5.43996">
        <ele>360.308</ele>
        <time>2011-11-23T09:29:58Z</time>
      </trkpt>
      <trkpt lat="43.40667" lon="5.44011">
        <ele>360.048</ele>
        <time>2011-11-23T09:30:08Z</time>
      </trkpt>
      <trkpt lat="43.4067" lon="5.44023">
        <ele>360.571</ele>
        <time>2011-11-23T09:30:18Z</time>
      </trkpt>
      <trkpt lat="43.40673" lon="5.44035">
        <ele>361.053</ele>
        <time>2011-11-23T09:30:28Z</time>
      </trkpt>
      <trkpt lat="43.40675" lon="5.44048">
        <ele>361.582</ele>
        <time>2011-11-23T09:30:38Z</time>
      </trkpt>
      <trkpt lat="43.40675" lon="5.44061">
        <ele>362.347</ele>
        <time>2011-11-23T09:30:48Z</time>
      </trkpt>
      <trkpt lat="43.40681" lon="5.44077">
        <ele>363.102</ele>
        <time>2011-11-23T09:30:58Z</time>
      </trkpt>
      <trkpt lat="43.4068" lon="5.44089">
        <ele>363.415</ele>
        <time>2011-11-23T09:31:08Z</time>
      </trkpt>
      <trkpt lat="43.40688" lon="5.44104">
        <ele>364.104</ele>
        <time>2011-11-23T09:31:18Z</time>
      </trkpt>
      <trkpt lat="43.40686" lon="5.44115">
        <ele>364.808</ele>
        <time>2011-11-23T09:31:28Z</time>
      </trkpt>
      <trkpt lat="43.40677" lon="5.44131">
        <ele>365.66</ele>
        <time>2011-11-23T09:31:38Z</time>
      </trkpt>
      <trkpt lat="43.40675" lon="5.44149">
        <ele>365.793</ele>
        <time>2011-11-23T09:31:48Z</time>
      </trkpt>
      <trkpt lat="43.40667" lon="5.44161">
        <ele>365.688</ele>
        <time>2011-11-23T09:31:58Z</time>
      </trkpt>
      <trkpt lat="43.40661" lon="5.44175">
        <ele>366.206</ele>
        <time>2011-11-23T09:32:08Z</time>
      </trkpt>
      <trkpt lat="43.4066" lon="5.44192">
        <ele>367.311</ele>
        <time>2011-11-23T09:32:18Z</time>
      </trkpt>
      <trkpt lat="43.40658" lon="5.44203">
        <ele>368.891</ele>
        <time>2011-11-23T09:32:28Z</time>
      </trkpt>
      <trkpt lat="43.40663" lon="5.44214">
        <ele>370.617</ele>
        <time>2011-11-23T09:32:38Z</time>
      </trkpt>
      <trkpt lat="43.40661" lon="5.4423">
        <ele>372.04</ele>
        <time>2011-11-23T09:32:48Z</time>
      </trkpt>
      <trkpt lat="43.40667" lon="5.44242">
        <ele>373.496</ele>
        <time>2011-11-23T09:32:58Z</time>
      </trkpt>
      <trkpt lat="43.40666" lon="5.4425">
        <ele>375.341</ele>
        <time>2011-11-23T09:33:08Z</time>
      </trkpt>
      <trkpt lat="43.40657" lon="5.4426">
        <ele>376.932</ele>
        <time>2011-11-23T09:33:18Z</time>
      </trkpt>
      <trkpt lat="43.40649" lon="5.44271">
        <ele>378.31</ele>
        <time>2011-11-23T09:33:28Z</time>
      </trkpt>
      <trkpt lat="43.40649" lon="5.44285">
        <ele>379.775</ele>
        <time>2011-11-23T09:33:38Z</time>
      </trkpt>
      <trkpt lat="43.40643" lon="5.44294">
        <ele>378.585</ele>
        <time>2011-11-23T09:33:48Z</time>
      </trkpt>
      <trkpt lat="43.40638" lon="5.44306">
        <ele>376.685</ele>
        <time>2011-11-23T09:33:58Z</time>
      </trkpt>
      <trkpt lat="43.40632" lon="5.44316">
        <ele>374.984</ele>
        <time>2011-11-23T09:34:08Z</time>
      </trkpt>
      <trkpt lat="43.40636" lon="5.44331">
        <ele>372.862</ele>
        <time>2011-11-23T09:34:18Z</time>
      </trkpt>
      <trkpt lat="43.40639" lon="5.44346">
        <ele>373.688</ele>
        <time>2011-11-23T09:34:28Z</time>
      </trkpt>
      <trkpt lat="43.40633" lon="5.44358">
        <ele>374.477</ele>
        <time>2011-11-23T09:34:38Z</time>
      </trkpt>
      <trkpt lat="43.40628" lon="5.44372">
        <ele>374.232</ele>
        <time>2011-11-23T09:34:48Z</time>
      </trkpt>
      <trkpt lat="43.40624" lon="5.44383">
        <ele>374.241</ele>
        <time>2011-11-23T09:34:58Z</time>
      </trkpt>
      <trkpt lat="43.40625" lon="5.44395">
        <ele>375.658</ele>
        <time>2011-11-23T09:35:08Z</time>
      </trkpt>
      <trkpt lat="43.40626" lon="5.44408">
        <ele>375.863</ele>
        <time>2011-11-23T09:35:18Z</time>
      </trkpt>
      <trkpt lat="43.40629" lon="5.44424">
        <ele>376.77</ele>
        <time>2011-11-23T09:35:28Z</time>
      </trkpt>
      <trkpt lat="43.40634" lon="5.44439">
        <ele>377.263</ele>
        <time>2011-11-23T09:35:38Z</time>
      </trkpt>
      <trkpt lat="43.40629" lon="5.44452">
        <ele>378.211</ele>
        <time>2011-11-23T09:35:48Z</time>
      </trkpt>
      <trkpt lat="43.40631" lon="5.44465">
        <ele>378.74</ele>
        <time>2011-11-23T09:35:58Z</time>
      </trkpt>
      <trkpt lat="43.40629" lon="5.44481">
        <ele>380.218</ele>
        <time>2011-11-23T09:36:08Z</time>
      </trkpt>
      <trkpt lat="43.4063" lon="5.44497">
        <ele>380.568</ele>
        <time>2011-11-23T09:36:18Z</time>
      </trkpt>
      <trkpt lat="43.4063" lon="5.44512">
        <ele>380.073</ele>
        <time>2011-11-23T09:36:28Z</time>
      </trkpt>
      <trkpt lat="43.40629" lon="5.44526">
        <ele>379.893</ele>
        <time>2011-11-23T09:36:38Z</time>
      </trkpt>
      <trkpt lat="43.40628" lon="5.44542">
        <ele>380.587</ele>
        <time>2011-11-23T09:36:48Z</time>
      </trkpt>
      <trkpt lat="43.40629" lon="5.44555">
        <ele>381.565</ele>
        <time>2011-11-23T09:36:58Z</time>
      </trkpt>
      <trkpt lat="43.4063" lon="5.44569">
        <ele>382.441</ele>
        <time>2011-11-23T09:37:08Z</time>
      </trkpt>
      <trkpt lat="43.40627" lon="5.44585">
        <ele>382.47</ele>
        <time>2011-11-23T09:37:18Z</time>
      </trkpt>
      <trkpt lat="43.4062" lon="5.44601">
        <ele>382.418</ele>
        <time>2011-11-23T09:37:28Z</time>
      </trkpt>
      <trkpt lat="43.40615" lon="5.44615">
        <ele>382.093</ele>
        <time>2011-11-23T09:37:38Z</time>
      </trkpt>
      <trkpt lat="43.40609" lon="5.4463">
        <ele>382.513</ele>
        <time>2011-11-23T09:37:48Z</time>
      </trkpt>
      <trkpt lat="43.40605" lon="5.44645">
        <ele>383.115</ele>
        <time>2011-11-23T09:37:58Z</time>
      </trkpt>
      <trkpt lat="43.40596" lon="5.44654">
        <ele>383.486</ele>
        <time>2011-11-23T09:38:08Z</time>
      </trkpt>
      <trkpt lat="43.40592" lon="5.44664">
        <ele>383.957</ele>
        <time>2011-11-23T09:38:18Z</time>
      </trkpt>
      <trkpt lat="43.40587" lon="5.44668">
        <ele>384.573</ele>
        <time>2011-11-23T09:38:28Z</time>
      </trkpt>
      <trkpt lat="43.40577" lon="5.44675">
        <ele>385.474</ele>
        <time>2011-11-23T09:38:38Z</time>
      </trkpt>
      <trkpt lat="43.40569" lon="5.44683">
        <ele>386.305</ele>
        <time>2011-11-23T09:38:48Z</time>
      </trkpt>
      <trkpt lat="43.40563" lon="5.44693">
        <ele>387.439</ele>
        <time>2011-11-23T09:38:58Z</time>
      </trkpt>
      <trkpt lat="43.40561" lon="5.44706">
        <ele>388.56</ele>
        <time>2011-11-23T09:39:08Z</time>
      </trkpt>
      <trkpt lat="43.4056" lon="5.44718">
        <ele>389.185</ele>
        <time>2011-11-23T09:39:18Z</time>
      </trkpt>
      <trkpt lat="43.40557" lon="5.44734">
        <ele>390.025</ele>
        <time>2011-11-23T09:39:28Z</time>
      </trkpt>
      <trkpt lat="43.40552" lon="5.44746">
        <ele>391.065</ele>
        <time>2011-11-23T09:39:38Z</time>
      </trkpt>
      <trkpt lat="43.40548" lon="5.44764">
        <ele>390.725</ele>
        <time>2011-11-23T09:39:48Z</time>
      </trkpt>
      <trkpt lat="43.40537" lon="5.44777">
        <ele>390.828</ele>
        <time>2011-11-23T09:39:58Z</time>
      </trkpt>
      <trkpt lat="43.40531" lon="5.44786">
        <ele>391.617</ele>
        <time>2011-11-23T09:40:08Z</time>
      </trkpt>
      <trkpt lat="43.4053" lon="5.44802">
        <ele>392.193</ele>
        <time>2011-11-23T09:40:18Z</time>
      </trkpt>
      <trkpt lat="43.40521" lon="5.44812">
        <ele>392.827</ele>
        <time>2011-11-23T09:40:28Z</time>
      </trkpt>
      <trkpt lat="43.40508" lon="5.44817">
        <ele>394.163</ele>
        <time>2011-11-23T09:40:38Z</time>
      </trkpt>
      <trkpt lat="43.40499" lon="5.44823">
        <ele>394.721</ele>
        <time>2011-11-23T09:40:48Z</time>
      </trkpt>
      <trkpt lat="43.4049" lon="5.4483">
        <ele>395.198</ele>
        <time>2011-11-23T09:40:58Z</time>
      </trkpt>
      <trkpt lat="43.4048" lon="5.44838">
        <ele>396.256</ele>
        <time>2011-11-23T09:41:08Z</time>
      </trkpt>
      <trkpt lat="43.40463" lon="5.44838">
        <ele>396.94</ele>
        <time>2011-11-23T09:41:18Z</time>
      </trkpt>
      <trkpt lat="43.40451" lon="5.4484">
        <ele>397.526</ele>
        <time>2011-11-23T09:41:28Z</time>
      </trkpt>
      <trkpt lat="43.40442" lon="5.44839">
        <ele>398.181</ele>
        <time>2011-11-23T09:41:38Z</time>
      </trkpt>
      <trkpt lat="43.4043" lon="5.4484">
        <ele>399.255</ele>
        <time>2011-11-23T09:41:48Z</time>
      </trkpt>
      <trkpt lat="43.40421" lon="5.44852">
        <ele>399.776</ele>
        <time>2011-11-23T09:41:58Z</time>
      </trkpt>
      <trkpt lat="43.4041" lon="5.44855">
        <ele>400.24</ele>
        <time>2011-11-23T09:42:08Z</time>
      </trkpt>
      <trkpt lat="43.40403" lon="5.4486">
        <ele>400.563</ele>
        <time>2011-11-23T09:42:18Z</time>
      </trkpt>
      <trkpt lat="43.40393" lon="5.44866">
        <ele>401.055</ele>
        <time>2011-11-23T09:42:28Z</time>
      </trkpt>
      <trkpt lat="43.4038" lon="5.44877">
        <ele>401.174</ele>
        <time>2011-11-23T09:42:38Z</time>
      </trkpt>
      <trkpt lat="43.40368" lon="5.44884">
        <ele>402.464</ele>
        <time>2011-11-23T09:42:48Z</time>
      </trkpt>
      <trkpt lat="43.40361" lon="5.44893">
        <ele>402.96</ele>
        <time>2011-11-23T09:42:58Z</time>
      </trkpt>
      <trkpt lat="43.40349" lon="5.44894">
        <ele>404.264</ele>
        <time>2011-11-23T09:43:08Z</time>
      </trkpt>
      <trkpt lat="43.40344" lon="5.44904">
        <ele>404.446</ele>
        <time>2011-11-23T09:43:18Z</time>
      </trkpt>
      <trkpt lat="43.40338" lon="5.44911">
        <ele>404.991</ele>
        <time>2011-11-23T09:43:28Z</time>
      </trkpt>
      <trkpt lat="43.40333" lon="5.44917">
        <ele>405.756</ele>
        <time>2011-11-23T09:43:38Z</time>
      </trkpt>
      <trkpt lat="43.40328" lon="5.44926">
        <ele>406.57</ele>
        <time>2011-11-23T09:43:48Z</time>
      </trkpt>
      <trkpt lat="43.40321" lon="5.44936">
        <ele>407.064</ele>
        <time>2011-11-23T09:43:58Z</time>
      </trkpt>
      <trkpt lat="43.40323" lon="5.44956">
        <ele>408.449</ele>
        <time>2011-11-23T09:44:08Z</time>
      </trkpt>
      <trkpt lat="43.40325" lon="5.44971">
        <ele>409.799</ele>
        <time>2011-11-23T09:44:18Z</time>
      </trkpt>
      <trkpt lat="43.40317" lon="5.44983">
        <ele>410.375</ele>
        <time>2011-11-23T09:44:28Z</time>
      </trkpt>
      <trkpt lat="43.40312" lon="5.44984">
        <ele>410.305</ele>
        <time>2011-11-23T09:44:38Z</time>
      </trkpt>
      <trkpt lat="43.40302" lon="5.44981">
        <ele>410.024</ele>
        <time>2011-11-23T09:44:48Z</time>
      </trkpt>
      <trkpt lat="43.403" lon="5.44983">
        <ele>409.515</ele>
        <time>2011-11-23T09:44:58Z</time>
      </trkpt>
      <trkpt lat="43.403" lon="5.44984">
        <ele>409.879</ele>
        <time>2011-11-23T09:45:08Z</time>
      </trkpt>
      <trkpt lat="43.40301" lon="5.44984">
        <ele>410.033</ele>
        <time>2011-11-23T09:45:18Z</time>
      </trkpt>
      <trkpt lat="43.403" lon="5.44983">
        <ele>408.884</ele>
        <time>2011-11-23T09:45:28Z</time>
      </trkpt>
      <trkpt lat="43.40303" lon="5.44984">
        <ele>409.348</ele>
        <time>2011-11-23T09:45:38Z</time>
      </trkpt>
      <trkpt lat="43.40303" lon="5.44984">
        <ele>409.063</ele>
        <time>2011-11-23T09:45:48Z</time>
      </trkpt>
      <trkpt lat="43.40303" lon="5.44984">
        <ele>409.201</ele>
        <time>2011-11-23T09:45:58Z</time>
      </trkpt>
      <trkpt lat="43.40303" lon="5.44984">
        <ele>409.355</ele>
        <time>2011-11-23T09:46:08Z</time>
      </trkpt>
      <trkpt lat="43.40303" lon="5.44984">
        <ele>409.452</ele>
        <time>2011-11-23T09:46:18Z</time>
      </trkpt>
      <trkpt lat="43.40303" lon="5.44984">
        <ele>408.994</ele>
        <time>2011-11-23T09:46:28Z</time>
      </trkpt>
      <trkpt lat="43.40303" lon="5.44984">
        <ele>409.878</ele>
        <time>2011-11-23T09:46:38Z</time>
      </trkpt>
      <trkpt lat="43.40303" lon="5.44984">
        <ele>409.993</ele>
        <time>2011-11-23T09:46:48Z</time>
      </trkpt>
      <trkpt lat="43.40291" lon="5.44983">
        <ele>410.569</ele>
        <time>2011-11-23T09:46:58Z</time>
      </trkpt>
      <trkpt lat="43.40289" lon="5.44991">
        <ele>411.107</ele>
        <time>2011-11-23T09:47:08Z</time>
      </trkpt>
      <trkpt lat="43.40289" lon="5.44993">
        <ele>411.056</ele>
        <time>2011-11-23T09:47:18Z</time>
      </trkpt>
      <trkpt lat="43.40292" lon="5.44992">
        <ele>410.925</ele>
        <time>2011-11-23T09:47:28Z</time>
      </trkpt>
      <trkpt lat="43.40291" lon="5.44991">
        <ele>411.309</ele>
        <time>2011-11-23T09:47:38Z</time>
      </trkpt>
      <trkpt lat="43.40292" lon="5.44991">
        <ele>410.979</ele>
        <time>2011-11-23T09:47:48Z</time>
      </trkpt>
      <trkpt lat="43.40291" lon="5.44991">
        <ele>411.017</ele>
        <time>2011-11-23T09:47:58Z</time>
      </trkpt>
      <trkpt lat="43.40281" lon="5.44995">
        <ele>411.178</ele>
        <time>2011-11-23T09:48:08Z</time>
      </trkpt>
      <trkpt lat="43.40273" lon="5.45006">
        <ele>410.885</ele>
        <time>2011-11-23T09:48:18Z</time>
      </trkpt>
      <trkpt lat="43.40265" lon="5.45014">
        <ele>411.75</ele>
        <time>2011-11-23T09:48:28Z</time>
      </trkpt>
      <trkpt lat="43.40263" lon="5.45017">
        <ele>411.854</ele>
        <time>2011-11-23T09:48:38Z</time>
      </trkpt>
      <trkpt lat="43.40262" lon="5.45016">
        <ele>412.223</ele>
        <time>2011-11-23T09:48:48Z</time>
      </trkpt>
      <trkpt lat="43.4026" lon="5.45016">
        <ele>413.089</ele>
        <time>2011-11-23T09:48:58Z</time>
      </trkpt>
      <trkpt lat="43.40258" lon="5.45015">
        <ele>412.977</ele>
        <time>2011-11-23T09:49:08Z</time>
      </trkpt>
      <trkpt lat="43.40258" lon="5.45015">
        <ele>412.608</ele>
        <time>2011-11-23T09:49:18Z</time>
      </trkpt>
      <trkpt lat="43.40255" lon="5.45017">
        <ele>412.926</ele>
        <time>2011-11-23T09:49:28Z</time>
      </trkpt>
      <trkpt lat="43.40245" lon="5.45012">
        <ele>412.84</ele>
        <time>2011-11-23T09:49:38Z</time>
      </trkpt>
      <trkpt lat="43.4023" lon="5.45006">
        <ele>414.007</ele>
        <time>2011-11-23T09:49:48Z</time>
      </trkpt>
      <trkpt lat="43.40231" lon="5.45019">
        <ele>415.648</ele>
        <time>2011-11-23T09:49:58Z</time>
      </trkpt>
      <trkpt lat="43.40241" lon="5.45027">
        <ele>416.672</ele>
        <time>2011-11-23T09:50:08Z</time>
      </trkpt>
      <trkpt lat="43.4025" lon="5.4504">
        <ele>418.997</ele>
        <time>2011-11-23T09:50:18Z</time>
      </trkpt>
      <trkpt lat="43.40255" lon="5.4504">
        <ele>419.53</ele>
        <time>2011-11-23T09:50:28Z</time>
      </trkpt>
      <trkpt lat="43.40263" lon="5.45054">
        <ele>418.439</ele>
        <time>2011-11-23T09:50:38Z</time>
      </trkpt>
      <trkpt lat="43.40264" lon="5.45062">
        <ele>418.615</ele>
        <time>2011-11-23T09:50:48Z</time>
      </trkpt>
      <trkpt lat="43.40264" lon="5.45067">
        <ele>419.026</ele>
        <time>2011-11-23T09:50:58Z</time>
      </trkpt>
      <trkpt lat="43.40263" lon="5.45085">
        <ele>419.789</ele>
        <time>2011-11-23T09:51:08Z</time>
      </trkpt>
      <trkpt lat="43.40264" lon="5.451">
        <ele>419.871</ele>
        <time>2011-11-23T09:51:18Z</time>
      </trkpt>
      <trkpt lat="43.40263" lon="5.45115">
        <ele>420.803</ele>
        <time>2011-11-23T09:51:28Z</time>
      </trkpt>
      <trkpt lat="43.40272" lon="5.4513">
        <ele>421.833</ele>
        <time>2011-11-23T09:51:38Z</time>
      </trkpt>
      <trkpt lat="43.40268" lon="5.45145">
        <ele>422.877</ele>
        <time>2011-11-23T09:51:48Z</time>
      </trkpt>
      <trkpt lat="43.40262" lon="5.45158">
        <ele>423.605</ele>
        <time>2011-11-23T09:51:58Z</time>
      </trkpt>
      <trkpt lat="43.40257" lon="5.45169">
        <ele>423.645</ele>
        <time>2011-11-23T09:52:08Z</time>
      </trkpt>
      <trkpt lat="43.40252" lon="5.45176">
        <ele>423.482</ele>
        <time>2011-11-23T09:52:18Z</time>
      </trkpt>
      <trkpt lat="43.40253" lon="5.45175">
        <ele>423.684</ele>
        <time>2011-11-23T09:52:28Z</time>
      </trkpt>
      <trkpt lat="43.40252" lon="5.45173">
        <ele>422.994</ele>
        <time>2011-11-23T09:52:38Z</time>
      </trkpt>
      <trkpt lat="43.40251" lon="5.45171">
        <ele>423.131</ele>
        <time>2011-11-23T09:52:48Z</time>
      </trkpt>
      <trkpt lat="43.40243" lon="5.45166">
        <ele>422.549</ele>
        <time>2011-11-23T09:52:58Z</time>
      </trkpt>
      <trkpt lat="43.40234" lon="5.45161">
        <ele>422.561</ele>
        <time>2011-11-23T09:53:08Z</time>
      </trkpt>
      <trkpt lat="43.40224" lon="5.45165">
        <ele>422.715</ele>
        <time>2011-11-23T09:53:18Z</time>
      </trkpt>
      <trkpt lat="43.40212" lon="5.45173">
        <ele>422.317</ele>
        <time>2011-11-23T09:53:28Z</time>
      </trkpt>
      <trkpt lat="43.40209" lon="5.45183">
        <ele>423.057</ele>
        <time>2011-11-23T09:53:38Z</time>
      </trkpt>
      <trkpt lat="43.40202" lon="5.45193">
        <ele>424.623</ele>
        <time>2011-11-23T09:53:48Z</time>
      </trkpt>
      <trkpt lat="43.40197" lon="5.45202">
        <ele>425.225</ele>
        <time>2011-11-23T09:53:58Z</time>
      </trkpt>
      <trkpt lat="43.40188" lon="5.45208">
        <ele>426.188</ele>
        <time>2011-11-23T09:54:08Z</time>
      </trkpt>
      <trkpt lat="43.40182" lon="5.45209">
        <ele>426.789</ele>
        <time>2011-11-23T09:54:18Z</time>
      </trkpt>
      <trkpt lat="43.40178" lon="5.4521">
        <ele>428.307</ele>
        <time>2011-11-23T09:54:28Z</time>
      </trkpt>
      <trkpt lat="43.40171" lon="5.45219">
        <ele>427.897</ele>
        <time>2011-11-23T09:54:38Z</time>
      </trkpt>
      <trkpt lat="43.40163" lon="5.4523">
        <ele>427.946</ele>
        <time>2011-11-23T09:54:48Z</time>
      </trkpt>
      <trkpt lat="43.40153" lon="5.45238">
        <ele>427.998</ele>
        <time>2011-11-23T09:54:58Z</time>
      </trkpt>
      <trkpt lat="43.40147" lon="5.45254">
        <ele>427.742</ele>
        <time>2011-11-23T09:55:08Z</time>
      </trkpt>
      <trkpt lat="43.4014" lon="5.45266">
        <ele>427.509</ele>
        <time>2011-11-23T09:55:18Z</time>
      </trkpt>
      <trkpt lat="43.40133" lon="5.45272">
        <ele>428.541</ele>
        <time>2011-11-23T09:55:28Z</time>
      </trkpt>
      <trkpt lat="43.40134" lon="5.45289">
        <ele>429.272</ele>
        <time>2011-11-23T09:55:38Z</time>
      </trkpt>
      <trkpt lat="43.40128" lon="5.45301">
        <ele>430.063</ele>
        <time>2011-11-23T09:55:48Z</time>
      </trkpt>
      <trkpt lat="43.40123" lon="5.45311">
        <ele>430.891</ele>
        <time>2011-11-23T09:55:58Z</time>
      </trkpt>
      <trkpt lat="43.40125" lon="5.45325">
        <ele>431.922</ele>
        <time>2011-11-23T09:56:08Z</time>
      </trkpt>
      <trkpt lat="43.40122" lon="5.45336">
        <ele>432.188</ele>
        <time>2011-11-23T09:56:18Z</time>
      </trkpt>
      <trkpt lat="43.40117" lon="5.45345">
        <ele>431.292</ele>
        <time>2011-11-23T09:56:28Z</time>
      </trkpt>
      <trkpt lat="43.40112" lon="5.45357">
        <ele>431.924</ele>
        <time>2011-11-23T09:56:38Z</time>
      </trkpt>
      <trkpt lat="43.40105" lon="5.45363">
        <ele>433.326</ele>
        <time>2011-11-23T09:56:48Z</time>
      </trkpt>
      <trkpt lat="43.40103" lon="5.45375">
        <ele>434.079</ele>
        <time>2011-11-23T09:56:58Z</time>
      </trkpt>
      <trkpt lat="43.40098" lon="5.45387">
        <ele>435.076</ele>
        <time>2011-11-23T09:57:08Z</time>
      </trkpt>
      <trkpt lat="43.40093" lon="5.454">
        <ele>435.483</ele>
        <time>2011-11-23T09:57:18Z</time>
      </trkpt>
      <trkpt lat="43.40084" lon="5.45408">
        <ele>435.213</ele>
        <time>2011-11-23T09:57:28Z</time>
      </trkpt>
      <trkpt lat="43.40076" lon="5.45416">
        <ele>435.758</ele>
        <time>2011-11-23T09:57:38Z</time>
      </trkpt>
      <trkpt lat="43.40066" lon="5.45426">
        <ele>436.973</ele>
        <time>2011-11-23T09:57:48Z</time>
      </trkpt>
      <trkpt lat="43.40068" lon="5.4544">
        <ele>437.56</ele>
        <time>2011-11-23T09:57:58Z</time>
      </trkpt>
      <trkpt lat="43.40073" lon="5.45456">
        <ele>437.771</ele>
        <time>2011-11-23T09:58:08Z</time>
      </trkpt>
      <trkpt lat="43.40069" lon="5.45466">
        <ele>438.503</ele>
        <time>2011-11-23T09:58:18Z</time>
      </trkpt>
      <trkpt lat="43.40054" lon="5.45467">
        <ele>439.637</ele>
        <time>2011-11-23T09:58:28Z</time>
      </trkpt>
      <trkpt lat="43.40046" lon="5.45472">
        <ele>440.659</ele>
        <time>2011-11-23T09:58:38Z</time>
      </trkpt>
      <trkpt lat="43.40039" lon="5.45474">
        <ele>443.001</ele>
        <time>2011-11-23T09:58:48Z</time>
      </trkpt>
      <trkpt lat="43.40027" lon="5.45473">
        <ele>444.446</ele>
        <time>2011-11-23T09:58:58Z</time>
      </trkpt>
      <trkpt lat="43.40028" lon="5.45475">
        <ele>444.739</ele>
        <time>2011-11-23T09:59:08Z</time>
      </trkpt>
      <trkpt lat="43.40027" lon="5.45474">
        <ele>444.417</ele>
        <time>2011-11-23T09:59:18Z</time>
      </trkpt>
      <trkpt lat="43.40021" lon="5.45477">
        <ele>446.182</ele>
        <time>2011-11-23T09:59:28Z</time>
      </trkpt>
      <trkpt lat="43.4002" lon="5.45485">
        <ele>447.02</ele>
        <time>2011-11-23T09:59:38Z</time>
      </trkpt>
      <trkpt lat="43.40021" lon="5.45497">
        <ele>449.675</ele>
        <time>2011-11-23T09:59:48Z</time>
      </trkpt>
      <trkpt lat="43.4002" lon="5.45507">
        <ele>452.052</ele>
        <time>2011-11-23T09:59:58Z</time>
      </trkpt>
      <trkpt lat="43.40012" lon="5.45512">
        <ele>453.36</ele>
        <time>2011-11-23T10:00:08Z</time>
      </trkpt>
      <trkpt lat="43.40006" lon="5.45509">
        <ele>454.265</ele>
        <time>2011-11-23T10:00:18Z</time>
      </trkpt>
      <trkpt lat="43.40004" lon="5.45506">
        <ele>454.905</ele>
        <time>2011-11-23T10:00:28Z</time>
      </trkpt>
      <trkpt lat="43.39996" lon="5.45497">
        <ele>455.025</ele>
        <time>2011-11-23T10:00:38Z</time>
      </trkpt>
      <trkpt lat="43.39988" lon="5.45489">
        <ele>455.792</ele>
        <time>2011-11-23T10:00:48Z</time>
      </trkpt>
      <trkpt lat="43.39985" lon="5.45479">
        <ele>457.372</ele>
        <time>2011-11-23T10:00:58Z</time>
      </trkpt>
      <trkpt lat="43.39983" lon="5.4547">
        <ele>459.277</ele>
        <time>2011-11-23T10:01:08Z</time>
      </trkpt>
      <trkpt lat="43.3998" lon="5.45461">
        <ele>460.717</ele>
        <time>2011-11-23T10:01:18Z</time>
      </trkpt>
      <trkpt lat="43.3997" lon="5.45466">
        <ele>462.757</ele>
        <time>2011-11-23T10:01:28Z</time>
      </trkpt>
      <trkpt lat="43.39962" lon="5.45474">
        <ele>464.998</ele>
        <time>2011-11-23T10:01:38Z</time>
      </trkpt>
      <trkpt lat="43.39958" lon="5.45481">
        <ele>466.903</ele>
        <time>2011-11-23T10:01:48Z</time>
      </trkpt>
      <trkpt lat="43.3995" lon="5.45487">
        <ele>469.403</ele>
        <time>2011-11-23T10:01:58Z</time>
      </trkpt>
      <trkpt lat="43.39945" lon="5.45498">
        <ele>470.948</ele>
        <time>2011-11-23T10:02:08Z</time>
      </trkpt>
      <trkpt lat="43.39946" lon="5.45512">
        <ele>473.316</ele>
        <time>2011-11-23T10:02:18Z</time>
      </trkpt>
      <trkpt lat="43.39939" lon="5.45517">
        <ele>475.121</ele>
        <time>2011-11-23T10:02:28Z</time>
      </trkpt>
      <trkpt lat="43.39932" lon="5.45528">
        <ele>477.454</ele>
        <time>2011-11-23T10:02:38Z</time>
      </trkpt>
      <trkpt lat="43.39933" lon="5.45535">
        <ele>479.229</ele>
        <time>2011-11-23T10:02:48Z</time>
      </trkpt>
      <trkpt lat="43.39937" lon="5.45544">
        <ele>480.913</ele>
        <time>2011-11-23T10:02:58Z</time>
      </trkpt>
      <trkpt lat="43.39941" lon="5.45566">
        <ele>483.082</ele>
        <time>2011-11-23T10:03:08Z</time>
      </trkpt>
      <trkpt lat="43.39938" lon="5.45581">
        <ele>484.783</ele>
        <time>2011-11-23T10:03:18Z</time>
      </trkpt>
      <trkpt lat="43.39936" lon="5.45594">
        <ele>485.715</ele>
        <time>2011-11-23T10:03:28Z</time>
      </trkpt>
      <trkpt lat="43.39943" lon="5.45611">
        <ele>487.332</ele>
        <time>2011-11-23T10:03:38Z</time>
      </trkpt>
      <trkpt lat="43.39945" lon="5.45626">
        <ele>488.861</ele>
        <time>2011-11-23T10:03:48Z</time>
      </trkpt>
      <trkpt lat="43.39945" lon="5.45638">
        <ele>489.87</ele>
        <time>2011-11-23T10:03:58Z</time>
      </trkpt>
      <trkpt lat="43.39952" lon="5.45651">
        <ele>490.946</ele>
        <time>2011-11-23T10:04:08Z</time>
      </trkpt>
      <trkpt lat="43.39951" lon="5.45666">
        <ele>493.015</ele>
        <time>2011-11-23T10:04:18Z</time>
      </trkpt>
      <trkpt lat="43.39953" lon="5.45681">
        <ele>494.632</ele>
        <time>2011-11-23T10:04:28Z</time>
      </trkpt>
      <trkpt lat="43.39954" lon="5.45695">
        <ele>496.735</ele>
        <time>2011-11-23T10:04:38Z</time>
      </trkpt>
      <trkpt lat="43.39951" lon="5.45712">
        <ele>497.295</ele>
        <time>2011-11-23T10:04:48Z</time>
      </trkpt>
      <trkpt lat="43.39944" lon="5.45728">
        <ele>496.339</ele>
        <time>2011-11-23T10:04:58Z</time>
      </trkpt>
      <trkpt lat="43.39949" lon="5.45743">
        <ele>496.199</ele>
        <time>2011-11-23T10:05:08Z</time>
      </trkpt>
      <trkpt lat="43.3995" lon="5.45751">
        <ele>495.908</ele>
        <time>2011-11-23T10:05:18Z</time>
      </trkpt>
      <trkpt lat="43.39955" lon="5.45763">
        <ele>496.83</ele>
        <time>2011-11-23T10:05:28Z</time>
      </trkpt>
      <trkpt lat="43.39956" lon="5.45772">
        <ele>498.252</ele>
        <time>2011-11-23T10:05:38Z</time>
      </trkpt>
      <trkpt lat="43.39954" lon="5.4578">
        <ele>499.626</ele>
        <time>2011-11-23T10:05:48Z</time>
      </trkpt>
      <trkpt lat="43.39965" lon="5.4579">
        <ele>501.843</ele>
        <time>2011-11-23T10:05:58Z</time>
      </trkpt>
      <trkpt lat="43.39971" lon="5.45801">
        <ele>503.74</ele>
        <time>2011-11-23T10:06:08Z</time>
      </trkpt>
      <trkpt lat="43.39979" lon="5.45811">
        <ele>504.881</ele>
        <time>2011-11-23T10:06:18Z</time>
      </trkpt>
      <trkpt lat="43.39982" lon="5.45823">
        <ele>506.327</ele>
        <time>2011-11-23T10:06:28Z</time>
      </trkpt>
      <trkpt lat="43.39992" lon="5.45833">
        <ele>508.004</ele>
        <time>2011-11-23T10:06:38Z</time>
      </trkpt>
      <trkpt lat="43.40003" lon="5.45839">
        <ele>508.977</ele>
        <time>2011-11-23T10:06:48Z</time>
      </trkpt>
      <trkpt lat="43.40011" lon="5.45851">
        <ele>510.702</ele>
        <time>2011-11-23T10:06:58Z</time>
      </trkpt>
      <trkpt lat="43.40009" lon="5.45859">
        <ele>512.214</ele>
        <time>2011-11-23T10:07:08Z</time>
      </trkpt>
      <trkpt lat="43.40016" lon="5.45868">
        <ele>514.232</ele>
        <time>2011-11-23T10:07:18Z</time>
      </trkpt>
      <trkpt lat="43.40022" lon="5.45877">
        <ele>515.35</ele>
        <time>2011-11-23T10:07:28Z</time>
      </trkpt>
      <trkpt lat="43.40016" lon="5.45882">
        <ele>517.448</ele>
        <time>2011-11-23T10:07:38Z</time>
      </trkpt>
      <trkpt lat="43.40007" lon="5.45888">
        <ele>519.541</ele>
        <time>2011-11-23T10:07:48Z</time>
      </trkpt>
      <trkpt lat="43.4" lon="5.45887">
        <ele>521.42</ele>
        <time>2011-11-23T10:07:58Z</time>
      </trkpt>
      <trkpt lat="43.3999" lon="5.45883">
        <ele>522.897</ele>
        <time>2011-11-23T10:08:08Z</time>
      </trkpt>
      <trkpt lat="43.39985" lon="5.45883">
        <ele>524.464</ele>
        <time>2011-11-23T10:08:18Z</time>
      </trkpt>
      <trkpt lat="43.39988" lon="5.45895">
        <ele>527.291</ele>
        <time>2011-11-23T10:08:28Z</time>
      </trkpt>
      <trkpt lat="43.39991" lon="5.45904">
        <ele>529.08</ele>
        <time>2011-11-23T10:08:38Z</time>
      </trkpt>
      <trkpt lat="43.39997" lon="5.45911">
        <ele>530.139</ele>
        <time>2011-11-23T10:08:48Z</time>
      </trkpt>
      <trkpt lat="43.40002" lon="5.45918">
        <ele>532.589</ele>
        <time>2011-11-23T10:08:58Z</time>
      </trkpt>
      <trkpt lat="43.40008" lon="5.45921">
        <ele>534.621</ele>
        <time>2011-11-23T10:09:08Z</time>
      </trkpt>
      <trkpt lat="43.40018" lon="5.4592">
        <ele>536.473</ele>
        <time>2011-11-23T10:09:18Z</time>
      </trkpt>
      <trkpt lat="43.40026" lon="5.45928">
        <ele>538.571</ele>
        <time>2011-11-23T10:09:28Z</time>
      </trkpt>
      <trkpt lat="43.40027" lon="5.45937">
        <ele>540.611</ele>
        <time>2011-11-23T10:09:38Z</time>
      </trkpt>
      <trkpt lat="43.40028" lon="5.45946">
        <ele>542.521</ele>
        <time>2011-11-23T10:09:48Z</time>
      </trkpt>
      <trkpt lat="43.4003" lon="5.45955">
        <ele>543.895</ele>
        <time>2011-11-23T10:09:58Z</time>
      </trkpt>
      <trkpt lat="43.40037" lon="5.45968">
        <ele>546.347</ele>
        <time>2011-11-23T10:10:08Z</time>
      </trkpt>
      <trkpt lat="43.40038" lon="5.45976">
        <ele>548.902</ele>
        <time>2011-11-23T10:10:18Z</time>
      </trkpt>
      <trkpt lat="43.40035" lon="5.45979">
        <ele>551.46</ele>
        <time>2011-11-23T10:10:28Z</time>
      </trkpt>
      <trkpt lat="43.4003" lon="5.45993">
        <ele>551.626</ele>
        <time>2011-11-23T10:10:38Z</time>
      </trkpt>
      <trkpt lat="43.40031" lon="5.45998">
        <ele>551.986</ele>
        <time>2011-11-23T10:10:48Z</time>
      </trkpt>
      <trkpt lat="43.40032" lon="5.45999">
        <ele>551.782</ele>
        <time>2011-11-23T10:10:58Z</time>
      </trkpt>
      <trkpt lat="43.40032" lon="5.46001">
        <ele>551.591</ele>
        <time>2011-11-23T10:11:08Z</time>
      </trkpt>
      <trkpt lat="43.40032" lon="5.46001">
        <ele>550.67</ele>
        <time>2011-11-23T10:11:18Z</time>
      </trkpt>
      <trkpt lat="43.40024" lon="5.46002">
        <ele>551.623</ele>
        <time>2011-11-23T10:11:28Z</time>
      </trkpt>
      <trkpt lat="43.40014" lon="5.46">
        <ele>553.853</ele>
        <time>2011-11-23T10:11:38Z</time>
      </trkpt>
      <trkpt lat="43.40008" lon="5.45997">
        <ele>554.049</ele>
        <time>2011-11-23T10:11:48Z</time>
      </trkpt>
      <trkpt lat="43.40006" lon="5.45993">
        <ele>554.691</ele>
        <time>2011-11-23T10:11:58Z</time>
      </trkpt>
      <trkpt lat="43.40007" lon="5.45993">
        <ele>554.89</ele>
        <time>2011-11-23T10:12:08Z</time>
      </trkpt>
      <trkpt lat="43.40007" lon="5.45993">
        <ele>555.017</ele>
        <time>2011-11-23T10:12:18Z</time>
      </trkpt>
      <trkpt lat="43.40009" lon="5.45996">
        <ele>554.968</ele>
        <time>2011-11-23T10:12:28Z</time>
      </trkpt>
      <trkpt lat="43.40014" lon="5.45997">
        <ele>554.279</ele>
        <time>2011-11-23T10:12:38Z</time>
      </trkpt>
      <trkpt lat="43.40025" lon="5.45998">
        <ele>552.554</ele>
        <time>2011-11-23T10:12:48Z</time>
      </trkpt>
      <trkpt lat="43.40036" lon="5.46">
        <ele>551.691</ele>
        <time>2011-11-23T10:12:58Z</time>
      </trkpt>
      <trkpt lat="43.40035" lon="5.46003">
        <ele>551.209</ele>
        <time>2011-11-23T10:13:08Z</time>
      </trkpt>
      <trkpt lat="43.40033" lon="5.46005">
        <ele>551.429</ele>
        <time>2011-11-23T10:13:18Z</time>
      </trkpt>
      <trkpt lat="43.40033" lon="5.46005">
        <ele>551.405</ele>
        <time>2011-11-23T10:13:28Z</time>
      </trkpt>
      <trkpt lat="43.40033" lon="5.46005">
        <ele>550.857</ele>
        <time>2011-11-23T10:13:38Z</time>
      </trkpt>
      <trkpt lat="43.40033" lon="5.46005">
        <ele>551.049</ele>
        <time>2011-11-23T10:13:48Z</time>
      </trkpt>
      <trkpt lat="43.40033" lon="5.46005">
        <ele>551.356</ele>
        <time>2011-11-23T10:13:58Z</time>
      </trkpt>
      <trkpt lat="43.40033" lon="5.46005">
        <ele>551.319</ele>
        <time>2011-11-23T10:14:08Z</time>
      </trkpt>
      <trkpt lat="43.40034" lon="5.46005">
        <ele>551.215</ele>
        <time>2011-11-23T10:14:18Z</time>
      </trkpt>
      <trkpt lat="43.40033" lon="5.46003">
        <ele>551.129</ele>
        <time>2011-11-23T10:14:28Z</time>
      </trkpt>
      <trkpt lat="43.40032" lon="5.46003">
        <ele>550.827</ele>
        <time>2011-11-23T10:14:38Z</time>
      </trkpt>
      <trkpt lat="43.40034" lon="5.46003">
        <ele>551.698</ele>
        <time>2011-11-23T10:14:48Z</time>
      </trkpt>
      <trkpt lat="43.40032" lon="5.45999">
        <ele>551.307</ele>
        <time>2011-11-23T10:14:58Z</time>
      </trkpt>
      <trkpt lat="43.40036" lon="5.46">
        <ele>551.627</ele>
        <time>2011-11-23T10:15:08Z</time>
      </trkpt>
      <trkpt lat="43.40033" lon="5.46002">
        <ele>550.267</ele>
        <time>2011-11-23T10:15:18Z</time>
      </trkpt>
      <trkpt lat="43.40033" lon="5.46002">
        <ele>550.03</ele>
        <time>2011-11-23T10:15:28Z</time>
      </trkpt>
      <trkpt lat="43.40033" lon="5.46002">
        <ele>550.393</ele>
        <time>2011-11-23T10:15:38Z</time>
      </trkpt>
      <trkpt lat="43.40033" lon="5.46002">
        <ele>550.4</ele>
        <time>2011-11-23T10:15:48Z</time>
      </trkpt>
      <trkpt lat="43.40033" lon="5.46002">
        <ele>550.515</ele>
        <time>2011-11-23T10:15:58Z</time>
      </trkpt>
      <trkpt lat="43.40033" lon="5.46002">
        <ele>550.619</ele>
        <time>2011-11-23T10:16:08Z</time>
      </trkpt>
      <trkpt lat="43.40033" lon="5.46002">
        <ele>549.92</ele>
        <time>2011-11-23T10:16:18Z</time>
      </trkpt>
      <trkpt lat="43.40035" lon="5.46">
        <ele>550.559</ele>
        <time>2011-11-23T10:16:28Z</time>
      </trkpt>
      <trkpt lat="43.4004" lon="5.46">
        <ele>550.83</ele>
        <time>2011-11-23T10:16:38Z</time>
      </trkpt>
      <trkpt lat="43.40052" lon="5.46002">
        <ele>550.948</ele>
        <time>2011-11-23T10:16:48Z</time>
      </trkpt>
      <trkpt lat="43.40059" lon="5.45998">
        <ele>552.031</ele>
        <time>2011-11-23T10:16:58Z</time>
      </trkpt>
      <trkpt lat="43.40065" lon="5.45995">
        <ele>553.71</ele>
        <time>2011-11-23T10:17:08Z</time>
      </trkpt>
      <trkpt lat="43.40068" lon="5.4599">
        <ele>554.85</ele>
        <time>2011-11-23T10:17:18Z</time>
      </trkpt>
      <trkpt lat="43.40076" lon="5.45987">
        <ele>556.203</ele>
        <time>2011-11-23T10:17:28Z</time>
      </trkpt>
      <trkpt lat="43.40088" lon="5.45986">
        <ele>557.183</ele>
        <time>2011-11-23T10:17:38Z</time>
      </trkpt>
      <trkpt lat="43.40095" lon="5.45986">
        <ele>558.472</ele>
        <time>2011-11-23T10:17:48Z</time>
      </trkpt>
      <trkpt lat="43.40102" lon="5.45984">
        <ele>559.193</ele>
        <time>2011-11-23T10:17:58Z</time>
      </trkpt>
      <trkpt lat="43.40111" lon="5.45987">
        <ele>559.198</ele>
        <time>2011-11-23T10:18:08Z</time>
      </trkpt>
      <trkpt lat="43.40124" lon="5.45993">
        <ele>558.704</ele>
        <time>2011-11-23T10:18:18Z</time>
      </trkpt>
      <trkpt lat="43.40129" lon="5.45998">
        <ele>558.289</ele>
        <time>2011-11-23T10:18:28Z</time>
      </trkpt>
      <trkpt lat="43.40137" lon="5.46003">
        <ele>558.894</ele>
        <time>2011-11-23T10:18:38Z</time>
      </trkpt>
      <trkpt lat="43.40147" lon="5.46007">
        <ele>560.208</ele>
        <time>2011-11-23T10:18:48Z</time>
      </trkpt>
      <trkpt lat="43.40157" lon="5.46013">
        <ele>561.227</ele>
        <time>2011-11-23T10:18:58Z</time>
      </trkpt>
      <trkpt lat="43.40165" lon="5.46017">
        <ele>562.91</ele>
        <time>2011-11-23T10:19:08Z</time>
      </trkpt>
      <trkpt lat="43.40167" lon="5.46016">
        <ele>565.695</ele>
        <time>2011-11-23T10:19:18Z</time>
      </trkpt>
      <trkpt lat="43.40173" lon="5.46017">
        <ele>566.425</ele>
        <time>2011-11-23T10:19:28Z</time>
      </trkpt>
      <trkpt lat="43.40179" lon="5.46017">
        <ele>567.762</ele>
        <time>2011-11-23T10:19:38Z</time>
      </trkpt>
      <trkpt lat="43.40187" lon="5.4602">
        <ele>568.964</ele>
        <time>2011-11-23T10:19:48Z</time>
      </trkpt>
      <trkpt lat="43.40194" lon="5.46021">
        <ele>573.036</ele>
        <time>2011-11-23T10:19:58Z</time>
      </trkpt>
      <trkpt lat="43.402" lon="5.46025">
        <ele>575.229</ele>
        <time>2011-11-23T10:20:08Z</time>
      </trkpt>
      <trkpt lat="43.40205" lon="5.46032">
        <ele>577.765</ele>
        <time>2011-11-23T10:20:18Z</time>
      </trkpt>
      <trkpt lat="43.40213" lon="5.46031">
        <ele>578.867</ele>
        <time>2011-11-23T10:20:28Z</time>
      </trkpt>
      <trkpt lat="43.40215" lon="5.4602">
        <ele>580.719</ele>
        <time>2011-11-23T10:20:38Z</time>
      </trkpt>
      <trkpt lat="43.40219" lon="5.46012">
        <ele>582.413</ele>
        <time>2011-11-23T10:20:48Z</time>
      </trkpt>
      <trkpt lat="43.40224" lon="5.46007">
        <ele>584.091</ele>
        <time>2011-11-23T10:20:58Z</time>
      </trkpt>
      <trkpt lat="43.40232" lon="5.46001">
        <ele>586.319</ele>
        <time>2011-11-23T10:21:08Z</time>
      </trkpt>
      <trkpt lat="43.4024" lon="5.46">
        <ele>588.284</ele>
        <time>2011-11-23T10:21:18Z</time>
      </trkpt>
      <trkpt lat="43.40246" lon="5.46">
        <ele>590.264</ele>
        <time>2011-11-23T10:21:28Z</time>
      </trkpt>
      <trkpt lat="43.40249" lon="5.45997">
        <ele>591.624</ele>
        <time>2011-11-23T10:21:38Z</time>
      </trkpt>
      <trkpt lat="43.40249" lon="5.45994">
        <ele>593.701</ele>
        <time>2011-11-23T10:21:48Z</time>
      </trkpt>
      <trkpt lat="43.40255" lon="5.4599">
        <ele>595.744</ele>
        <time>2011-11-23T10:21:58Z</time>
      </trkpt>
      <trkpt lat="43.40258" lon="5.45989">
        <ele>598.087</ele>
        <time>2011-11-23T10:22:08Z</time>
      </trkpt>
      <trkpt lat="43.40266" lon="5.45993">
        <ele>599.488</ele>
        <time>2011-11-23T10:22:18Z</time>
      </trkpt>
      <trkpt lat="43.40271" lon="5.46">
        <ele>600.772</ele>
        <time>2011-11-23T10:22:28Z</time>
      </trkpt>
      <trkpt lat="43.40279" lon="5.46">
        <ele>601.361</ele>
        <time>2011-11-23T10:22:38Z</time>
      </trkpt>
      <trkpt lat="43.40285" lon="5.46001">
        <ele>602.643</ele>
        <time>2011-11-23T10:22:48Z</time>
      </trkpt>
      <trkpt lat="43.40289" lon="5.46006">
        <ele>602.992</ele>
        <time>2011-11-23T10:22:58Z</time>
      </trkpt>
      <trkpt lat="43.40293" lon="5.46007">
        <ele>604.532</ele>
        <time>2011-11-23T10:23:08Z</time>
      </trkpt>
      <trkpt lat="43.403" lon="5.46016">
        <ele>605.761</ele>
        <time>2011-11-23T10:23:18Z</time>
      </trkpt>
      <trkpt lat="43.40306" lon="5.46011">
        <ele>608.268</ele>
        <time>2011-11-23T10:23:28Z</time>
      </trkpt>
      <trkpt lat="43.40313" lon="5.46007">
        <ele>610.319</ele>
        <time>2011-11-23T10:23:38Z</time>
      </trkpt>
      <trkpt lat="43.40314" lon="5.46009">
        <ele>612.649</ele>
        <time>2011-11-23T10:23:48Z</time>
      </trkpt>
      <trkpt lat="43.40312" lon="5.46012">
        <ele>612.306</ele>
        <time>2011-11-23T10:23:58Z</time>
      </trkpt>
      <trkpt lat="43.40313" lon="5.46015">
        <ele>615.331</ele>
        <time>2011-11-23T10:24:08Z</time>
      </trkpt>
      <trkpt lat="43.40321" lon="5.46028">
        <ele>617.35</ele>
        <time>2011-11-23T10:24:18Z</time>
      </trkpt>
      <trkpt lat="43.40317" lon="5.46037">
        <ele>619.509</ele>
        <time>2011-11-23T10:24:28Z</time>
      </trkpt>
      <trkpt lat="43.40319" lon="5.46049">
        <ele>621.631</ele>
        <time>2011-11-23T10:24:38Z</time>
      </trkpt>
      <trkpt lat="43.40321" lon="5.46058">
        <ele>622.487</ele>
        <time>2011-11-23T10:24:48Z</time>
      </trkpt>
      <trkpt lat="43.40326" lon="5.4607">
        <ele>623.964</ele>
        <time>2011-11-23T10:24:58Z</time>
      </trkpt>
      <trkpt lat="43.4033" lon="5.46077">
        <ele>625.961</ele>
        <time>2011-11-23T10:25:08Z</time>
      </trkpt>
      <trkpt lat="43.40332" lon="5.46085">
        <ele>627.255</ele>
        <time>2011-11-23T10:25:18Z</time>
      </trkpt>
      <trkpt lat="43.40339" lon="5.46089">
        <ele>627.59</ele>
        <time>2011-11-23T10:25:28Z</time>
      </trkpt>
      <trkpt lat="43.40342" lon="5.46096">
        <ele>627.7</ele>
        <time>2011-11-23T10:25:38Z</time>
      </trkpt>
      <trkpt lat="43.40347" lon="5.46101">
        <ele>630.192</ele>
        <time>2011-11-23T10:25:48Z</time>
      </trkpt>
      <trkpt lat="43.40351" lon="5.46104">
        <ele>630.172</ele>
        <time>2011-11-23T10:25:58Z</time>
      </trkpt>
      <trkpt lat="43.40352" lon="5.46104">
        <ele>629.601</ele>
        <time>2011-11-23T10:26:08Z</time>
      </trkpt>
      <trkpt lat="43.40354" lon="5.46096">
        <ele>632.13</ele>
        <time>2011-11-23T10:26:18Z</time>
      </trkpt>
      <trkpt lat="43.40359" lon="5.46093">
        <ele>634.389</ele>
        <time>2011-11-23T10:26:28Z</time>
      </trkpt>
      <trkpt lat="43.40363" lon="5.46096">
        <ele>636.25</ele>
        <time>2011-11-23T10:26:38Z</time>
      </trkpt>
      <trkpt lat="43.40375" lon="5.46102">
        <ele>635.881</ele>
        <time>2011-11-23T10:26:48Z</time>
      </trkpt>
      <trkpt lat="43.40385" lon="5.46105">
        <ele>637.757</ele>
        <time>2011-11-23T10:26:58Z</time>
      </trkpt>
      <trkpt lat="43.40391" lon="5.4611">
        <ele>638.578</ele>
        <time>2011-11-23T10:27:08Z</time>
      </trkpt>
      <trkpt lat="43.40397" lon="5.46112">
        <ele>639.007</ele>
        <time>2011-11-23T10:27:18Z</time>
      </trkpt>
      <trkpt lat="43.40405" lon="5.46121">
        <ele>639.558</ele>
        <time>2011-11-23T10:27:28Z</time>
      </trkpt>
      <trkpt lat="43.40412" lon="5.46135">
        <ele>638.576</ele>
        <time>2011-11-23T10:27:38Z</time>
      </trkpt>
      <trkpt lat="43.4042" lon="5.46147">
        <ele>638.8</ele>
        <time>2011-11-23T10:27:48Z</time>
      </trkpt>
      <trkpt lat="43.40423" lon="5.4616">
        <ele>639.262</ele>
        <time>2011-11-23T10:27:58Z</time>
      </trkpt>
      <trkpt lat="43.40427" lon="5.46168">
        <ele>641.703</ele>
        <time>2011-11-23T10:28:08Z</time>
      </trkpt>
      <trkpt lat="43.40435" lon="5.46178">
        <ele>642.595</ele>
        <time>2011-11-23T10:28:18Z</time>
      </trkpt>
      <trkpt lat="43.40441" lon="5.46184">
        <ele>643.219</ele>
        <time>2011-11-23T10:28:28Z</time>
      </trkpt>
      <trkpt lat="43.40449" lon="5.46189">
        <ele>644.519</ele>
        <time>2011-11-23T10:28:38Z</time>
      </trkpt>
      <trkpt lat="43.40459" lon="5.46196">
        <ele>645.188</ele>
        <time>2011-11-23T10:28:48Z</time>
      </trkpt>
      <trkpt lat="43.40465" lon="5.46202">
        <ele>648.123</ele>
        <time>2011-11-23T10:28:58Z</time>
      </trkpt>
      <trkpt lat="43.40469" lon="5.46204">
        <ele>649.309</ele>
        <time>2011-11-23T10:29:08Z</time>
      </trkpt>
      <trkpt lat="43.40474" lon="5.46208">
        <ele>651.415</ele>
        <time>2011-11-23T10:29:18Z</time>
      </trkpt>
      <trkpt lat="43.40479" lon="5.46211">
        <ele>653.145</ele>
        <time>2011-11-23T10:29:28Z</time>
      </trkpt>
      <trkpt lat="43.40481" lon="5.46214">
        <ele>654.837</ele>
        <time>2011-11-23T10:29:38Z</time>
      </trkpt>
      <trkpt lat="43.40475" lon="5.46216">
        <ele>654.62</ele>
        <time>2011-11-23T10:29:48Z</time>
      </trkpt>
      <trkpt lat="43.40481" lon="5.46224">
        <ele>654.289</ele>
        <time>2011-11-23T10:29:58Z</time>
      </trkpt>
      <trkpt lat="43.40488" lon="5.4623">
        <ele>654.134</ele>
        <time>2011-11-23T10:30:08Z</time>
      </trkpt>
      <trkpt lat="43.40493" lon="5.46231">
        <ele>654.038</ele>
        <time>2011-11-23T10:30:18Z</time>
      </trkpt>
      <trkpt lat="43.40493" lon="5.4623">
        <ele>654.123</ele>
        <time>2011-11-23T10:30:28Z</time>
      </trkpt>
      <trkpt lat="43.405" lon="5.46233">
        <ele>655.565</ele>
        <time>2011-11-23T10:30:38Z</time>
      </trkpt>
      <trkpt lat="43.40507" lon="5.46238">
        <ele>657.418</ele>
        <time>2011-11-23T10:30:48Z</time>
      </trkpt>
      <trkpt lat="43.40513" lon="5.46238">
        <ele>659.375</ele>
        <time>2011-11-23T10:30:58Z</time>
      </trkpt>
      <trkpt lat="43.40515" lon="5.46238">
        <ele>661.135</ele>
        <time>2011-11-23T10:31:08Z</time>
      </trkpt>
      <trkpt lat="43.40522" lon="5.46247">
        <ele>663.717</ele>
        <time>2011-11-23T10:31:18Z</time>
      </trkpt>
      <trkpt lat="43.40525" lon="5.46258">
        <ele>664.71</ele>
        <time>2011-11-23T10:31:28Z</time>
      </trkpt>
      <trkpt lat="43.40531" lon="5.46261">
        <ele>664.769</ele>
        <time>2011-11-23T10:31:38Z</time>
      </trkpt>
      <trkpt lat="43.40529" lon="5.46259">
        <ele>664.648</ele>
        <time>2011-11-23T10:31:48Z</time>
      </trkpt>
      <trkpt lat="43.40527" lon="5.46255">
        <ele>664.951</ele>
        <time>2011-11-23T10:31:58Z</time>
      </trkpt>
      <trkpt lat="43.40527" lon="5.46254">
        <ele>664.901</ele>
        <time>2011-11-23T10:32:08Z</time>
      </trkpt>
      <trkpt lat="43.40528" lon="5.46255">
        <ele>665.141</ele>
        <time>2011-11-23T10:32:18Z</time>
      </trkpt>
      <trkpt lat="43.40526" lon="5.46256">
        <ele>664.878</ele>
        <time>2011-11-23T10:32:28Z</time>
      </trkpt>
      <trkpt lat="43.40526" lon="5.46257">
        <ele>664.799</ele>
        <time>2011-11-23T10:32:38Z</time>
      </trkpt>
      <trkpt lat="43.40524" lon="5.46266">
        <ele>664.488</ele>
        <time>2011-11-23T10:32:48Z</time>
      </trkpt>
      <trkpt lat="43.40525" lon="5.4627">
        <ele>664.923</ele>
        <time>2011-11-23T10:32:58Z</time>
      </trkpt>
      <trkpt lat="43.40525" lon="5.4627">
        <ele>664.992</ele>
        <time>2011-11-23T10:33:08Z</time>
      </trkpt>
      <trkpt lat="43.40524" lon="5.4627">
        <ele>665.237</ele>
        <time>2011-11-23T10:33:18Z</time>
      </trkpt>
      <trkpt lat="43.40524" lon="5.4627">
        <ele>665.084</ele>
        <time>2011-11-23T10:33:28Z</time>
      </trkpt>
      <trkpt lat="43.40525" lon="5.46267">
        <ele>664.755</ele>
        <time>2011-11-23T10:33:38Z</time>
      </trkpt>
      <trkpt lat="43.40525" lon="5.46269">
        <ele>665.025</ele>
        <time>2011-11-23T10:33:48Z</time>
      </trkpt>
      <trkpt lat="43.40522" lon="5.46277">
        <ele>665.091</ele>
        <time>2011-11-23T10:33:58Z</time>
      </trkpt>
      <trkpt lat="43.40521" lon="5.46285">
        <ele>665.462</ele>
        <time>2011-11-23T10:34:08Z</time>
      </trkpt>
      <trkpt lat="43.40517" lon="5.46287">
        <ele>664.988</ele>
        <time>2011-11-23T10:34:18Z</time>
      </trkpt>
      <trkpt lat="43.40518" lon="5.4629">
        <ele>665.078</ele>
        <time>2011-11-23T10:34:28Z</time>
      </trkpt>
      <trkpt lat="43.40518" lon="5.46291">
        <ele>664.971</ele>
        <time>2011-11-23T10:34:38Z</time>
      </trkpt>
      <trkpt lat="43.40515" lon="5.46299">
        <ele>664.656</ele>
        <time>2011-11-23T10:34:48Z</time>
      </trkpt>
      <trkpt lat="43.40516" lon="5.46304">
        <ele>665.54</ele>
        <time>2011-11-23T10:34:58Z</time>
      </trkpt>
      <trkpt lat="43.40518" lon="5.46313">
        <ele>666.561</ele>
        <time>2011-11-23T10:35:08Z</time>
      </trkpt>
      <trkpt lat="43.40521" lon="5.46317">
        <ele>666.506</ele>
        <time>2011-11-23T10:35:18Z</time>
      </trkpt>
      <trkpt lat="43.40522" lon="5.4632">
        <ele>666.09</ele>
        <time>2011-11-23T10:35:28Z</time>
      </trkpt>
      <trkpt lat="43.40523" lon="5.46325">
        <ele>666.199</ele>
        <time>2011-11-23T10:35:38Z</time>
      </trkpt>
      <trkpt lat="43.40521" lon="5.4633">
        <ele>664.623</ele>
        <time>2011-11-23T10:35:48Z</time>
      </trkpt>
      <trkpt lat="43.4052" lon="5.46343">
        <ele>661.797</ele>
        <time>2011-11-23T10:35:58Z</time>
      </trkpt>
      <trkpt lat="43.40522" lon="5.46357">
        <ele>660.248</ele>
        <time>2011-11-23T10:36:08Z</time>
      </trkpt>
      <trkpt lat="43.40528" lon="5.4637">
        <ele>658.456</ele>
        <time>2011-11-23T10:36:18Z</time>
      </trkpt>
      <trkpt lat="43.40528" lon="5.46384">
        <ele>656.836</ele>
        <time>2011-11-23T10:36:28Z</time>
      </trkpt>
      <trkpt lat="43.40527" lon="5.46388">
        <ele>657.146</ele>
        <time>2011-11-23T10:36:38Z</time>
      </trkpt>
      <trkpt lat="43.40531" lon="5.46399">
        <ele>659.344</ele>
        <time>2011-11-23T10:36:48Z</time>
      </trkpt>
      <trkpt lat="43.40534" lon="5.46406">
        <ele>660.879</ele>
        <time>2011-11-23T10:36:58Z</time>
      </trkpt>
      <trkpt lat="43.40535" lon="5.46415">
        <ele>661.407</ele>
        <time>2011-11-23T10:37:08Z</time>
      </trkpt>
      <trkpt lat="43.40536" lon="5.46415">
        <ele>661.15</ele>
        <time>2011-11-23T10:37:18Z</time>
      </trkpt>
      <trkpt lat="43.40537" lon="5.46415">
        <ele>661.072</ele>
        <time>2011-11-23T10:37:28Z</time>
      </trkpt>
      <trkpt lat="43.40538" lon="5.46416">
        <ele>661.124</ele>
        <time>2011-11-23T10:37:38Z</time>
      </trkpt>
      <trkpt lat="43.40539" lon="5.46416">
        <ele>661.08</ele>
        <time>2011-11-23T10:37:48Z</time>
      </trkpt>
      <trkpt lat="43.40534" lon="5.46426">
        <ele>661.796</ele>
        <time>2011-11-23T10:37:58Z</time>
      </trkpt>
      <trkpt lat="43.40528" lon="5.46432">
        <ele>662.062</ele>
        <time>2011-11-23T10:38:08Z</time>
      </trkpt>
      <trkpt lat="43.40526" lon="5.46434">
        <ele>660.279</ele>
        <time>2011-11-23T10:38:18Z</time>
      </trkpt>
      <trkpt lat="43.40522" lon="5.46439">
        <ele>658.619</ele>
        <time>2011-11-23T10:38:28Z</time>
      </trkpt>
      <trkpt lat="43.40518" lon="5.46449">
        <ele>656.749</ele>
        <time>2011-11-23T10:38:38Z</time>
      </trkpt>
      <trkpt lat="43.40517" lon="5.46456">
        <ele>656.931</ele>
        <time>2011-11-23T10:38:48Z</time>
      </trkpt>
      <trkpt lat="43.40515" lon="5.46468">
        <ele>660.062</ele>
        <time>2011-11-23T10:38:58Z</time>
      </trkpt>
      <trkpt lat="43.40517" lon="5.46475">
        <ele>660.984</ele>
        <time>2011-11-23T10:39:08Z</time>
      </trkpt>
      <trkpt lat="43.40519" lon="5.46484">
        <ele>662.158</ele>
        <time>2011-11-23T10:39:18Z</time>
      </trkpt>
      <trkpt lat="43.40523" lon="5.46493">
        <ele>662.925</ele>
        <time>2011-11-23T10:39:28Z</time>
      </trkpt>
      <trkpt lat="43.40522" lon="5.46504">
        <ele>662.118</ele>
        <time>2011-11-23T10:39:38Z</time>
      </trkpt>
      <trkpt lat="43.40521" lon="5.46511">
        <ele>659.785</ele>
        <time>2011-11-23T10:39:48Z</time>
      </trkpt>
      <trkpt lat="43.40525" lon="5.46524">
        <ele>657.612</ele>
        <time>2011-11-23T10:39:58Z</time>
      </trkpt>
      <trkpt lat="43.40528" lon="5.46535">
        <ele>657.182</ele>
        <time>2011-11-23T10:40:08Z</time>
      </trkpt>
      <trkpt lat="43.40533" lon="5.4655">
        <ele>656.814</ele>
        <time>2011-11-23T10:40:18Z</time>
      </trkpt>
      <trkpt lat="43.40534" lon="5.46561">
        <ele>655.176</ele>
        <time>2011-11-23T10:40:28Z</time>
      </trkpt>
      <trkpt lat="43.40533" lon="5.46565">
        <ele>655.502</ele>
        <time>2011-11-23T10:40:38Z</time>
      </trkpt>
      <trkpt lat="43.40533" lon="5.46565">
        <ele>655.127</ele>
        <time>2011-11-23T10:40:48Z</time>
      </trkpt>
      <trkpt lat="43.40533" lon="5.4657">
        <ele>655.365</ele>
        <time>2011-11-23T10:40:58Z</time>
      </trkpt>
      <trkpt lat="43.40537" lon="5.46577">
        <ele>655.502</ele>
        <time>2011-11-23T10:41:08Z</time>
      </trkpt>
      <trkpt lat="43.40538" lon="5.46577">
        <ele>654.95</ele>
        <time>2011-11-23T10:41:18Z</time>
      </trkpt>
      <trkpt lat="43.40538" lon="5.46577">
        <ele>655.776</ele>
        <time>2011-11-23T10:41:28Z</time>
      </trkpt>
      <trkpt lat="43.40538" lon="5.46579">
        <ele>655.825</ele>
        <time>2011-11-23T10:41:38Z</time>
      </trkpt>
      <trkpt lat="43.40538" lon="5.4658">
        <ele>655.508</ele>
        <time>2011-11-23T10:41:48Z</time>
      </trkpt>
      <trkpt lat="43.40539" lon="5.46587">
        <ele>654.964</ele>
        <time>2011-11-23T10:41:58Z</time>
      </trkpt>
      <trkpt lat="43.40539" lon="5.46603">
        <ele>655.429</ele>
        <time>2011-11-23T10:42:08Z</time>
      </trkpt>
      <trkpt lat="43.40539" lon="5.46617">
        <ele>654.303</ele>
        <time>2011-11-23T10:42:18Z</time>
      </trkpt>
      <trkpt lat="43.4054" lon="5.46633">
        <ele>654.213</ele>
        <time>2011-11-23T10:42:28Z</time>
      </trkpt>
      <trkpt lat="43.40534" lon="5.46642">
        <ele>654.953</ele>
        <time>2011-11-23T10:42:38Z</time>
      </trkpt>
      <trkpt lat="43.40533" lon="5.46649">
        <ele>654.914</ele>
        <time>2011-11-23T10:42:48Z</time>
      </trkpt>
      <trkpt lat="43.40528" lon="5.46659">
        <ele>656.258</ele>
        <time>2011-11-23T10:42:58Z</time>
      </trkpt>
      <trkpt lat="43.40522" lon="5.46665">
        <ele>658.293</ele>
        <time>2011-11-23T10:43:08Z</time>
      </trkpt>
      <trkpt lat="43.40521" lon="5.46673">
        <ele>659.279</ele>
        <time>2011-11-23T10:43:18Z</time>
      </trkpt>
      <trkpt lat="43.40512" lon="5.46683">
        <ele>661.873</ele>
        <time>2011-11-23T10:43:28Z</time>
      </trkpt>
      <trkpt lat="43.40506" lon="5.46687">
        <ele>663.771</ele>
        <time>2011-11-23T10:43:38Z</time>
      </trkpt>
      <trkpt lat="43.40504" lon="5.46698">
        <ele>664.349</ele>
        <time>2011-11-23T10:43:48Z</time>
      </trkpt>
      <trkpt lat="43.40499" lon="5.46704">
        <ele>663.591</ele>
        <time>2011-11-23T10:43:58Z</time>
      </trkpt>
      <trkpt lat="43.40493" lon="5.46708">
        <ele>661.604</ele>
        <time>2011-11-23T10:44:08Z</time>
      </trkpt>
      <trkpt lat="43.4049" lon="5.46721">
        <ele>661.205</ele>
        <time>2011-11-23T10:44:18Z</time>
      </trkpt>
      <trkpt lat="43.40487" lon="5.46727">
        <ele>662.375</ele>
        <time>2011-11-23T10:44:28Z</time>
      </trkpt>
      <trkpt lat="43.40484" lon="5.46735">
        <ele>661.181</ele>
        <time>2011-11-23T10:44:38Z</time>
      </trkpt>
      <trkpt lat="43.40476" lon="5.46732">
        <ele>659.363</ele>
        <time>2011-11-23T10:44:48Z</time>
      </trkpt>
      <trkpt lat="43.40473" lon="5.4674">
        <ele>661.245</ele>
        <time>2011-11-23T10:44:58Z</time>
      </trkpt>
      <trkpt lat="43.40471" lon="5.46747">
        <ele>663.442</ele>
        <time>2011-11-23T10:45:08Z</time>
      </trkpt>
      <trkpt lat="43.40473" lon="5.46752">
        <ele>664.22</ele>
        <time>2011-11-23T10:45:18Z</time>
      </trkpt>
      <trkpt lat="43.40476" lon="5.46757">
        <ele>666.463</ele>
        <time>2011-11-23T10:45:28Z</time>
      </trkpt>
      <trkpt lat="43.40476" lon="5.46763">
        <ele>668.33</ele>
        <time>2011-11-23T10:45:38Z</time>
      </trkpt>
      <trkpt lat="43.40479" lon="5.46768">
        <ele>670.107</ele>
        <time>2011-11-23T10:45:48Z</time>
      </trkpt>
      <trkpt lat="43.40474" lon="5.46778">
        <ele>672.079</ele>
        <time>2011-11-23T10:45:58Z</time>
      </trkpt>
      <trkpt lat="43.40475" lon="5.46784">
        <ele>673.554</ele>
        <time>2011-11-23T10:46:08Z</time>
      </trkpt>
      <trkpt lat="43.4047" lon="5.46788">
        <ele>675.883</ele>
        <time>2011-11-23T10:46:18Z</time>
      </trkpt>
      <trkpt lat="43.40469" lon="5.46798">
        <ele>674.927</ele>
        <time>2011-11-23T10:46:28Z</time>
      </trkpt>
      <trkpt lat="43.40467" lon="5.46802">
        <ele>676.444</ele>
        <time>2011-11-23T10:46:38Z</time>
      </trkpt>
      <trkpt lat="43.40466" lon="5.46807">
        <ele>677.752</ele>
        <time>2011-11-23T10:46:48Z</time>
      </trkpt>
      <trkpt lat="43.4046" lon="5.4681">
        <ele>678.368</ele>
        <time>2011-11-23T10:46:58Z</time>
      </trkpt>
      <trkpt lat="43.40455" lon="5.46811">
        <ele>678.183</ele>
        <time>2011-11-23T10:47:08Z</time>
      </trkpt>
      <trkpt lat="43.40453" lon="5.46808">
        <ele>678.837</ele>
        <time>2011-11-23T10:47:18Z</time>
      </trkpt>
      <trkpt lat="43.40453" lon="5.46808">
        <ele>679.107</ele>
        <time>2011-11-23T10:47:28Z</time>
      </trkpt>
      <trkpt lat="43.40452" lon="5.46808">
        <ele>678.431</ele>
        <time>2011-11-23T10:47:38Z</time>
      </trkpt>
      <trkpt lat="43.40452" lon="5.46807">
        <ele>678.429</ele>
        <time>2011-11-23T10:47:48Z</time>
      </trkpt>
      <trkpt lat="43.40452" lon="5.46806">
        <ele>678.676</ele>
        <time>2011-11-23T10:47:58Z</time>
      </trkpt>
      <trkpt lat="43.40452" lon="5.46807">
        <ele>678.511</ele>
        <time>2011-11-23T10:48:08Z</time>
      </trkpt>
      <trkpt lat="43.40452" lon="5.46806">
        <ele>678.83</ele>
        <time>2011-11-23T10:48:18Z</time>
      </trkpt>
      <trkpt lat="43.40454" lon="5.46806">
        <ele>678.474</ele>
        <time>2011-11-23T10:48:28Z</time>
      </trkpt>
      <trkpt lat="43.40454" lon="5.46806">
        <ele>678.803</ele>
        <time>2011-11-23T10:48:38Z</time>
      </trkpt>
      <trkpt lat="43.40455" lon="5.46807">
        <ele>677.723</ele>
        <time>2011-11-23T10:48:48Z</time>
      </trkpt>
      <trkpt lat="43.40455" lon="5.46808">
        <ele>677.467</ele>
        <time>2011-11-23T10:48:58Z</time>
      </trkpt>
      <trkpt lat="43.40455" lon="5.46808">
        <ele>678.155</ele>
        <time>2011-11-23T10:49:08Z</time>
      </trkpt>
      <trkpt lat="43.40455" lon="5.46808">
        <ele>677.722</ele>
        <time>2011-11-23T10:49:18Z</time>
      </trkpt>
      <trkpt lat="43.40456" lon="5.46808">
        <ele>678.263</ele>
        <time>2011-11-23T10:49:28Z</time>
      </trkpt>
      <trkpt lat="43.40457" lon="5.46809">
        <ele>676.521</ele>
        <time>2011-11-23T10:49:38Z</time>
      </trkpt>
      <trkpt lat="43.40454" lon="5.46809">
        <ele>676.774</ele>
        <time>2011-11-23T10:49:48Z</time>
      </trkpt>
      <trkpt lat="43.40449" lon="5.46809">
        <ele>674.012</ele>
        <time>2011-11-23T10:49:58Z</time>
      </trkpt>
      <trkpt lat="43.40447" lon="5.46811">
        <ele>672.274</ele>
        <time>2011-11-23T10:50:08Z</time>
      </trkpt>
      <trkpt lat="43.40447" lon="5.46819">
        <ele>669.758</ele>
        <time>2011-11-23T10:50:18Z</time>
      </trkpt>
      <trkpt lat="43.40448" lon="5.46823">
        <ele>668.928</ele>
        <time>2011-11-23T10:50:28Z</time>
      </trkpt>
      <trkpt lat="43.40443" lon="5.46823">
        <ele>668.196</ele>
        <time>2011-11-23T10:50:38Z</time>
      </trkpt>
      <trkpt lat="43.40442" lon="5.4682">
        <ele>667.183</ele>
        <time>2011-11-23T10:50:48Z</time>
      </trkpt>
      <trkpt lat="43.40442" lon="5.46819">
        <ele>666.758</ele>
        <time>2011-11-23T10:50:58Z</time>
      </trkpt>
      <trkpt lat="43.40441" lon="5.46811">
        <ele>668.653</ele>
        <time>2011-11-23T10:51:08Z</time>
      </trkpt>
      <trkpt lat="43.40439" lon="5.46803">
        <ele>668.198</ele>
        <time>2011-11-23T10:51:18Z</time>
      </trkpt>
      <trkpt lat="43.40441" lon="5.46797">
        <ele>668.213</ele>
        <time>2011-11-23T10:51:28Z</time>
      </trkpt>
      <trkpt lat="43.40441" lon="5.46798">
        <ele>667.936</ele>
        <time>2011-11-23T10:51:38Z</time>
      </trkpt>
      <trkpt lat="43.40441" lon="5.46798">
        <ele>668.119</ele>
        <time>2011-11-23T10:51:48Z</time>
      </trkpt>
      <trkpt lat="43.40443" lon="5.468">
        <ele>668.306</ele>
        <time>2011-11-23T10:51:58Z</time>
      </trkpt>
      <trkpt lat="43.40441" lon="5.46802">
        <ele>670.005</ele>
        <time>2011-11-23T10:52:08Z</time>
      </trkpt>
      <trkpt lat="43.40447" lon="5.4681">
        <ele>670.753</ele>
        <time>2011-11-23T10:52:18Z</time>
      </trkpt>
      <trkpt lat="43.40452" lon="5.46812">
        <ele>672.259</ele>
        <time>2011-11-23T10:52:28Z</time>
      </trkpt>
      <trkpt lat="43.40458" lon="5.46812">
        <ele>674.263</ele>
        <time>2011-11-23T10:52:38Z</time>
      </trkpt>
      <trkpt lat="43.40463" lon="5.4681">
        <ele>676.85</ele>
        <time>2011-11-23T10:52:48Z</time>
      </trkpt>
      <trkpt lat="43.40466" lon="5.46805">
        <ele>675.966</ele>
        <time>2011-11-23T10:52:58Z</time>
      </trkpt>
      <trkpt lat="43.4047" lon="5.46799">
        <ele>673.309</ele>
        <time>2011-11-23T10:53:08Z</time>
      </trkpt>
      <trkpt lat="43.40474" lon="5.46788">
        <ele>672.588</ele>
        <time>2011-11-23T10:53:18Z</time>
      </trkpt>
      <trkpt lat="43.40479" lon="5.46779">
        <ele>670.008</ele>
        <time>2011-11-23T10:53:28Z</time>
      </trkpt>
      <trkpt lat="43.40481" lon="5.4677">
        <ele>667.415</ele>
        <time>2011-11-23T10:53:38Z</time>
      </trkpt>
      <trkpt lat="43.4048" lon="5.46761">
        <ele>665.445</ele>
        <time>2011-11-23T10:53:48Z</time>
      </trkpt>
      <trkpt lat="43.40475" lon="5.46756">
        <ele>663.043</ele>
        <time>2011-11-23T10:53:58Z</time>
      </trkpt>
      <trkpt lat="43.40474" lon="5.46749">
        <ele>660.229</ele>
        <time>2011-11-23T10:54:08Z</time>
      </trkpt>
      <trkpt lat="43.40476" lon="5.46745">
        <ele>658.418</ele>
        <time>2011-11-23T10:54:18Z</time>
      </trkpt>
      <trkpt lat="43.40483" lon="5.46738">
        <ele>656.202</ele>
        <time>2011-11-23T10:54:28Z</time>
      </trkpt>
      <trkpt lat="43.40489" lon="5.46735">
        <ele>658.909</ele>
        <time>2011-11-23T10:54:38Z</time>
      </trkpt>
      <trkpt lat="43.40491" lon="5.46733">
        <ele>659.905</ele>
        <time>2011-11-23T10:54:48Z</time>
      </trkpt>
      <trkpt lat="43.40498" lon="5.46735">
        <ele>661.12</ele>
        <time>2011-11-23T10:54:58Z</time>
      </trkpt>
      <trkpt lat="43.40497" lon="5.46731">
        <ele>662.669</ele>
        <time>2011-11-23T10:55:08Z</time>
      </trkpt>
      <trkpt lat="43.40506" lon="5.46739">
        <ele>665.832</ele>
        <time>2011-11-23T10:55:18Z</time>
      </trkpt>
      <trkpt lat="43.40508" lon="5.4674">
        <ele>665.388</ele>
        <time>2011-11-23T10:55:28Z</time>
      </trkpt>
      <trkpt lat="43.40512" lon="5.46743">
        <ele>664.2</ele>
        <time>2011-11-23T10:55:38Z</time>
      </trkpt>
      <trkpt lat="43.40514" lon="5.46747">
        <ele>661.394</ele>
        <time>2011-11-23T10:55:48Z</time>
      </trkpt>
      <trkpt lat="43.40515" lon="5.46747">
        <ele>659.809</ele>
        <time>2011-11-23T10:55:58Z</time>
      </trkpt>
      <trkpt lat="43.40517" lon="5.46755">
        <ele>657.835</ele>
        <time>2011-11-23T10:56:08Z</time>
      </trkpt>
      <trkpt lat="43.40518" lon="5.46758">
        <ele>656.027</ele>
        <time>2011-11-23T10:56:18Z</time>
      </trkpt>
      <trkpt lat="43.40525" lon="5.46764">
        <ele>653.062</ele>
        <time>2011-11-23T10:56:28Z</time>
      </trkpt>
      <trkpt lat="43.40528" lon="5.46769">
        <ele>650.921</ele>
        <time>2011-11-23T10:56:38Z</time>
      </trkpt>
      <trkpt lat="43.4053" lon="5.4677">
        <ele>649.04</ele>
        <time>2011-11-23T10:56:48Z</time>
      </trkpt>
      <trkpt lat="43.40536" lon="5.46769">
        <ele>646.165</ele>
        <time>2011-11-23T10:56:58Z</time>
      </trkpt>
      <trkpt lat="43.40543" lon="5.46764">
        <ele>642.876</ele>
        <time>2011-11-23T10:57:08Z</time>
      </trkpt>
      <trkpt lat="43.40551" lon="5.46768">
        <ele>639.894</ele>
        <time>2011-11-23T10:57:18Z</time>
      </trkpt>
      <trkpt lat="43.40558" lon="5.46769">
        <ele>637.157</ele>
        <time>2011-11-23T10:57:28Z</time>
      </trkpt>
      <trkpt lat="43.40561" lon="5.46773">
        <ele>634.943</ele>
        <time>2011-11-23T10:57:38Z</time>
      </trkpt>
      <trkpt lat="43.40567" lon="5.4678">
        <ele>632.709</ele>
        <time>2011-11-23T10:57:48Z</time>
      </trkpt>
      <trkpt lat="43.40568" lon="5.46781">
        <ele>633.242</ele>
        <time>2011-11-23T10:57:58Z</time>
      </trkpt>
      <trkpt lat="43.4057" lon="5.46784">
        <ele>632.924</ele>
        <time>2011-11-23T10:58:08Z</time>
      </trkpt>
      <trkpt lat="43.40576" lon="5.46798">
        <ele>633.061</ele>
        <time>2011-11-23T10:58:18Z</time>
      </trkpt>
      <trkpt lat="43.40576" lon="5.46809">
        <ele>633.689</ele>
        <time>2011-11-23T10:58:28Z</time>
      </trkpt>
      <trkpt lat="43.40577" lon="5.46813">
        <ele>632.694</ele>
        <time>2011-11-23T10:58:38Z</time>
      </trkpt>
      <trkpt lat="43.40577" lon="5.46813">
        <ele>632.78</ele>
        <time>2011-11-23T10:58:48Z</time>
      </trkpt>
      <trkpt lat="43.40573" lon="5.4682">
        <ele>630.559</ele>
        <time>2011-11-23T10:58:58Z</time>
      </trkpt>
      <trkpt lat="43.40576" lon="5.46824">
        <ele>627.746</ele>
        <time>2011-11-23T10:59:08Z</time>
      </trkpt>
      <trkpt lat="43.4058" lon="5.46829">
        <ele>625.496</ele>
        <time>2011-11-23T10:59:18Z</time>
      </trkpt>
      <trkpt lat="43.40584" lon="5.46836">
        <ele>622.946</ele>
        <time>2011-11-23T10:59:28Z</time>
      </trkpt>
      <trkpt lat="43.40575" lon="5.46841">
        <ele>622.666</ele>
        <time>2011-11-23T10:59:38Z</time>
      </trkpt>
      <trkpt lat="43.40563" lon="5.46844">
        <ele>622.705</ele>
        <time>2011-11-23T10:59:48Z</time>
      </trkpt>
      <trkpt lat="43.40552" lon="5.46852">
        <ele>623.193</ele>
        <time>2011-11-23T10:59:58Z</time>
      </trkpt>
      <trkpt lat="43.4055" lon="5.46853">
        <ele>623.462</ele>
        <time>2011-11-23T11:00:08Z</time>
      </trkpt>
      <trkpt lat="43.40545" lon="5.46862">
        <ele>623.386</ele>
        <time>2011-11-23T11:00:18Z</time>
      </trkpt>
      <trkpt lat="43.40543" lon="5.46874">
        <ele>624.134</ele>
        <time>2011-11-23T11:00:28Z</time>
      </trkpt>
      <trkpt lat="43.40542" lon="5.46888">
        <ele>624.053</ele>
        <time>2011-11-23T11:00:38Z</time>
      </trkpt>
      <trkpt lat="43.4054" lon="5.46904">
        <ele>624.075</ele>
        <time>2011-11-23T11:00:48Z</time>
      </trkpt>
      <trkpt lat="43.40538" lon="5.4692">
        <ele>624.32</ele>
        <time>2011-11-23T11:00:58Z</time>
      </trkpt>
      <trkpt lat="43.40536" lon="5.46934">
        <ele>624.446</ele>
        <time>2011-11-23T11:01:08Z</time>
      </trkpt>
      <trkpt lat="43.40531" lon="5.46945">
        <ele>624.442</ele>
        <time>2011-11-23T11:01:18Z</time>
      </trkpt>
      <trkpt lat="43.40532" lon="5.46945">
        <ele>624.267</ele>
        <time>2011-11-23T11:01:28Z</time>
      </trkpt>
      <trkpt lat="43.40533" lon="5.4694">
        <ele>624.716</ele>
        <time>2011-11-23T11:01:38Z</time>
      </trkpt>
      <trkpt lat="43.40533" lon="5.4694">
        <ele>624.479</ele>
        <time>2011-11-23T11:01:48Z</time>
      </trkpt>
      <trkpt lat="43.40533" lon="5.4694">
        <ele>624.449</ele>
        <time>2011-11-23T11:01:58Z</time>
      </trkpt>
      <trkpt lat="43.40532" lon="5.46941">
        <ele>624.346</ele>
        <time>2011-11-23T11:02:08Z</time>
      </trkpt>
      <trkpt lat="43.40532" lon="5.46941">
        <ele>624.409</ele>
        <time>2011-11-23T11:02:18Z</time>
      </trkpt>
      <trkpt lat="43.40532" lon="5.46941">
        <ele>624.371</ele>
        <time>2011-11-23T11:02:28Z</time>
      </trkpt>
      <trkpt lat="43.40529" lon="5.46955">
        <ele>623.779</ele>
        <time>2011-11-23T11:02:38Z</time>
      </trkpt>
      <trkpt lat="43.40522" lon="5.46968">
        <ele>623.25</ele>
        <time>2011-11-23T11:02:48Z</time>
      </trkpt>
      <trkpt lat="43.40519" lon="5.46982">
        <ele>622.203</ele>
        <time>2011-11-23T11:02:58Z</time>
      </trkpt>
      <trkpt lat="43.40519" lon="5.46997">
        <ele>620.818</ele>
        <time>2011-11-23T11:03:08Z</time>
      </trkpt>
      <trkpt lat="43.40521" lon="5.47012">
        <ele>620.034</ele>
        <time>2011-11-23T11:03:18Z</time>
      </trkpt>
      <trkpt lat="43.40525" lon="5.47027">
        <ele>619.092</ele>
        <time>2011-11-23T11:03:28Z</time>
      </trkpt>
      <trkpt lat="43.40524" lon="5.47045">
        <ele>617.429</ele>
        <time>2011-11-23T11:03:38Z</time>
      </trkpt>
      <trkpt lat="43.40518" lon="5.47058">
        <ele>616.332</ele>
        <time>2011-11-23T11:03:48Z</time>
      </trkpt>
      <trkpt lat="43.40514" lon="5.4707">
        <ele>615.626</ele>
        <time>2011-11-23T11:03:58Z</time>
      </trkpt>
      <trkpt lat="43.40507" lon="5.47085">
        <ele>614.602</ele>
        <time>2011-11-23T11:04:08Z</time>
      </trkpt>
      <trkpt lat="43.40503" lon="5.47099">
        <ele>613.502</ele>
        <time>2011-11-23T11:04:18Z</time>
      </trkpt>
      <trkpt lat="43.40501" lon="5.47114">
        <ele>612.358</ele>
        <time>2011-11-23T11:04:28Z</time>
      </trkpt>
      <trkpt lat="43.40499" lon="5.47126">
        <ele>611.865</ele>
        <time>2011-11-23T11:04:38Z</time>
      </trkpt>
      <trkpt lat="43.40492" lon="5.47131">
        <ele>611.291</ele>
        <time>2011-11-23T11:04:48Z</time>
      </trkpt>
      <trkpt lat="43.40481" lon="5.47136">
        <ele>610.208</ele>
        <time>2011-11-23T11:04:58Z</time>
      </trkpt>
      <trkpt lat="43.40471" lon="5.4714">
        <ele>609.298</ele>
        <time>2011-11-23T11:05:08Z</time>
      </trkpt>
      <trkpt lat="43.4046" lon="5.47144">
        <ele>608.645</ele>
        <time>2011-11-23T11:05:18Z</time>
      </trkpt>
      <trkpt lat="43.4045" lon="5.47147">
        <ele>607.753</ele>
        <time>2011-11-23T11:05:28Z</time>
      </trkpt>
      <trkpt lat="43.40441" lon="5.47156">
        <ele>606.285</ele>
        <time>2011-11-23T11:05:38Z</time>
      </trkpt>
      <trkpt lat="43.40436" lon="5.47171">
        <ele>605.55</ele>
        <time>2011-11-23T11:05:48Z</time>
      </trkpt>
      <trkpt lat="43.4043" lon="5.47187">
        <ele>605.797</ele>
        <time>2011-11-23T11:05:58Z</time>
      </trkpt>
      <trkpt lat="43.40424" lon="5.472">
        <ele>605.11</ele>
        <time>2011-11-23T11:06:08Z</time>
      </trkpt>
      <trkpt lat="43.40422" lon="5.47216">
        <ele>604.747</ele>
        <time>2011-11-23T11:06:18Z</time>
      </trkpt>
      <trkpt lat="43.40427" lon="5.47229">
        <ele>604.324</ele>
        <time>2011-11-23T11:06:28Z</time>
      </trkpt>
      <trkpt lat="43.40433" lon="5.47241">
        <ele>603.649</ele>
        <time>2011-11-23T11:06:38Z</time>
      </trkpt>
      <trkpt lat="43.40439" lon="5.47254">
        <ele>603.269</ele>
        <time>2011-11-23T11:06:48Z</time>
      </trkpt>
      <trkpt lat="43.40445" lon="5.47269">
        <ele>603.438</ele>
        <time>2011-11-23T11:06:58Z</time>
      </trkpt>
      <trkpt lat="43.4045" lon="5.47281">
        <ele>603.351</ele>
        <time>2011-11-23T11:07:08Z</time>
      </trkpt>
      <trkpt lat="43.40453" lon="5.47297">
        <ele>604.234</ele>
        <time>2011-11-23T11:07:18Z</time>
      </trkpt>
      <trkpt lat="43.40457" lon="5.47312">
        <ele>605.207</ele>
        <time>2011-11-23T11:07:28Z</time>
      </trkpt>
      <trkpt lat="43.40459" lon="5.47327">
        <ele>605.827</ele>
        <time>2011-11-23T11:07:38Z</time>
      </trkpt>
      <trkpt lat="43.40463" lon="5.47339">
        <ele>605.986</ele>
        <time>2011-11-23T11:07:48Z</time>
      </trkpt>
      <trkpt lat="43.40469" lon="5.47352">
        <ele>606.846</ele>
        <time>2011-11-23T11:07:58Z</time>
      </trkpt>
      <trkpt lat="43.40473" lon="5.47367">
        <ele>607.418</ele>
        <time>2011-11-23T11:08:08Z</time>
      </trkpt>
      <trkpt lat="43.40475" lon="5.47385">
        <ele>606.748</ele>
        <time>2011-11-23T11:08:18Z</time>
      </trkpt>
      <trkpt lat="43.40476" lon="5.474">
        <ele>606.939</ele>
        <time>2011-11-23T11:08:28Z</time>
      </trkpt>
      <trkpt lat="43.40483" lon="5.47413">
        <ele>606.609</ele>
        <time>2011-11-23T11:08:38Z</time>
      </trkpt>
      <trkpt lat="43.40492" lon="5.47421">
        <ele>606.029</ele>
        <time>2011-11-23T11:08:48Z</time>
      </trkpt>
      <trkpt lat="43.405" lon="5.47432">
        <ele>605.586</ele>
        <time>2011-11-23T11:08:58Z</time>
      </trkpt>
      <trkpt lat="43.40502" lon="5.47447">
        <ele>605.179</ele>
        <time>2011-11-23T11:09:08Z</time>
      </trkpt>
      <trkpt lat="43.405" lon="5.47461">
        <ele>604.34</ele>
        <time>2011-11-23T11:09:18Z</time>
      </trkpt>
      <trkpt lat="43.40497" lon="5.47476">
        <ele>603.5</ele>
        <time>2011-11-23T11:09:28Z</time>
      </trkpt>
      <trkpt lat="43.40497" lon="5.47491">
        <ele>602.722</ele>
        <time>2011-11-23T11:09:38Z</time>
      </trkpt>
      <trkpt lat="43.40503" lon="5.47505">
        <ele>601.897</ele>
        <time>2011-11-23T11:09:48Z</time>
      </trkpt>
      <trkpt lat="43.40509" lon="5.47519">
        <ele>601.785</ele>
        <time>2011-11-23T11:09:58Z</time>
      </trkpt>
      <trkpt lat="43.40512" lon="5.47533">
        <ele>600.745</ele>
        <time>2011-11-23T11:10:08Z</time>
      </trkpt>
      <trkpt lat="43.40519" lon="5.47547">
        <ele>600.152</ele>
        <time>2011-11-23T11:10:18Z</time>
      </trkpt>
      <trkpt lat="43.40526" lon="5.47559">
        <ele>599.644</ele>
        <time>2011-11-23T11:10:28Z</time>
      </trkpt>
      <trkpt lat="43.40536" lon="5.47566">
        <ele>598.286</ele>
        <time>2011-11-23T11:10:38Z</time>
      </trkpt>
      <trkpt lat="43.40549" lon="5.47569">
        <ele>597.472</ele>
        <time>2011-11-23T11:10:48Z</time>
      </trkpt>
      <trkpt lat="43.4056" lon="5.47573">
        <ele>595.942</ele>
        <time>2011-11-23T11:10:58Z</time>
      </trkpt>
      <trkpt lat="43.40569" lon="5.47578">
        <ele>595.046</ele>
        <time>2011-11-23T11:11:08Z</time>
      </trkpt>
      <trkpt lat="43.40578" lon="5.47589">
        <ele>594.382</ele>
        <time>2011-11-23T11:11:18Z</time>
      </trkpt>
      <trkpt lat="43.40587" lon="5.47602">
        <ele>593.315</ele>
        <time>2011-11-23T11:11:28Z</time>
      </trkpt>
      <trkpt lat="43.40595" lon="5.47616">
        <ele>592.658</ele>
        <time>2011-11-23T11:11:38Z</time>
      </trkpt>
      <trkpt lat="43.40604" lon="5.47629">
        <ele>592.269</ele>
        <time>2011-11-23T11:11:48Z</time>
      </trkpt>
      <trkpt lat="43.40612" lon="5.47641">
        <ele>591.189</ele>
        <time>2011-11-23T11:11:58Z</time>
      </trkpt>
      <trkpt lat="43.4062" lon="5.47655">
        <ele>590.453</ele>
        <time>2011-11-23T11:12:08Z</time>
      </trkpt>
      <trkpt lat="43.40626" lon="5.47668">
        <ele>590.176</ele>
        <time>2011-11-23T11:12:18Z</time>
      </trkpt>
      <trkpt lat="43.40633" lon="5.4768">
        <ele>589.66</ele>
        <time>2011-11-23T11:12:28Z</time>
      </trkpt>
      <trkpt lat="43.40641" lon="5.47691">
        <ele>589.05</ele>
        <time>2011-11-23T11:12:38Z</time>
      </trkpt>
      <trkpt lat="43.4065" lon="5.47699">
        <ele>588.063</ele>
        <time>2011-11-23T11:12:48Z</time>
      </trkpt>
      <trkpt lat="43.40657" lon="5.4771">
        <ele>587.215</ele>
        <time>2011-11-23T11:12:58Z</time>
      </trkpt>
      <trkpt lat="43.40666" lon="5.47719">
        <ele>586.765</ele>
        <time>2011-11-23T11:13:08Z</time>
      </trkpt>
      <trkpt lat="43.40675" lon="5.47729">
        <ele>585.703</ele>
        <time>2011-11-23T11:13:18Z</time>
      </trkpt>
      <trkpt lat="43.40682" lon="5.47739">
        <ele>584.485</ele>
        <time>2011-11-23T11:13:28Z</time>
      </trkpt>
      <trkpt lat="43.40692" lon="5.47748">
        <ele>582.9</ele>
        <time>2011-11-23T11:13:38Z</time>
      </trkpt>
      <trkpt lat="43.40699" lon="5.47758">
        <ele>581.539</ele>
        <time>2011-11-23T11:13:48Z</time>
      </trkpt>
      <trkpt lat="43.40707" lon="5.47768">
        <ele>580.65</ele>
        <time>2011-11-23T11:13:58Z</time>
      </trkpt>
      <trkpt lat="43.40716" lon="5.47781">
        <ele>579.495</ele>
        <time>2011-11-23T11:14:08Z</time>
      </trkpt>
      <trkpt lat="43.40723" lon="5.47793">
        <ele>578.607</ele>
        <time>2011-11-23T11:14:18Z</time>
      </trkpt>
      <trkpt lat="43.40729" lon="5.47806">
        <ele>577.612</ele>
        <time>2011-11-23T11:14:28Z</time>
      </trkpt>
      <trkpt lat="43.40734" lon="5.4782">
        <ele>576.734</ele>
        <time>2011-11-23T11:14:38Z</time>
      </trkpt>
      <trkpt lat="43.40739" lon="5.47832">
        <ele>576.189</ele>
        <time>2011-11-23T11:14:48Z</time>
      </trkpt>
      <trkpt lat="43.4074" lon="5.47837">
        <ele>576.025</ele>
        <time>2011-11-23T11:14:58Z</time>
      </trkpt>
      <trkpt lat="43.4074" lon="5.47838">
        <ele>576.665</ele>
        <time>2011-11-23T11:15:08Z</time>
      </trkpt>
      <trkpt lat="43.40741" lon="5.47842">
        <ele>576.191</ele>
        <time>2011-11-23T11:15:18Z</time>
      </trkpt>
      <trkpt lat="43.40744" lon="5.47854">
        <ele>576.146</ele>
        <time>2011-11-23T11:15:28Z</time>
      </trkpt>
      <trkpt lat="43.40744" lon="5.47855">
        <ele>576.467</ele>
        <time>2011-11-23T11:15:38Z</time>
      </trkpt>
      <trkpt lat="43.40744" lon="5.47855">
        <ele>576.462</ele>
        <time>2011-11-23T11:15:48Z</time>
      </trkpt>
      <trkpt lat="43.40747" lon="5.47867">
        <ele>576.619</ele>
        <time>2011-11-23T11:15:58Z</time>
      </trkpt>
      <trkpt lat="43.40749" lon="5.47877">
        <ele>576.951</ele>
        <time>2011-11-23T11:16:08Z</time>
      </trkpt>
      <trkpt lat="43.40749" lon="5.47879">
        <ele>577.519</ele>
        <time>2011-11-23T11:16:18Z</time>
      </trkpt>
      <trkpt lat="43.40749" lon="5.47879">
        <ele>577.153</ele>
        <time>2011-11-23T11:16:28Z</time>
      </trkpt>
      <trkpt lat="43.4075" lon="5.47873">
        <ele>577.022</ele>
        <time>2011-11-23T11:16:38Z</time>
      </trkpt>
      <trkpt lat="43.4075" lon="5.47873">
        <ele>577.017</ele>
        <time>2011-11-23T11:16:48Z</time>
      </trkpt>
      <trkpt lat="43.40751" lon="5.47873">
        <ele>576.895</ele>
        <time>2011-11-23T11:16:58Z</time>
      </trkpt>
      <trkpt lat="43.40751" lon="5.47873">
        <ele>577.094</ele>
        <time>2011-11-23T11:17:08Z</time>
      </trkpt>
      <trkpt lat="43.40751" lon="5.47872">
        <ele>577.015</ele>
        <time>2011-11-23T11:17:18Z</time>
      </trkpt>
      <trkpt lat="43.4075" lon="5.47871">
        <ele>577.409</ele>
        <time>2011-11-23T11:17:28Z</time>
      </trkpt>
      <trkpt lat="43.4075" lon="5.47871">
        <ele>577.036</ele>
        <time>2011-11-23T11:17:38Z</time>
      </trkpt>
      <trkpt lat="43.40751" lon="5.47871">
        <ele>576.979</ele>
        <time>2011-11-23T11:17:48Z</time>
      </trkpt>
      <trkpt lat="43.40751" lon="5.47871">
        <ele>577.253</ele>
        <time>2011-11-23T11:17:58Z</time>
      </trkpt>
      <trkpt lat="43.4075" lon="5.47875">
        <ele>577.331</ele>
        <time>2011-11-23T11:18:08Z</time>
      </trkpt>
      <trkpt lat="43.4075" lon="5.47877">
        <ele>577.361</ele>
        <time>2011-11-23T11:18:18Z</time>
      </trkpt>
      <trkpt lat="43.40748" lon="5.47867">
        <ele>577.156</ele>
        <time>2011-11-23T11:18:28Z</time>
      </trkpt>
      <trkpt lat="43.40746" lon="5.47853">
        <ele>577.036</ele>
        <time>2011-11-23T11:18:38Z</time>
      </trkpt>
      <trkpt lat="43.40753" lon="5.47844">
        <ele>578.023</ele>
        <time>2011-11-23T11:18:48Z</time>
      </trkpt>
      <trkpt lat="43.4076" lon="5.47846">
        <ele>580.939</ele>
        <time>2011-11-23T11:18:58Z</time>
      </trkpt>
      <trkpt lat="43.40767" lon="5.47845">
        <ele>583.068</ele>
        <time>2011-11-23T11:19:08Z</time>
      </trkpt>
      <trkpt lat="43.40774" lon="5.47842">
        <ele>585.363</ele>
        <time>2011-11-23T11:19:18Z</time>
      </trkpt>
      <trkpt lat="43.4078" lon="5.47845">
        <ele>587.715</ele>
        <time>2011-11-23T11:19:28Z</time>
      </trkpt>
      <trkpt lat="43.40786" lon="5.47849">
        <ele>589.796</ele>
        <time>2011-11-23T11:19:38Z</time>
      </trkpt>
      <trkpt lat="43.40792" lon="5.47854">
        <ele>592.034</ele>
        <time>2011-11-23T11:19:48Z</time>
      </trkpt>
      <trkpt lat="43.40797" lon="5.47857">
        <ele>594.5</ele>
        <time>2011-11-23T11:19:58Z</time>
      </trkpt>
      <trkpt lat="43.40801" lon="5.47859">
        <ele>596.314</ele>
        <time>2011-11-23T11:20:08Z</time>
      </trkpt>
      <trkpt lat="43.40806" lon="5.47864">
        <ele>598.831</ele>
        <time>2011-11-23T11:20:18Z</time>
      </trkpt>
      <trkpt lat="43.40811" lon="5.47869">
        <ele>600.43</ele>
        <time>2011-11-23T11:20:28Z</time>
      </trkpt>
      <trkpt lat="43.40817" lon="5.47872">
        <ele>602.051</ele>
        <time>2011-11-23T11:20:38Z</time>
      </trkpt>
      <trkpt lat="43.40822" lon="5.47878">
        <ele>604.378</ele>
        <time>2011-11-23T11:20:48Z</time>
      </trkpt>
      <trkpt lat="43.4083" lon="5.47881">
        <ele>606.062</ele>
        <time>2011-11-23T11:20:58Z</time>
      </trkpt>
      <trkpt lat="43.40837" lon="5.47883">
        <ele>607.922</ele>
        <time>2011-11-23T11:21:08Z</time>
      </trkpt>
      <trkpt lat="43.40841" lon="5.47896">
        <ele>608.174</ele>
        <time>2011-11-23T11:21:18Z</time>
      </trkpt>
      <trkpt lat="43.40844" lon="5.47911">
        <ele>608.16</ele>
        <time>2011-11-23T11:21:28Z</time>
      </trkpt>
      <trkpt lat="43.40846" lon="5.47922">
        <ele>609.32</ele>
        <time>2011-11-23T11:21:38Z</time>
      </trkpt>
      <trkpt lat="43.40842" lon="5.47936">
        <ele>608.601</ele>
        <time>2011-11-23T11:21:48Z</time>
      </trkpt>
      <trkpt lat="43.40841" lon="5.47949">
        <ele>607.031</ele>
        <time>2011-11-23T11:21:58Z</time>
      </trkpt>
      <trkpt lat="43.40845" lon="5.47964">
        <ele>606.002</ele>
        <time>2011-11-23T11:22:08Z</time>
      </trkpt>
      <trkpt lat="43.40851" lon="5.4798">
        <ele>605.64</ele>
        <time>2011-11-23T11:22:18Z</time>
      </trkpt>
      <trkpt lat="43.40852" lon="5.47999">
        <ele>604.835</ele>
        <time>2011-11-23T11:22:28Z</time>
      </trkpt>
      <trkpt lat="43.4085" lon="5.48017">
        <ele>603.647</ele>
        <time>2011-11-23T11:22:38Z</time>
      </trkpt>
      <trkpt lat="43.40852" lon="5.48034">
        <ele>603.441</ele>
        <time>2011-11-23T11:22:48Z</time>
      </trkpt>
      <trkpt lat="43.40851" lon="5.48048">
        <ele>602.47</ele>
        <time>2011-11-23T11:22:58Z</time>
      </trkpt>
      <trkpt lat="43.4085" lon="5.48064">
        <ele>602.047</ele>
        <time>2011-11-23T11:23:08Z</time>
      </trkpt>
      <trkpt lat="43.4085" lon="5.48078">
        <ele>602.054</ele>
        <time>2011-11-23T11:23:18Z</time>
      </trkpt>
      <trkpt lat="43.40846" lon="5.48092">
        <ele>601.372</ele>
        <time>2011-11-23T11:23:28Z</time>
      </trkpt>
      <trkpt lat="43.40847" lon="5.4811">
        <ele>599.352</ele>
        <time>2011-11-23T11:23:38Z</time>
      </trkpt>
      <trkpt lat="43.40848" lon="5.48129">
        <ele>599.316</ele>
        <time>2011-11-23T11:23:48Z</time>
      </trkpt>
      <trkpt lat="43.40844" lon="5.48146">
        <ele>599.039</ele>
        <time>2011-11-23T11:23:58Z</time>
      </trkpt>
      <trkpt lat="43.40845" lon="5.48163">
        <ele>597.975</ele>
        <time>2011-11-23T11:24:08Z</time>
      </trkpt>
      <trkpt lat="43.40846" lon="5.4818">
        <ele>597.516</ele>
        <time>2011-11-23T11:24:18Z</time>
      </trkpt>
      <trkpt lat="43.40849" lon="5.48196">
        <ele>597.577</ele>
        <time>2011-11-23T11:24:28Z</time>
      </trkpt>
      <trkpt lat="43.40851" lon="5.48209">
        <ele>598.64</ele>
        <time>2011-11-23T11:24:38Z</time>
      </trkpt>
      <trkpt lat="43.40851" lon="5.48215">
        <ele>599.343</ele>
        <time>2011-11-23T11:24:48Z</time>
      </trkpt>
      <trkpt lat="43.40851" lon="5.48217">
        <ele>599.604</ele>
        <time>2011-11-23T11:24:58Z</time>
      </trkpt>
      <trkpt lat="43.40852" lon="5.48216">
        <ele>599.875</ele>
        <time>2011-11-23T11:25:08Z</time>
      </trkpt>
      <trkpt lat="43.40851" lon="5.48217">
        <ele>599.755</ele>
        <time>2011-11-23T11:25:18Z</time>
      </trkpt>
      <trkpt lat="43.40851" lon="5.48217">
        <ele>600.278</ele>
        <time>2011-11-23T11:25:28Z</time>
      </trkpt>
      <trkpt lat="43.40851" lon="5.48217">
        <ele>600.176</ele>
        <time>2011-11-23T11:25:38Z</time>
      </trkpt>
      <trkpt lat="43.40851" lon="5.48217">
        <ele>600.448</ele>
        <time>2011-11-23T11:25:48Z</time>
      </trkpt>
      <trkpt lat="43.40851" lon="5.48217">
        <ele>600.576</ele>
        <time>2011-11-23T11:25:58Z</time>
      </trkpt>
      <trkpt lat="43.40851" lon="5.48217">
        <ele>600.36</ele>
        <time>2011-11-23T11:26:08Z</time>
      </trkpt>
      <trkpt lat="43.4085" lon="5.48217">
        <ele>600.27</ele>
        <time>2011-11-23T11:26:18Z</time>
      </trkpt>
      <trkpt lat="43.4085" lon="5.48217">
        <ele>600.416</ele>
        <time>2011-11-23T11:26:28Z</time>
      </trkpt>
      <trkpt lat="43.40851" lon="5.48217">
        <ele>600.322</ele>
        <time>2011-11-23T11:26:38Z</time>
      </trkpt>
      <trkpt lat="43.40851" lon="5.48218">
        <ele>600.273</ele>
        <time>2011-11-23T11:26:48Z</time>
      </trkpt>
      <trkpt lat="43.40851" lon="5.48218">
        <ele>600.48</ele>
        <time>2011-11-23T11:26:58Z</time>
      </trkpt>
      <trkpt lat="43.4085" lon="5.48217">
        <ele>600.258</ele>
        <time>2011-11-23T11:27:08Z</time>
      </trkpt>
      <trkpt lat="43.4085" lon="5.48219">
        <ele>599.903</ele>
        <time>2011-11-23T11:27:18Z</time>
      </trkpt>
      <trkpt lat="43.40851" lon="5.48221">
        <ele>600.118</ele>
        <time>2011-11-23T11:27:28Z</time>
      </trkpt>
      <trkpt lat="43.40851" lon="5.48221">
        <ele>599.75</ele>
        <time>2011-11-23T11:27:38Z</time>
      </trkpt>
      <trkpt lat="43.40851" lon="5.4822">
        <ele>600.001</ele>
        <time>2011-11-23T11:27:48Z</time>
      </trkpt>
      <trkpt lat="43.40851" lon="5.48221">
        <ele>600.401</ele>
        <time>2011-11-23T11:27:58Z</time>
      </trkpt>
      <trkpt lat="43.40851" lon="5.48219">
        <ele>600.207</ele>
        <time>2011-11-23T11:28:08Z</time>
      </trkpt>
      <trkpt lat="43.40851" lon="5.48219">
        <ele>600.1</ele>
        <time>2011-11-23T11:28:18Z</time>
      </trkpt>
      <trkpt lat="43.40851" lon="5.48219">
        <ele>600.29</ele>
        <time>2011-11-23T11:28:28Z</time>
      </trkpt>
      <trkpt lat="43.40851" lon="5.48219">
        <ele>600.123</ele>
        <time>2011-11-23T11:28:38Z</time>
      </trkpt>
      <trkpt lat="43.4085" lon="5.4822">
        <ele>600.274</ele>
        <time>2011-11-23T11:28:48Z</time>
      </trkpt>
      <trkpt lat="43.40852" lon="5.48214">
        <ele>600.267</ele>
        <time>2011-11-23T11:28:58Z</time>
      </trkpt>
      <trkpt lat="43.40849" lon="5.48205">
        <ele>598.913</ele>
        <time>2011-11-23T11:29:08Z</time>
      </trkpt>
      <trkpt lat="43.40846" lon="5.48195">
        <ele>597.644</ele>
        <time>2011-11-23T11:29:18Z</time>
      </trkpt>
      <trkpt lat="43.40842" lon="5.48183">
        <ele>597.401</ele>
        <time>2011-11-23T11:29:28Z</time>
      </trkpt>
      <trkpt lat="43.40849" lon="5.48173">
        <ele>597.733</ele>
        <time>2011-11-23T11:29:38Z</time>
      </trkpt>
      <trkpt lat="43.40856" lon="5.48169">
        <ele>597.845</ele>
        <time>2011-11-23T11:29:48Z</time>
      </trkpt>
      <trkpt lat="43.40855" lon="5.48168">
        <ele>598.15</ele>
        <time>2011-11-23T11:29:58Z</time>
      </trkpt>
      <trkpt lat="43.40852" lon="5.48159">
        <ele>598.694</ele>
        <time>2011-11-23T11:30:08Z</time>
      </trkpt>
      <trkpt lat="43.4085" lon="5.48156">
        <ele>598.969</ele>
        <time>2011-11-23T11:30:18Z</time>
      </trkpt>
      <trkpt lat="43.4085" lon="5.48157">
        <ele>598.888</ele>
        <time>2011-11-23T11:30:28Z</time>
      </trkpt>
      <trkpt lat="43.40851" lon="5.48156">
        <ele>599.156</ele>
        <time>2011-11-23T11:30:38Z</time>
      </trkpt>
      <trkpt lat="43.40852" lon="5.48154">
        <ele>599.565</ele>
        <time>2011-11-23T11:30:48Z</time>
      </trkpt>
      <trkpt lat="43.40852" lon="5.48153">
        <ele>599.191</ele>
        <time>2011-11-23T11:30:58Z</time>
      </trkpt>
      <trkpt lat="43.40852" lon="5.48153">
        <ele>599.828</ele>
        <time>2011-11-23T11:31:08Z</time>
      </trkpt>
      <trkpt lat="43.40852" lon="5.48153">
        <ele>600.034</ele>
        <time>2011-11-23T11:31:18Z</time>
      </trkpt>
      <trkpt lat="43.40852" lon="5.48153">
        <ele>599.785</ele>
        <time>2011-11-23T11:31:28Z</time>
      </trkpt>
      <trkpt lat="43.40851" lon="5.48154">
        <ele>599.093</ele>
        <time>2011-11-23T11:31:38Z</time>
      </trkpt>
      <trkpt lat="43.40851" lon="5.48154">
        <ele>599.374</ele>
        <time>2011-11-23T11:31:48Z</time>
      </trkpt>
      <trkpt lat="43.40851" lon="5.48154">
        <ele>599.458</ele>
        <time>2011-11-23T11:31:58Z</time>
      </trkpt>
      <trkpt lat="43.40851" lon="5.48154">
        <ele>599.634</ele>
        <time>2011-11-23T11:32:08Z</time>
      </trkpt>
      <trkpt lat="43.40851" lon="5.48154">
        <ele>599.229</ele>
        <time>2011-11-23T11:32:18Z</time>
      </trkpt>
      <trkpt lat="43.40851" lon="5.48154">
        <ele>598.769</ele>
        <time>2011-11-23T11:32:28Z</time>
      </trkpt>
      <trkpt lat="43.40851" lon="5.48154">
        <ele>599.367</ele>
        <time>2011-11-23T11:32:38Z</time>
      </trkpt>
      <trkpt lat="43.40851" lon="5.48154">
        <ele>599.368</ele>
        <time>2011-11-23T11:32:48Z</time>
      </trkpt>
      <trkpt lat="43.40851" lon="5.48153">
        <ele>599.073</ele>
        <time>2011-11-23T11:32:58Z</time>
      </trkpt>
      <trkpt lat="43.40851" lon="5.48153">
        <ele>599.724</ele>
        <time>2011-11-23T11:33:08Z</time>
      </trkpt>
      <trkpt lat="43.40851" lon="5.48153">
        <ele>599.529</ele>
        <time>2011-11-23T11:33:18Z</time>
      </trkpt>
      <trkpt lat="43.40851" lon="5.48153">
        <ele>599.18</ele>
        <time>2011-11-23T11:33:28Z</time>
      </trkpt>
      <trkpt lat="43.40851" lon="5.48153">
        <ele>599.6</ele>
        <time>2011-11-23T11:33:38Z</time>
      </trkpt>
      <trkpt lat="43.40851" lon="5.48153">
        <ele>598.982</ele>
        <time>2011-11-23T11:33:48Z</time>
      </trkpt>
      <trkpt lat="43.40851" lon="5.48153">
        <ele>599.249</ele>
        <time>2011-11-23T11:33:58Z</time>
      </trkpt>
      <trkpt lat="43.40851" lon="5.48153">
        <ele>599.482</ele>
        <time>2011-11-23T11:34:08Z</time>
      </trkpt>
      <trkpt lat="43.40851" lon="5.48153">
        <ele>599.554</ele>
        <time>2011-11-23T11:34:18Z</time>
      </trkpt>
      <trkpt lat="43.40851" lon="5.48154">
        <ele>599.585</ele>
        <time>2011-11-23T11:34:28Z</time>
      </trkpt>
      <trkpt lat="43.40851" lon="5.48154">
        <ele>599.524</ele>
        <time>2011-11-23T11:34:38Z</time>
      </trkpt>
      <trkpt lat="43.40851" lon="5.48154">
        <ele>599.73</ele>
        <time>2011-11-23T11:34:48Z</time>
      </trkpt>
      <trkpt lat="43.40851" lon="5.48154">
        <ele>599.806</ele>
        <time>2011-11-23T11:34:58Z</time>
      </trkpt>
      <trkpt lat="43.40851" lon="5.48154">
        <ele>599.652</ele>
        <time>2011-11-23T11:35:08Z</time>
      </trkpt>
      <trkpt lat="43.40851" lon="5.48154">
        <ele>599.569</ele>
        <time>2011-11-23T11:35:18Z</time>
      </trkpt>
      <trkpt lat="43.40851" lon="5.48154">
        <ele>599.682</ele>
        <time>2011-11-23T11:35:28Z</time>
      </trkpt>
      <trkpt lat="43.40851" lon="5.48154">
        <ele>599.837</ele>
        <time>2011-11-23T11:35:38Z</time>
      </trkpt>
      <trkpt lat="43.40851" lon="5.48154">
        <ele>599.711</ele>
        <time>2011-11-23T11:35:48Z</time>
      </trkpt>
      <trkpt lat="43.40851" lon="5.48154">
        <ele>599.596</ele>
        <time>2011-11-23T11:35:58Z</time>
      </trkpt>
      <trkpt lat="43.40851" lon="5.48154">
        <ele>599.825</ele>
        <time>2011-11-23T11:36:08Z</time>
      </trkpt>
      <trkpt lat="43.40851" lon="5.48154">
        <ele>600.193</ele>
        <time>2011-11-23T11:36:18Z</time>
      </trkpt>
      <trkpt lat="43.40851" lon="5.48154">
        <ele>599.778</ele>
        <time>2011-11-23T11:36:28Z</time>
      </trkpt>
      <trkpt lat="43.40851" lon="5.48154">
        <ele>600.154</ele>
        <time>2011-11-23T11:36:38Z</time>
      </trkpt>
      <trkpt lat="43.40851" lon="5.48154">
        <ele>599.935</ele>
        <time>2011-11-23T11:36:48Z</time>
      </trkpt>
      <trkpt lat="43.40851" lon="5.48154">
        <ele>600.208</ele>
        <time>2011-11-23T11:36:58Z</time>
      </trkpt>
      <trkpt lat="43.40851" lon="5.48154">
        <ele>600.055</ele>
        <time>2011-11-23T11:37:08Z</time>
      </trkpt>
      <trkpt lat="43.40851" lon="5.48154">
        <ele>600.201</ele>
        <time>2011-11-23T11:37:18Z</time>
      </trkpt>
      <trkpt lat="43.40851" lon="5.48154">
        <ele>599.945</ele>
        <time>2011-11-23T11:37:28Z</time>
      </trkpt>
      <trkpt lat="43.40851" lon="5.48154">
        <ele>600.188</ele>
        <time>2011-11-23T11:37:38Z</time>
      </trkpt>
      <trkpt lat="43.40851" lon="5.48154">
        <ele>600.122</ele>
        <time>2011-11-23T11:37:48Z</time>
      </trkpt>
      <trkpt lat="43.40851" lon="5.48154">
        <ele>600.085</ele>
        <time>2011-11-23T11:37:58Z</time>
      </trkpt>
      <trkpt lat="43.40851" lon="5.48154">
        <ele>600.47</ele>
        <time>2011-11-23T11:38:08Z</time>
      </trkpt>
      <trkpt lat="43.40851" lon="5.48154">
        <ele>600.535</ele>
        <time>2011-11-23T11:38:18Z</time>
      </trkpt>
      <trkpt lat="43.40851" lon="5.48154">
        <ele>599.902</ele>
        <time>2011-11-23T11:38:28Z</time>
      </trkpt>
      <trkpt lat="43.40851" lon="5.48154">
        <ele>600.084</ele>
        <time>2011-11-23T11:38:38Z</time>
      </trkpt>
      <trkpt lat="43.40851" lon="5.48154">
        <ele>600.373</ele>
        <time>2011-11-23T11:38:48Z</time>
      </trkpt>
      <trkpt lat="43.40851" lon="5.48154">
        <ele>600.217</ele>
        <time>2011-11-23T11:38:58Z</time>
      </trkpt>
      <trkpt lat="43.40851" lon="5.48154">
        <ele>600.134</ele>
        <time>2011-11-23T11:39:08Z</time>
      </trkpt>
      <trkpt lat="43.40851" lon="5.48154">
        <ele>600.015</ele>
        <time>2011-11-23T11:39:18Z</time>
      </trkpt>
      <trkpt lat="43.40851" lon="5.48154">
        <ele>600.292</ele>
        <time>2011-11-23T11:39:28Z</time>
      </trkpt>
      <trkpt lat="43.40851" lon="5.48154">
        <ele>600.019</ele>
        <time>2011-11-23T11:39:38Z</time>
      </trkpt>
      <trkpt lat="43.40851" lon="5.48154">
        <ele>600.181</ele>
        <time>2011-11-23T11:39:48Z</time>
      </trkpt>
      <trkpt lat="43.40851" lon="5.48154">
        <ele>600.184</ele>
        <time>2011-11-23T11:39:58Z</time>
      </trkpt>
      <trkpt lat="43.40851" lon="5.48154">
        <ele>599.761</ele>
        <time>2011-11-23T11:40:08Z</time>
      </trkpt>
      <trkpt lat="43.40851" lon="5.48154">
        <ele>599.803</ele>
        <time>2011-11-23T11:40:18Z</time>
      </trkpt>
      <trkpt lat="43.40851" lon="5.48154">
        <ele>600.108</ele>
        <time>2011-11-23T11:40:28Z</time>
      </trkpt>
      <trkpt lat="43.40851" lon="5.48154">
        <ele>600.054</ele>
        <time>2011-11-23T11:40:38Z</time>
      </trkpt>
      <trkpt lat="43.40851" lon="5.48154">
        <ele>599.912</ele>
        <time>2011-11-23T11:40:48Z</time>
      </trkpt>
      <trkpt lat="43.40851" lon="5.48154">
        <ele>599.749</ele>
        <time>2011-11-23T11:40:58Z</time>
      </trkpt>
      <trkpt lat="43.40851" lon="5.48154">
        <ele>599.595</ele>
        <time>2011-11-23T11:41:08Z</time>
      </trkpt>
      <trkpt lat="43.40851" lon="5.48154">
        <ele>599.94</ele>
        <time>2011-11-23T11:41:18Z</time>
      </trkpt>
      <trkpt lat="43.40851" lon="5.48154">
        <ele>599.789</ele>
        <time>2011-11-23T11:41:28Z</time>
      </trkpt>
      <trkpt lat="43.40851" lon="5.48154">
        <ele>599.915</ele>
        <time>2011-11-23T11:41:38Z</time>
      </trkpt>
      <trkpt lat="43.40851" lon="5.48155">
        <ele>600.099</ele>
        <time>2011-11-23T11:41:48Z</time>
      </trkpt>
      <trkpt lat="43.40851" lon="5.48155">
        <ele>600.133</ele>
        <time>2011-11-23T11:41:58Z</time>
      </trkpt>
      <trkpt lat="43.40851" lon="5.48155">
        <ele>599.857</ele>
        <time>2011-11-23T11:42:08Z</time>
      </trkpt>
      <trkpt lat="43.40851" lon="5.48155">
        <ele>599.682</ele>
        <time>2011-11-23T11:42:18Z</time>
      </trkpt>
      <trkpt lat="43.40851" lon="5.48155">
        <ele>599.834</ele>
        <time>2011-11-23T11:42:28Z</time>
      </trkpt>
      <trkpt lat="43.40851" lon="5.48155">
        <ele>600.024</ele>
        <time>2011-11-23T11:42:38Z</time>
      </trkpt>
      <trkpt lat="43.40851" lon="5.48155">
        <ele>600.159</ele>
        <time>2011-11-23T11:42:48Z</time>
      </trkpt>
      <trkpt lat="43.40851" lon="5.48155">
        <ele>599.604</ele>
        <time>2011-11-23T11:42:58Z</time>
      </trkpt>
      <trkpt lat="43.40851" lon="5.48155">
        <ele>599.811</ele>
        <time>2011-11-23T11:43:08Z</time>
      </trkpt>
      <trkpt lat="43.40851" lon="5.48155">
        <ele>599.93</ele>
        <time>2011-11-23T11:43:18Z</time>
      </trkpt>
      <trkpt lat="43.40851" lon="5.48155">
        <ele>599.654</ele>
        <time>2011-11-23T11:43:28Z</time>
      </trkpt>
      <trkpt lat="43.40851" lon="5.48155">
        <ele>599.565</ele>
        <time>2011-11-23T11:43:38Z</time>
      </trkpt>
      <trkpt lat="43.40851" lon="5.48155">
        <ele>599.577</ele>
        <time>2011-11-23T11:43:48Z</time>
      </trkpt>
      <trkpt lat="43.40851" lon="5.48155">
        <ele>599.578</ele>
        <time>2011-11-23T11:43:58Z</time>
      </trkpt>
      <trkpt lat="43.40851" lon="5.48155">
        <ele>599.272</ele>
        <time>2011-11-23T11:44:08Z</time>
      </trkpt>
      <trkpt lat="43.40851" lon="5.48155">
        <ele>599.458</ele>
        <time>2011-11-23T11:44:18Z</time>
      </trkpt>
      <trkpt lat="43.40851" lon="5.48155">
        <ele>599.613</ele>
        <time>2011-11-23T11:44:28Z</time>
      </trkpt>
      <trkpt lat="43.40851" lon="5.48155">
        <ele>599.493</ele>
        <time>2011-11-23T11:44:38Z</time>
      </trkpt>
      <trkpt lat="43.40851" lon="5.48155">
        <ele>599.345</ele>
        <time>2011-11-23T11:44:48Z</time>
      </trkpt>
      <trkpt lat="43.40851" lon="5.48155">
        <ele>599.493</ele>
        <time>2011-11-23T11:44:58Z</time>
      </trkpt>
      <trkpt lat="43.40851" lon="5.48155">
        <ele>599.162</ele>
        <time>2011-11-23T11:45:08Z</time>
      </trkpt>
      <trkpt lat="43.40851" lon="5.48155">
        <ele>599.347</ele>
        <time>2011-11-23T11:45:18Z</time>
      </trkpt>
      <trkpt lat="43.40851" lon="5.48155">
        <ele>599.305</ele>
        <time>2011-11-23T11:45:28Z</time>
      </trkpt>
      <trkpt lat="43.40851" lon="5.48155">
        <ele>599.531</ele>
        <time>2011-11-23T11:45:38Z</time>
      </trkpt>
      <trkpt lat="43.40851" lon="5.48155">
        <ele>599.678</ele>
        <time>2011-11-23T11:45:48Z</time>
      </trkpt>
      <trkpt lat="43.40851" lon="5.48155">
        <ele>599.452</ele>
        <time>2011-11-23T11:45:58Z</time>
      </trkpt>
      <trkpt lat="43.40851" lon="5.48155">
        <ele>599.865</ele>
        <time>2011-11-23T11:46:08Z</time>
      </trkpt>
      <trkpt lat="43.40851" lon="5.48155">
        <ele>599.448</ele>
        <time>2011-11-23T11:46:18Z</time>
      </trkpt>
      <trkpt lat="43.40851" lon="5.48155">
        <ele>599.447</ele>
        <time>2011-11-23T11:46:28Z</time>
      </trkpt>
      <trkpt lat="43.40851" lon="5.48155">
        <ele>599.483</ele>
        <time>2011-11-23T11:46:38Z</time>
      </trkpt>
      <trkpt lat="43.40851" lon="5.48155">
        <ele>599.638</ele>
        <time>2011-11-23T11:46:48Z</time>
      </trkpt>
      <trkpt lat="43.40851" lon="5.48155">
        <ele>599.595</ele>
        <time>2011-11-23T11:46:58Z</time>
      </trkpt>
      <trkpt lat="43.40851" lon="5.48155">
        <ele>599.681</ele>
        <time>2011-11-23T11:47:08Z</time>
      </trkpt>
      <trkpt lat="43.40851" lon="5.48155">
        <ele>599.563</ele>
        <time>2011-11-23T11:47:18Z</time>
      </trkpt>
      <trkpt lat="43.40851" lon="5.48155">
        <ele>599.842</ele>
        <time>2011-11-23T11:47:28Z</time>
      </trkpt>
      <trkpt lat="43.40851" lon="5.48155">
        <ele>599.703</ele>
        <time>2011-11-23T11:47:38Z</time>
      </trkpt>
      <trkpt lat="43.40851" lon="5.48155">
        <ele>599.517</ele>
        <time>2011-11-23T11:47:48Z</time>
      </trkpt>
      <trkpt lat="43.40851" lon="5.48155">
        <ele>599.592</ele>
        <time>2011-11-23T11:47:58Z</time>
      </trkpt>
      <trkpt lat="43.40851" lon="5.48155">
        <ele>599.628</ele>
        <time>2011-11-23T11:48:08Z</time>
      </trkpt>
      <trkpt lat="43.40851" lon="5.48155">
        <ele>599.664</ele>
        <time>2011-11-23T11:48:18Z</time>
      </trkpt>
      <trkpt lat="43.40851" lon="5.48155">
        <ele>599.395</ele>
        <time>2011-11-23T11:48:28Z</time>
      </trkpt>
      <trkpt lat="43.40851" lon="5.48155">
        <ele>599.428</ele>
        <time>2011-11-23T11:48:38Z</time>
      </trkpt>
      <trkpt lat="43.40851" lon="5.48155">
        <ele>599.694</ele>
        <time>2011-11-23T11:48:48Z</time>
      </trkpt>
      <trkpt lat="43.40851" lon="5.48155">
        <ele>599.241</ele>
        <time>2011-11-23T11:48:58Z</time>
      </trkpt>
      <trkpt lat="43.40851" lon="5.48155">
        <ele>599.471</ele>
        <time>2011-11-23T11:49:08Z</time>
      </trkpt>
      <trkpt lat="43.40851" lon="5.48155">
        <ele>599.394</ele>
        <time>2011-11-23T11:49:18Z</time>
      </trkpt>
      <trkpt lat="43.40851" lon="5.48155">
        <ele>599.578</ele>
        <time>2011-11-23T11:49:28Z</time>
      </trkpt>
      <trkpt lat="43.40851" lon="5.48155">
        <ele>599.822</ele>
        <time>2011-11-23T11:49:38Z</time>
      </trkpt>
      <trkpt lat="43.40851" lon="5.48155">
        <ele>599.66</ele>
        <time>2011-11-23T11:49:48Z</time>
      </trkpt>
      <trkpt lat="43.40851" lon="5.48155">
        <ele>599.502</ele>
        <time>2011-11-23T11:49:58Z</time>
      </trkpt>
      <trkpt lat="43.40851" lon="5.48155">
        <ele>599.729</ele>
        <time>2011-11-23T11:50:08Z</time>
      </trkpt>
      <trkpt lat="43.40851" lon="5.48155">
        <ele>599.43</ele>
        <time>2011-11-23T11:50:18Z</time>
      </trkpt>
      <trkpt lat="43.40851" lon="5.48155">
        <ele>599.538</ele>
        <time>2011-11-23T11:50:28Z</time>
      </trkpt>
      <trkpt lat="43.40851" lon="5.48155">
        <ele>599.387</ele>
        <time>2011-11-23T11:50:38Z</time>
      </trkpt>
      <trkpt lat="43.40851" lon="5.48155">
        <ele>599.237</ele>
        <time>2011-11-23T11:50:48Z</time>
      </trkpt>
      <trkpt lat="43.40851" lon="5.48155">
        <ele>599.388</ele>
        <time>2011-11-23T11:50:58Z</time>
      </trkpt>
      <trkpt lat="43.40851" lon="5.48155">
        <ele>599.376</ele>
        <time>2011-11-23T11:51:08Z</time>
      </trkpt>
      <trkpt lat="43.40851" lon="5.48155">
        <ele>599.239</ele>
        <time>2011-11-23T11:51:18Z</time>
      </trkpt>
      <trkpt lat="43.40851" lon="5.48155">
        <ele>599.425</ele>
        <time>2011-11-23T11:51:28Z</time>
      </trkpt>
      <trkpt lat="43.40851" lon="5.48155">
        <ele>599.544</ele>
        <time>2011-11-23T11:51:38Z</time>
      </trkpt>
      <trkpt lat="43.40851" lon="5.48155">
        <ele>599.465</ele>
        <time>2011-11-23T11:51:48Z</time>
      </trkpt>
      <trkpt lat="43.40851" lon="5.48155">
        <ele>599.318</ele>
        <time>2011-11-23T11:51:58Z</time>
      </trkpt>
      <trkpt lat="43.40851" lon="5.48155">
        <ele>599.588</ele>
        <time>2011-11-23T11:52:08Z</time>
      </trkpt>
      <trkpt lat="43.40851" lon="5.48155">
        <ele>599.439</ele>
        <time>2011-11-23T11:52:18Z</time>
      </trkpt>
      <trkpt lat="43.40851" lon="5.48155">
        <ele>599.395</ele>
        <time>2011-11-23T11:52:28Z</time>
      </trkpt>
      <trkpt lat="43.40851" lon="5.48155">
        <ele>599.354</ele>
        <time>2011-11-23T11:52:38Z</time>
      </trkpt>
      <trkpt lat="43.40851" lon="5.48155">
        <ele>599.363</ele>
        <time>2011-11-23T11:52:48Z</time>
      </trkpt>
      <trkpt lat="43.40851" lon="5.48155">
        <ele>599.623</ele>
        <time>2011-11-23T11:52:58Z</time>
      </trkpt>
      <trkpt lat="43.40851" lon="5.48155">
        <ele>599.211</ele>
        <time>2011-11-23T11:53:08Z</time>
      </trkpt>
      <trkpt lat="43.40851" lon="5.48155">
        <ele>599.212</ele>
        <time>2011-11-23T11:53:18Z</time>
      </trkpt>
      <trkpt lat="43.40851" lon="5.48155">
        <ele>599.099</ele>
        <time>2011-11-23T11:53:28Z</time>
      </trkpt>
      <trkpt lat="43.40851" lon="5.48155">
        <ele>599.518</ele>
        <time>2011-11-23T11:53:38Z</time>
      </trkpt>
      <trkpt lat="43.40851" lon="5.48155">
        <ele>599.477</ele>
        <time>2011-11-23T11:53:48Z</time>
      </trkpt>
      <trkpt lat="43.40851" lon="5.48155">
        <ele>599.556</ele>
        <time>2011-11-23T11:53:58Z</time>
      </trkpt>
      <trkpt lat="43.40851" lon="5.48155">
        <ele>599.403</ele>
        <time>2011-11-23T11:54:08Z</time>
      </trkpt>
      <trkpt lat="43.40851" lon="5.48155">
        <ele>599.488</ele>
        <time>2011-11-23T11:54:18Z</time>
      </trkpt>
      <trkpt lat="43.40851" lon="5.48155">
        <ele>599.562</ele>
        <time>2011-11-23T11:54:28Z</time>
      </trkpt>
      <trkpt lat="43.40851" lon="5.48155">
        <ele>599.287</ele>
        <time>2011-11-23T11:54:38Z</time>
      </trkpt>
      <trkpt lat="43.40851" lon="5.48155">
        <ele>599.367</ele>
        <time>2011-11-23T11:54:48Z</time>
      </trkpt>
      <trkpt lat="43.40851" lon="5.48155">
        <ele>599.628</ele>
        <time>2011-11-23T11:54:58Z</time>
      </trkpt>
      <trkpt lat="43.40851" lon="5.48155">
        <ele>599.404</ele>
        <time>2011-11-23T11:55:08Z</time>
      </trkpt>
      <trkpt lat="43.40851" lon="5.48155">
        <ele>599.562</ele>
        <time>2011-11-23T11:55:18Z</time>
      </trkpt>
      <trkpt lat="43.40851" lon="5.48155">
        <ele>599.518</ele>
        <time>2011-11-23T11:55:28Z</time>
      </trkpt>
      <trkpt lat="43.40851" lon="5.48155">
        <ele>599.32</ele>
        <time>2011-11-23T11:55:38Z</time>
      </trkpt>
      <trkpt lat="43.40851" lon="5.48155">
        <ele>599.432</ele>
        <time>2011-11-23T11:55:48Z</time>
      </trkpt>
      <trkpt lat="43.40851" lon="5.48155">
        <ele>599.248</ele>
        <time>2011-11-23T11:55:58Z</time>
      </trkpt>
      <trkpt lat="43.40851" lon="5.48155">
        <ele>599.257</ele>
        <time>2011-11-23T11:56:08Z</time>
      </trkpt>
      <trkpt lat="43.40851" lon="5.48155">
        <ele>599.144</ele>
        <time>2011-11-23T11:56:18Z</time>
      </trkpt>
      <trkpt lat="43.40851" lon="5.48155">
        <ele>599.336</ele>
        <time>2011-11-23T11:56:28Z</time>
      </trkpt>
      <trkpt lat="43.40851" lon="5.48155">
        <ele>599.636</ele>
        <time>2011-11-23T11:56:38Z</time>
      </trkpt>
      <trkpt lat="43.40851" lon="5.48155">
        <ele>599.636</ele>
        <time>2011-11-23T11:56:48Z</time>
      </trkpt>
      <trkpt lat="43.40851" lon="5.48155">
        <ele>599.411</ele>
        <time>2011-11-23T11:56:58Z</time>
      </trkpt>
      <trkpt lat="43.40851" lon="5.48155">
        <ele>599.467</ele>
        <time>2011-11-23T11:57:08Z</time>
      </trkpt>
      <trkpt lat="43.40851" lon="5.48155">
        <ele>598.922</ele>
        <time>2011-11-23T11:57:18Z</time>
      </trkpt>
      <trkpt lat="43.40851" lon="5.48155">
        <ele>599.298</ele>
        <time>2011-11-23T11:57:28Z</time>
      </trkpt>
      <trkpt lat="43.40851" lon="5.48155">
        <ele>599.186</ele>
        <time>2011-11-23T11:57:38Z</time>
      </trkpt>
      <trkpt lat="43.40851" lon="5.48155">
        <ele>599.381</ele>
        <time>2011-11-23T11:57:48Z</time>
      </trkpt>
      <trkpt lat="43.40851" lon="5.48155">
        <ele>599.074</ele>
        <time>2011-11-23T11:57:58Z</time>
      </trkpt>
      <trkpt lat="43.40851" lon="5.48155">
        <ele>599.079</ele>
        <time>2011-11-23T11:58:08Z</time>
      </trkpt>
      <trkpt lat="43.40851" lon="5.48155">
        <ele>598.819</ele>
        <time>2011-11-23T11:58:18Z</time>
      </trkpt>
      <trkpt lat="43.40851" lon="5.48155">
        <ele>598.951</ele>
        <time>2011-11-23T11:58:28Z</time>
      </trkpt>
      <trkpt lat="43.40851" lon="5.48155">
        <ele>599.049</ele>
        <time>2011-11-23T11:58:38Z</time>
      </trkpt>
      <trkpt lat="43.40851" lon="5.48155">
        <ele>599.089</ele>
        <time>2011-11-23T11:58:48Z</time>
      </trkpt>
      <trkpt lat="43.40851" lon="5.48155">
        <ele>599.282</ele>
        <time>2011-11-23T11:58:58Z</time>
      </trkpt>
      <trkpt lat="43.40851" lon="5.48155">
        <ele>598.936</ele>
        <time>2011-11-23T11:59:08Z</time>
      </trkpt>
      <trkpt lat="43.40851" lon="5.48155">
        <ele>599.398</ele>
        <time>2011-11-23T11:59:18Z</time>
      </trkpt>
      <trkpt lat="43.40851" lon="5.48155">
        <ele>599.369</ele>
        <time>2011-11-23T11:59:28Z</time>
      </trkpt>
      <trkpt lat="43.40851" lon="5.48155">
        <ele>599.37</ele>
        <time>2011-11-23T11:59:38Z</time>
      </trkpt>
      <trkpt lat="43.40851" lon="5.48155">
        <ele>599.296</ele>
        <time>2011-11-23T11:59:48Z</time>
      </trkpt>
      <trkpt lat="43.40851" lon="5.48155">
        <ele>599.097</ele>
        <time>2011-11-23T11:59:58Z</time>
      </trkpt>
      <trkpt lat="43.40851" lon="5.48155">
        <ele>599.151</ele>
        <time>2011-11-23T12:00:08Z</time>
      </trkpt>
      <trkpt lat="43.40851" lon="5.48155">
        <ele>599.262</ele>
        <time>2011-11-23T12:00:18Z</time>
      </trkpt>
      <trkpt lat="43.40851" lon="5.48155">
        <ele>599.306</ele>
        <time>2011-11-23T12:00:28Z</time>
      </trkpt>
      <trkpt lat="43.40851" lon="5.48155">
        <ele>599.229</ele>
        <time>2011-11-23T12:00:38Z</time>
      </trkpt>
      <trkpt lat="43.40851" lon="5.48155">
        <ele>599.345</ele>
        <time>2011-11-23T12:00:48Z</time>
      </trkpt>
      <trkpt lat="43.40851" lon="5.48155">
        <ele>599.313</ele>
        <time>2011-11-23T12:00:58Z</time>
      </trkpt>
      <trkpt lat="43.40851" lon="5.48155">
        <ele>599.202</ele>
        <time>2011-11-23T12:01:08Z</time>
      </trkpt>
      <trkpt lat="43.40851" lon="5.48155">
        <ele>599.204</ele>
        <time>2011-11-23T12:01:18Z</time>
      </trkpt>
      <trkpt lat="43.40851" lon="5.48155">
        <ele>599.015</ele>
        <time>2011-11-23T12:01:28Z</time>
      </trkpt>
      <trkpt lat="43.40851" lon="5.48155">
        <ele>599.398</ele>
        <time>2011-11-23T12:01:38Z</time>
      </trkpt>
      <trkpt lat="43.40851" lon="5.48155">
        <ele>599.036</ele>
        <time>2011-11-23T12:01:48Z</time>
      </trkpt>
      <trkpt lat="43.40851" lon="5.48155">
        <ele>599.138</ele>
        <time>2011-11-23T12:01:58Z</time>
      </trkpt>
      <trkpt lat="43.40851" lon="5.48155">
        <ele>599.286</ele>
        <time>2011-11-23T12:02:08Z</time>
      </trkpt>
      <trkpt lat="43.40851" lon="5.48155">
        <ele>599.244</ele>
        <time>2011-11-23T12:02:18Z</time>
      </trkpt>
      <trkpt lat="43.40851" lon="5.48155">
        <ele>599.246</ele>
        <time>2011-11-23T12:02:28Z</time>
      </trkpt>
      <trkpt lat="43.40851" lon="5.48155">
        <ele>599.37</ele>
        <time>2011-11-23T12:02:38Z</time>
      </trkpt>
      <trkpt lat="43.40851" lon="5.48155">
        <ele>599.042</ele>
        <time>2011-11-23T12:02:48Z</time>
      </trkpt>
      <trkpt lat="43.40851" lon="5.48155">
        <ele>599.032</ele>
        <time>2011-11-23T12:02:58Z</time>
      </trkpt>
      <trkpt lat="43.40851" lon="5.48155">
        <ele>599.186</ele>
        <time>2011-11-23T12:03:08Z</time>
      </trkpt>
      <trkpt lat="43.40851" lon="5.48155">
        <ele>599.231</ele>
        <time>2011-11-23T12:03:18Z</time>
      </trkpt>
      <trkpt lat="43.40851" lon="5.48155">
        <ele>599.162</ele>
        <time>2011-11-23T12:03:28Z</time>
      </trkpt>
      <trkpt lat="43.40851" lon="5.48154">
        <ele>599.108</ele>
        <time>2011-11-23T12:03:38Z</time>
      </trkpt>
      <trkpt lat="43.40851" lon="5.48154">
        <ele>599.198</ele>
        <time>2011-11-23T12:03:48Z</time>
      </trkpt>
      <trkpt lat="43.40851" lon="5.48154">
        <ele>599.031</ele>
        <time>2011-11-23T12:03:58Z</time>
      </trkpt>
      <trkpt lat="43.40851" lon="5.48154">
        <ele>599.622</ele>
        <time>2011-11-23T12:04:08Z</time>
      </trkpt>
      <trkpt lat="43.40851" lon="5.48154">
        <ele>599.354</ele>
        <time>2011-11-23T12:04:18Z</time>
      </trkpt>
      <trkpt lat="43.40851" lon="5.48154">
        <ele>599.115</ele>
        <time>2011-11-23T12:04:28Z</time>
      </trkpt>
      <trkpt lat="43.40851" lon="5.48154">
        <ele>599.385</ele>
        <time>2011-11-23T12:04:38Z</time>
      </trkpt>
      <trkpt lat="43.40851" lon="5.48154">
        <ele>599.384</ele>
        <time>2011-11-23T12:04:48Z</time>
      </trkpt>
      <trkpt lat="43.40851" lon="5.48154">
        <ele>599.115</ele>
        <time>2011-11-23T12:04:58Z</time>
      </trkpt>
      <trkpt lat="43.40852" lon="5.48155">
        <ele>599.265</ele>
        <time>2011-11-23T12:05:08Z</time>
      </trkpt>
      <trkpt lat="43.40852" lon="5.48155">
        <ele>599.112</ele>
        <time>2011-11-23T12:05:18Z</time>
      </trkpt>
      <trkpt lat="43.40852" lon="5.48155">
        <ele>599.416</ele>
        <time>2011-11-23T12:05:28Z</time>
      </trkpt>
      <trkpt lat="43.40852" lon="5.48155">
        <ele>599.437</ele>
        <time>2011-11-23T12:05:38Z</time>
      </trkpt>
      <trkpt lat="43.40852" lon="5.48155">
        <ele>598.917</ele>
        <time>2011-11-23T12:05:48Z</time>
      </trkpt>
      <trkpt lat="43.40852" lon="5.48155">
        <ele>599.18</ele>
        <time>2011-11-23T12:05:58Z</time>
      </trkpt>
      <trkpt lat="43.40852" lon="5.48155">
        <ele>599.1</ele>
        <time>2011-11-23T12:06:08Z</time>
      </trkpt>
      <trkpt lat="43.40853" lon="5.48155">
        <ele>598.987</ele>
        <time>2011-11-23T12:06:18Z</time>
      </trkpt>
      <trkpt lat="43.40853" lon="5.48155">
        <ele>599.205</ele>
        <time>2011-11-23T12:06:28Z</time>
      </trkpt>
      <trkpt lat="43.40853" lon="5.48155">
        <ele>599.433</ele>
        <time>2011-11-23T12:06:38Z</time>
      </trkpt>
      <trkpt lat="43.40852" lon="5.48155">
        <ele>599.003</ele>
        <time>2011-11-23T12:06:48Z</time>
      </trkpt>
      <trkpt lat="43.40852" lon="5.48155">
        <ele>599.305</ele>
        <time>2011-11-23T12:06:58Z</time>
      </trkpt>
      <trkpt lat="43.40852" lon="5.48155">
        <ele>599.267</ele>
        <time>2011-11-23T12:07:08Z</time>
      </trkpt>
      <trkpt lat="43.40853" lon="5.48155">
        <ele>599.492</ele>
        <time>2011-11-23T12:07:18Z</time>
      </trkpt>
      <trkpt lat="43.40853" lon="5.48155">
        <ele>599.445</ele>
        <time>2011-11-23T12:07:28Z</time>
      </trkpt>
      <trkpt lat="43.40853" lon="5.48155">
        <ele>599.368</ele>
        <time>2011-11-23T12:07:38Z</time>
      </trkpt>
      <trkpt lat="43.40853" lon="5.48155">
        <ele>599.548</ele>
        <time>2011-11-23T12:07:48Z</time>
      </trkpt>
      <trkpt lat="43.40853" lon="5.48155">
        <ele>599.055</ele>
        <time>2011-11-23T12:07:58Z</time>
      </trkpt>
      <trkpt lat="43.40853" lon="5.48155">
        <ele>599.024</ele>
        <time>2011-11-23T12:08:08Z</time>
      </trkpt>
      <trkpt lat="43.40853" lon="5.48155">
        <ele>599.084</ele>
        <time>2011-11-23T12:08:18Z</time>
      </trkpt>
      <trkpt lat="43.40853" lon="5.48155">
        <ele>599.49</ele>
        <time>2011-11-23T12:08:28Z</time>
      </trkpt>
      <trkpt lat="43.40853" lon="5.48155">
        <ele>598.992</ele>
        <time>2011-11-23T12:08:38Z</time>
      </trkpt>
      <trkpt lat="43.40853" lon="5.48155">
        <ele>599.06</ele>
        <time>2011-11-23T12:08:48Z</time>
      </trkpt>
      <trkpt lat="43.40853" lon="5.48155">
        <ele>599.329</ele>
        <time>2011-11-23T12:08:58Z</time>
      </trkpt>
      <trkpt lat="43.40853" lon="5.48154">
        <ele>599.067</ele>
        <time>2011-11-23T12:09:08Z</time>
      </trkpt>
      <trkpt lat="43.40853" lon="5.48154">
        <ele>599.164</ele>
        <time>2011-11-23T12:09:18Z</time>
      </trkpt>
      <trkpt lat="43.40853" lon="5.48154">
        <ele>599.29</ele>
        <time>2011-11-23T12:09:28Z</time>
      </trkpt>
      <trkpt lat="43.40853" lon="5.48154">
        <ele>599.546</ele>
        <time>2011-11-23T12:09:38Z</time>
      </trkpt>
      <trkpt lat="43.40853" lon="5.48154">
        <ele>599.117</ele>
        <time>2011-11-23T12:09:48Z</time>
      </trkpt>
      <trkpt lat="43.40853" lon="5.48154">
        <ele>598.965</ele>
        <time>2011-11-23T12:09:58Z</time>
      </trkpt>
      <trkpt lat="43.40853" lon="5.48154">
        <ele>598.717</ele>
        <time>2011-11-23T12:10:08Z</time>
      </trkpt>
      <trkpt lat="43.40853" lon="5.48154">
        <ele>599.377</ele>
        <time>2011-11-23T12:10:18Z</time>
      </trkpt>
      <trkpt lat="43.40853" lon="5.48154">
        <ele>598.957</ele>
        <time>2011-11-23T12:10:28Z</time>
      </trkpt>
      <trkpt lat="43.40853" lon="5.48154">
        <ele>599.41</ele>
        <time>2011-11-23T12:10:38Z</time>
      </trkpt>
      <trkpt lat="43.40853" lon="5.48154">
        <ele>599.142</ele>
        <time>2011-11-23T12:10:48Z</time>
      </trkpt>
      <trkpt lat="43.40853" lon="5.48154">
        <ele>599.216</ele>
        <time>2011-11-23T12:10:58Z</time>
      </trkpt>
      <trkpt lat="43.40853" lon="5.48154">
        <ele>599.405</ele>
        <time>2011-11-23T12:11:08Z</time>
      </trkpt>
      <trkpt lat="43.40853" lon="5.48154">
        <ele>599.633</ele>
        <time>2011-11-23T12:11:18Z</time>
      </trkpt>
      <trkpt lat="43.40853" lon="5.48154">
        <ele>599.39</ele>
        <time>2011-11-23T12:11:28Z</time>
      </trkpt>
      <trkpt lat="43.40853" lon="5.48154">
        <ele>599.42</ele>
        <time>2011-11-23T12:11:38Z</time>
      </trkpt>
      <trkpt lat="43.40853" lon="5.48154">
        <ele>599.386</ele>
        <time>2011-11-23T12:11:48Z</time>
      </trkpt>
      <trkpt lat="43.40853" lon="5.48155">
        <ele>599.402</ele>
        <time>2011-11-23T12:11:58Z</time>
      </trkpt>
      <trkpt lat="43.40853" lon="5.48155">
        <ele>599.181</ele>
        <time>2011-11-23T12:12:08Z</time>
      </trkpt>
      <trkpt lat="43.40853" lon="5.48155">
        <ele>599.517</ele>
        <time>2011-11-23T12:12:18Z</time>
      </trkpt>
      <trkpt lat="43.40853" lon="5.48155">
        <ele>599.768</ele>
        <time>2011-11-23T12:12:28Z</time>
      </trkpt>
      <trkpt lat="43.40853" lon="5.48155">
        <ele>599.316</ele>
        <time>2011-11-23T12:12:38Z</time>
      </trkpt>
      <trkpt lat="43.40853" lon="5.48155">
        <ele>599.525</ele>
        <time>2011-11-23T12:12:48Z</time>
      </trkpt>
      <trkpt lat="43.40853" lon="5.48155">
        <ele>598.983</ele>
        <time>2011-11-23T12:12:58Z</time>
      </trkpt>
      <trkpt lat="43.40853" lon="5.48155">
        <ele>599.249</ele>
        <time>2011-11-23T12:13:08Z</time>
      </trkpt>
      <trkpt lat="43.40853" lon="5.48155">
        <ele>599.306</ele>
        <time>2011-11-23T12:13:18Z</time>
      </trkpt>
      <trkpt lat="43.40853" lon="5.48155">
        <ele>599.151</ele>
        <time>2011-11-23T12:13:28Z</time>
      </trkpt>
      <trkpt lat="43.40853" lon="5.48155">
        <ele>599.193</ele>
        <time>2011-11-23T12:13:38Z</time>
      </trkpt>
      <trkpt lat="43.40853" lon="5.48155">
        <ele>599.572</ele>
        <time>2011-11-23T12:13:48Z</time>
      </trkpt>
      <trkpt lat="43.40853" lon="5.48155">
        <ele>599.374</ele>
        <time>2011-11-23T12:13:58Z</time>
      </trkpt>
      <trkpt lat="43.40853" lon="5.48155">
        <ele>599.37</ele>
        <time>2011-11-23T12:14:08Z</time>
      </trkpt>
      <trkpt lat="43.40853" lon="5.48155">
        <ele>599.353</ele>
        <time>2011-11-23T12:14:18Z</time>
      </trkpt>
      <trkpt lat="43.40853" lon="5.48155">
        <ele>599.232</ele>
        <time>2011-11-23T12:14:28Z</time>
      </trkpt>
      <trkpt lat="43.40853" lon="5.48155">
        <ele>599.666</ele>
        <time>2011-11-23T12:14:38Z</time>
      </trkpt>
      <trkpt lat="43.40852" lon="5.48155">
        <ele>599.029</ele>
        <time>2011-11-23T12:14:48Z</time>
      </trkpt>
      <trkpt lat="43.40852" lon="5.48155">
        <ele>599.181</ele>
        <time>2011-11-23T12:14:58Z</time>
      </trkpt>
      <trkpt lat="43.40852" lon="5.48155">
        <ele>599.247</ele>
        <time>2011-11-23T12:15:08Z</time>
      </trkpt>
      <trkpt lat="43.40852" lon="5.48155">
        <ele>599.425</ele>
        <time>2011-11-23T12:15:18Z</time>
      </trkpt>
      <trkpt lat="43.40852" lon="5.48155">
        <ele>599.474</ele>
        <time>2011-11-23T12:15:28Z</time>
      </trkpt>
      <trkpt lat="43.40852" lon="5.48155">
        <ele>599.331</ele>
        <time>2011-11-23T12:15:38Z</time>
      </trkpt>
      <trkpt lat="43.40852" lon="5.48155">
        <ele>599.302</ele>
        <time>2011-11-23T12:15:48Z</time>
      </trkpt>
      <trkpt lat="43.40852" lon="5.48155">
        <ele>599.242</ele>
        <time>2011-11-23T12:15:58Z</time>
      </trkpt>
      <trkpt lat="43.40852" lon="5.48155">
        <ele>599.229</ele>
        <time>2011-11-23T12:16:08Z</time>
      </trkpt>
      <trkpt lat="43.40852" lon="5.48155">
        <ele>599.206</ele>
        <time>2011-11-23T12:16:18Z</time>
      </trkpt>
      <trkpt lat="43.40852" lon="5.48155">
        <ele>599.067</ele>
        <time>2011-11-23T12:16:28Z</time>
      </trkpt>
      <trkpt lat="43.40852" lon="5.48155">
        <ele>599.329</ele>
        <time>2011-11-23T12:16:38Z</time>
      </trkpt>
      <trkpt lat="43.40852" lon="5.48155">
        <ele>599.35</ele>
        <time>2011-11-23T12:16:48Z</time>
      </trkpt>
      <trkpt lat="43.40852" lon="5.48155">
        <ele>599.516</ele>
        <time>2011-11-23T12:16:58Z</time>
      </trkpt>
      <trkpt lat="43.40852" lon="5.48155">
        <ele>599.297</ele>
        <time>2011-11-23T12:17:08Z</time>
      </trkpt>
      <trkpt lat="43.40852" lon="5.48155">
        <ele>599.656</ele>
        <time>2011-11-23T12:17:18Z</time>
      </trkpt>
      <trkpt lat="43.40852" lon="5.48155">
        <ele>599.554</ele>
        <time>2011-11-23T12:17:28Z</time>
      </trkpt>
      <trkpt lat="43.40852" lon="5.48155">
        <ele>599.424</ele>
        <time>2011-11-23T12:17:38Z</time>
      </trkpt>
      <trkpt lat="43.40852" lon="5.48155">
        <ele>599.689</ele>
        <time>2011-11-23T12:17:48Z</time>
      </trkpt>
      <trkpt lat="43.40852" lon="5.48155">
        <ele>599.506</ele>
        <time>2011-11-23T12:17:58Z</time>
      </trkpt>
      <trkpt lat="43.40852" lon="5.48155">
        <ele>599.377</ele>
        <time>2011-11-23T12:18:08Z</time>
      </trkpt>
      <trkpt lat="43.40852" lon="5.48155">
        <ele>599.486</ele>
        <time>2011-11-23T12:18:18Z</time>
      </trkpt>
      <trkpt lat="43.40852" lon="5.48155">
        <ele>599.716</ele>
        <time>2011-11-23T12:18:28Z</time>
      </trkpt>
      <trkpt lat="43.40852" lon="5.48155">
        <ele>599.599</ele>
        <time>2011-11-23T12:18:38Z</time>
      </trkpt>
      <trkpt lat="43.4085" lon="5.48155">
        <ele>600.477</ele>
        <time>2011-11-23T12:18:48Z</time>
      </trkpt>
      <trkpt lat="43.4085" lon="5.48155">
        <ele>600.588</ele>
        <time>2011-11-23T12:18:58Z</time>
      </trkpt>
      <trkpt lat="43.40849" lon="5.48156">
        <ele>600.194</ele>
        <time>2011-11-23T12:19:08Z</time>
      </trkpt>
      <trkpt lat="43.4085" lon="5.48157">
        <ele>600.946</ele>
        <time>2011-11-23T12:19:18Z</time>
      </trkpt>
      <trkpt lat="43.40851" lon="5.48157">
        <ele>599.842</ele>
        <time>2011-11-23T12:19:28Z</time>
      </trkpt>
      <trkpt lat="43.40851" lon="5.48157">
        <ele>600.001</ele>
        <time>2011-11-23T12:19:38Z</time>
      </trkpt>
      <trkpt lat="43.40851" lon="5.48157">
        <ele>599.959</ele>
        <time>2011-11-23T12:19:48Z</time>
      </trkpt>
      <trkpt lat="43.40851" lon="5.48158">
        <ele>600.326</ele>
        <time>2011-11-23T12:19:58Z</time>
      </trkpt>
      <trkpt lat="43.40848" lon="5.48161">
        <ele>600.461</ele>
        <time>2011-11-23T12:20:08Z</time>
      </trkpt>
      <trkpt lat="43.40845" lon="5.48163">
        <ele>599.769</ele>
        <time>2011-11-23T12:20:18Z</time>
      </trkpt>
      <trkpt lat="43.40846" lon="5.48174">
        <ele>599.015</ele>
        <time>2011-11-23T12:20:28Z</time>
      </trkpt>
      <trkpt lat="43.40845" lon="5.48185">
        <ele>598.504</ele>
        <time>2011-11-23T12:20:38Z</time>
      </trkpt>
      <trkpt lat="43.40842" lon="5.48198">
        <ele>598.641</ele>
        <time>2011-11-23T12:20:48Z</time>
      </trkpt>
      <trkpt lat="43.40842" lon="5.48209">
        <ele>599.025</ele>
        <time>2011-11-23T12:20:58Z</time>
      </trkpt>
      <trkpt lat="43.4084" lon="5.4822">
        <ele>599.784</ele>
        <time>2011-11-23T12:21:08Z</time>
      </trkpt>
      <trkpt lat="43.4084" lon="5.48232">
        <ele>598.133</ele>
        <time>2011-11-23T12:21:18Z</time>
      </trkpt>
      <trkpt lat="43.40839" lon="5.48247">
        <ele>597.02</ele>
        <time>2011-11-23T12:21:28Z</time>
      </trkpt>
      <trkpt lat="43.4084" lon="5.4826">
        <ele>595.045</ele>
        <time>2011-11-23T12:21:38Z</time>
      </trkpt>
      <trkpt lat="43.40837" lon="5.48268">
        <ele>592.716</ele>
        <time>2011-11-23T12:21:48Z</time>
      </trkpt>
      <trkpt lat="43.40838" lon="5.48279">
        <ele>590.828</ele>
        <time>2011-11-23T12:21:58Z</time>
      </trkpt>
      <trkpt lat="43.40838" lon="5.4829">
        <ele>589.42</ele>
        <time>2011-11-23T12:22:08Z</time>
      </trkpt>
      <trkpt lat="43.4084" lon="5.48305">
        <ele>588.16</ele>
        <time>2011-11-23T12:22:18Z</time>
      </trkpt>
      <trkpt lat="43.4084" lon="5.48315">
        <ele>587.036</ele>
        <time>2011-11-23T12:22:28Z</time>
      </trkpt>
      <trkpt lat="43.40839" lon="5.48327">
        <ele>586.097</ele>
        <time>2011-11-23T12:22:38Z</time>
      </trkpt>
      <trkpt lat="43.4084" lon="5.48339">
        <ele>585.258</ele>
        <time>2011-11-23T12:22:48Z</time>
      </trkpt>
      <trkpt lat="43.40839" lon="5.48353">
        <ele>584.71</ele>
        <time>2011-11-23T12:22:58Z</time>
      </trkpt>
      <trkpt lat="43.40843" lon="5.48362">
        <ele>583.758</ele>
        <time>2011-11-23T12:23:08Z</time>
      </trkpt>
      <trkpt lat="43.40845" lon="5.48369">
        <ele>582.762</ele>
        <time>2011-11-23T12:23:18Z</time>
      </trkpt>
      <trkpt lat="43.40848" lon="5.4838">
        <ele>581.608</ele>
        <time>2011-11-23T12:23:28Z</time>
      </trkpt>
      <trkpt lat="43.40844" lon="5.48386">
        <ele>581.263</ele>
        <time>2011-11-23T12:23:38Z</time>
      </trkpt>
      <trkpt lat="43.40839" lon="5.48396">
        <ele>582.284</ele>
        <time>2011-11-23T12:23:48Z</time>
      </trkpt>
      <trkpt lat="43.40837" lon="5.48396">
        <ele>582.762</ele>
        <time>2011-11-23T12:23:58Z</time>
      </trkpt>
      <trkpt lat="43.40835" lon="5.48399">
        <ele>582.535</ele>
        <time>2011-11-23T12:24:08Z</time>
      </trkpt>
      <trkpt lat="43.40831" lon="5.48397">
        <ele>582.714</ele>
        <time>2011-11-23T12:24:18Z</time>
      </trkpt>
      <trkpt lat="43.40826" lon="5.48394">
        <ele>583.123</ele>
        <time>2011-11-23T12:24:28Z</time>
      </trkpt>
      <trkpt lat="43.40825" lon="5.48394">
        <ele>583.401</ele>
        <time>2011-11-23T12:24:38Z</time>
      </trkpt>
      <trkpt lat="43.40832" lon="5.48398">
        <ele>582.707</ele>
        <time>2011-11-23T12:24:48Z</time>
      </trkpt>
      <trkpt lat="43.40842" lon="5.48396">
        <ele>581.974</ele>
        <time>2011-11-23T12:24:58Z</time>
      </trkpt>
      <trkpt lat="43.40849" lon="5.48404">
        <ele>579.803</ele>
        <time>2011-11-23T12:25:08Z</time>
      </trkpt>
      <trkpt lat="43.40853" lon="5.48421">
        <ele>577.32</ele>
        <time>2011-11-23T12:25:18Z</time>
      </trkpt>
      <trkpt lat="43.40856" lon="5.48436">
        <ele>575.029</ele>
        <time>2011-11-23T12:25:28Z</time>
      </trkpt>
      <trkpt lat="43.40859" lon="5.48447">
        <ele>573.898</ele>
        <time>2011-11-23T12:25:38Z</time>
      </trkpt>
      <trkpt lat="43.40863" lon="5.48459">
        <ele>572.605</ele>
        <time>2011-11-23T12:25:48Z</time>
      </trkpt>
      <trkpt lat="43.40866" lon="5.4847">
        <ele>570.993</ele>
        <time>2011-11-23T12:25:58Z</time>
      </trkpt>
      <trkpt lat="43.4087" lon="5.48483">
        <ele>570.169</ele>
        <time>2011-11-23T12:26:08Z</time>
      </trkpt>
      <trkpt lat="43.40875" lon="5.48496">
        <ele>569.102</ele>
        <time>2011-11-23T12:26:18Z</time>
      </trkpt>
      <trkpt lat="43.40879" lon="5.48509">
        <ele>567.47</ele>
        <time>2011-11-23T12:26:28Z</time>
      </trkpt>
      <trkpt lat="43.40884" lon="5.48521">
        <ele>566.53</ele>
        <time>2011-11-23T12:26:38Z</time>
      </trkpt>
      <trkpt lat="43.40889" lon="5.48532">
        <ele>565.739</ele>
        <time>2011-11-23T12:26:48Z</time>
      </trkpt>
      <trkpt lat="43.40898" lon="5.48541">
        <ele>565.329</ele>
        <time>2011-11-23T12:26:58Z</time>
      </trkpt>
      <trkpt lat="43.40905" lon="5.48554">
        <ele>564.811</ele>
        <time>2011-11-23T12:27:08Z</time>
      </trkpt>
      <trkpt lat="43.40907" lon="5.48568">
        <ele>564.417</ele>
        <time>2011-11-23T12:27:18Z</time>
      </trkpt>
      <trkpt lat="43.40908" lon="5.48584">
        <ele>564.139</ele>
        <time>2011-11-23T12:27:28Z</time>
      </trkpt>
      <trkpt lat="43.4091" lon="5.48598">
        <ele>562.732</ele>
        <time>2011-11-23T12:27:38Z</time>
      </trkpt>
      <trkpt lat="43.40915" lon="5.48611">
        <ele>561.898</ele>
        <time>2011-11-23T12:27:48Z</time>
      </trkpt>
      <trkpt lat="43.4092" lon="5.48624">
        <ele>560.918</ele>
        <time>2011-11-23T12:27:58Z</time>
      </trkpt>
      <trkpt lat="43.40925" lon="5.48637">
        <ele>559.748</ele>
        <time>2011-11-23T12:28:08Z</time>
      </trkpt>
      <trkpt lat="43.40928" lon="5.48651">
        <ele>558.854</ele>
        <time>2011-11-23T12:28:18Z</time>
      </trkpt>
      <trkpt lat="43.40931" lon="5.48666">
        <ele>557.633</ele>
        <time>2011-11-23T12:28:28Z</time>
      </trkpt>
      <trkpt lat="43.40933" lon="5.4868">
        <ele>556.26</ele>
        <time>2011-11-23T12:28:38Z</time>
      </trkpt>
      <trkpt lat="43.40936" lon="5.48694">
        <ele>555.087</ele>
        <time>2011-11-23T12:28:48Z</time>
      </trkpt>
      <trkpt lat="43.40938" lon="5.48708">
        <ele>554.428</ele>
        <time>2011-11-23T12:28:58Z</time>
      </trkpt>
      <trkpt lat="43.40943" lon="5.4872">
        <ele>553.21</ele>
        <time>2011-11-23T12:29:08Z</time>
      </trkpt>
      <trkpt lat="43.40949" lon="5.48731">
        <ele>551.434</ele>
        <time>2011-11-23T12:29:18Z</time>
      </trkpt>
      <trkpt lat="43.40957" lon="5.48743">
        <ele>550.45</ele>
        <time>2011-11-23T12:29:28Z</time>
      </trkpt>
      <trkpt lat="43.4096" lon="5.48759">
        <ele>549.678</ele>
        <time>2011-11-23T12:29:38Z</time>
      </trkpt>
      <trkpt lat="43.4096" lon="5.48774">
        <ele>548.153</ele>
        <time>2011-11-23T12:29:48Z</time>
      </trkpt>
      <trkpt lat="43.40961" lon="5.48788">
        <ele>547.51</ele>
        <time>2011-11-23T12:29:58Z</time>
      </trkpt>
      <trkpt lat="43.40964" lon="5.48803">
        <ele>546.924</ele>
        <time>2011-11-23T12:30:08Z</time>
      </trkpt>
      <trkpt lat="43.40966" lon="5.48818">
        <ele>545.51</ele>
        <time>2011-11-23T12:30:18Z</time>
      </trkpt>
      <trkpt lat="43.4097" lon="5.48831">
        <ele>544.128</ele>
        <time>2011-11-23T12:30:28Z</time>
      </trkpt>
      <trkpt lat="43.40978" lon="5.48843">
        <ele>543.171</ele>
        <time>2011-11-23T12:30:38Z</time>
      </trkpt>
      <trkpt lat="43.40983" lon="5.48857">
        <ele>541.881</ele>
        <time>2011-11-23T12:30:48Z</time>
      </trkpt>
      <trkpt lat="43.40988" lon="5.48872">
        <ele>541.36</ele>
        <time>2011-11-23T12:30:58Z</time>
      </trkpt>
      <trkpt lat="43.40992" lon="5.48885">
        <ele>540.365</ele>
        <time>2011-11-23T12:31:08Z</time>
      </trkpt>
      <trkpt lat="43.40994" lon="5.489">
        <ele>539.085</ele>
        <time>2011-11-23T12:31:18Z</time>
      </trkpt>
      <trkpt lat="43.40994" lon="5.48915">
        <ele>538.451</ele>
        <time>2011-11-23T12:31:28Z</time>
      </trkpt>
      <trkpt lat="43.40995" lon="5.4893">
        <ele>537.678</ele>
        <time>2011-11-23T12:31:38Z</time>
      </trkpt>
      <trkpt lat="43.41002" lon="5.48943">
        <ele>536.795</ele>
        <time>2011-11-23T12:31:48Z</time>
      </trkpt>
      <trkpt lat="43.41013" lon="5.48953">
        <ele>535.943</ele>
        <time>2011-11-23T12:31:58Z</time>
      </trkpt>
      <trkpt lat="43.4102" lon="5.48965">
        <ele>535.189</ele>
        <time>2011-11-23T12:32:08Z</time>
      </trkpt>
      <trkpt lat="43.41025" lon="5.48978">
        <ele>534.256</ele>
        <time>2011-11-23T12:32:18Z</time>
      </trkpt>
      <trkpt lat="43.41029" lon="5.48993">
        <ele>533.989</ele>
        <time>2011-11-23T12:32:28Z</time>
      </trkpt>
      <trkpt lat="43.41032" lon="5.49005">
        <ele>533.038</ele>
        <time>2011-11-23T12:32:38Z</time>
      </trkpt>
      <trkpt lat="43.41033" lon="5.49016">
        <ele>532.442</ele>
        <time>2011-11-23T12:32:48Z</time>
      </trkpt>
      <trkpt lat="43.41034" lon="5.49025">
        <ele>532.16</ele>
        <time>2011-11-23T12:32:58Z</time>
      </trkpt>
      <trkpt lat="43.41038" lon="5.49032">
        <ele>531.816</ele>
        <time>2011-11-23T12:33:08Z</time>
      </trkpt>
      <trkpt lat="43.41043" lon="5.49041">
        <ele>531.047</ele>
        <time>2011-11-23T12:33:18Z</time>
      </trkpt>
      <trkpt lat="43.4105" lon="5.4905">
        <ele>530.314</ele>
        <time>2011-11-23T12:33:28Z</time>
      </trkpt>
      <trkpt lat="43.41057" lon="5.49058">
        <ele>528.675</ele>
        <time>2011-11-23T12:33:38Z</time>
      </trkpt>
      <trkpt lat="43.41062" lon="5.49065">
        <ele>528.758</ele>
        <time>2011-11-23T12:33:48Z</time>
      </trkpt>
      <trkpt lat="43.41067" lon="5.49076">
        <ele>528.309</ele>
        <time>2011-11-23T12:33:58Z</time>
      </trkpt>
      <trkpt lat="43.41074" lon="5.49084">
        <ele>527.382</ele>
        <time>2011-11-23T12:34:08Z</time>
      </trkpt>
      <trkpt lat="43.4108" lon="5.49093">
        <ele>526.974</ele>
        <time>2011-11-23T12:34:18Z</time>
      </trkpt>
      <trkpt lat="43.41086" lon="5.49101">
        <ele>526.252</ele>
        <time>2011-11-23T12:34:28Z</time>
      </trkpt>
      <trkpt lat="43.41093" lon="5.49113">
        <ele>526.156</ele>
        <time>2011-11-23T12:34:38Z</time>
      </trkpt>
      <trkpt lat="43.41099" lon="5.49122">
        <ele>525.876</ele>
        <time>2011-11-23T12:34:48Z</time>
      </trkpt>
      <trkpt lat="43.41105" lon="5.49131">
        <ele>525.105</ele>
        <time>2011-11-23T12:34:58Z</time>
      </trkpt>
      <trkpt lat="43.41113" lon="5.4914">
        <ele>523.903</ele>
        <time>2011-11-23T12:35:08Z</time>
      </trkpt>
      <trkpt lat="43.41118" lon="5.49152">
        <ele>523.201</ele>
        <time>2011-11-23T12:35:18Z</time>
      </trkpt>
      <trkpt lat="43.41122" lon="5.49161">
        <ele>521.617</ele>
        <time>2011-11-23T12:35:28Z</time>
      </trkpt>
      <trkpt lat="43.41122" lon="5.4917">
        <ele>521.933</ele>
        <time>2011-11-23T12:35:38Z</time>
      </trkpt>
      <trkpt lat="43.41123" lon="5.49175">
        <ele>521.602</ele>
        <time>2011-11-23T12:35:48Z</time>
      </trkpt>
      <trkpt lat="43.4113" lon="5.49184">
        <ele>520.802</ele>
        <time>2011-11-23T12:35:58Z</time>
      </trkpt>
      <trkpt lat="43.41135" lon="5.49196">
        <ele>520.697</ele>
        <time>2011-11-23T12:36:08Z</time>
      </trkpt>
      <trkpt lat="43.41136" lon="5.49203">
        <ele>521.098</ele>
        <time>2011-11-23T12:36:18Z</time>
      </trkpt>
      <trkpt lat="43.41137" lon="5.49207">
        <ele>520.497</ele>
        <time>2011-11-23T12:36:28Z</time>
      </trkpt>
      <trkpt lat="43.41137" lon="5.49207">
        <ele>520.755</ele>
        <time>2011-11-23T12:36:38Z</time>
      </trkpt>
      <trkpt lat="43.41137" lon="5.49206">
        <ele>520.795</ele>
        <time>2011-11-23T12:36:48Z</time>
      </trkpt>
      <trkpt lat="43.41138" lon="5.49205">
        <ele>520.068</ele>
        <time>2011-11-23T12:36:58Z</time>
      </trkpt>
      <trkpt lat="43.41133" lon="5.49192">
        <ele>520.158</ele>
        <time>2011-11-23T12:37:08Z</time>
      </trkpt>
      <trkpt lat="43.41129" lon="5.49183">
        <ele>520.751</ele>
        <time>2011-11-23T12:37:18Z</time>
      </trkpt>
      <trkpt lat="43.41131" lon="5.49173">
        <ele>520.104</ele>
        <time>2011-11-23T12:37:28Z</time>
      </trkpt>
      <trkpt lat="43.41131" lon="5.49159">
        <ele>518.745</ele>
        <time>2011-11-23T12:37:38Z</time>
      </trkpt>
      <trkpt lat="43.4113" lon="5.49146">
        <ele>518.37</ele>
        <time>2011-11-23T12:37:48Z</time>
      </trkpt>
      <trkpt lat="43.41132" lon="5.49137">
        <ele>517.649</ele>
        <time>2011-11-23T12:37:58Z</time>
      </trkpt>
      <trkpt lat="43.41135" lon="5.49132">
        <ele>516.828</ele>
        <time>2011-11-23T12:38:08Z</time>
      </trkpt>
      <trkpt lat="43.41135" lon="5.49132">
        <ele>516.863</ele>
        <time>2011-11-23T12:38:18Z</time>
      </trkpt>
      <trkpt lat="43.41135" lon="5.49132">
        <ele>516.948</ele>
        <time>2011-11-23T12:38:28Z</time>
      </trkpt>
      <trkpt lat="43.41135" lon="5.49131">
        <ele>516.409</ele>
        <time>2011-11-23T12:38:38Z</time>
      </trkpt>
      <trkpt lat="43.41135" lon="5.49131">
        <ele>516.636</ele>
        <time>2011-11-23T12:38:48Z</time>
      </trkpt>
      <trkpt lat="43.41135" lon="5.49131">
        <ele>516.879</ele>
        <time>2011-11-23T12:38:58Z</time>
      </trkpt>
      <trkpt lat="43.41136" lon="5.4913">
        <ele>516.504</ele>
        <time>2011-11-23T12:39:08Z</time>
      </trkpt>
      <trkpt lat="43.41136" lon="5.49123">
        <ele>515.93</ele>
        <time>2011-11-23T12:39:18Z</time>
      </trkpt>
      <trkpt lat="43.41136" lon="5.49121">
        <ele>515.574</ele>
        <time>2011-11-23T12:39:28Z</time>
      </trkpt>
      <trkpt lat="43.41136" lon="5.4913">
        <ele>516.42</ele>
        <time>2011-11-23T12:39:38Z</time>
      </trkpt>
      <trkpt lat="43.41133" lon="5.49142">
        <ele>517.571</ele>
        <time>2011-11-23T12:39:48Z</time>
      </trkpt>
      <trkpt lat="43.41137" lon="5.49155">
        <ele>518.389</ele>
        <time>2011-11-23T12:39:58Z</time>
      </trkpt>
      <trkpt lat="43.4114" lon="5.49158">
        <ele>517.574</ele>
        <time>2011-11-23T12:40:08Z</time>
      </trkpt>
      <trkpt lat="43.41144" lon="5.49154">
        <ele>516.939</ele>
        <time>2011-11-23T12:40:18Z</time>
      </trkpt>
      <trkpt lat="43.41146" lon="5.49142">
        <ele>516.545</ele>
        <time>2011-11-23T12:40:28Z</time>
      </trkpt>
      <trkpt lat="43.41147" lon="5.4913">
        <ele>514.729</ele>
        <time>2011-11-23T12:40:38Z</time>
      </trkpt>
      <trkpt lat="43.41149" lon="5.49116">
        <ele>513.478</ele>
        <time>2011-11-23T12:40:48Z</time>
      </trkpt>
      <trkpt lat="43.41155" lon="5.49104">
        <ele>512.278</ele>
        <time>2011-11-23T12:40:58Z</time>
      </trkpt>
      <trkpt lat="43.41156" lon="5.49095">
        <ele>510.315</ele>
        <time>2011-11-23T12:41:08Z</time>
      </trkpt>
      <trkpt lat="43.41161" lon="5.49085">
        <ele>508.671</ele>
        <time>2011-11-23T12:41:18Z</time>
      </trkpt>
      <trkpt lat="43.41164" lon="5.49067">
        <ele>507.546</ele>
        <time>2011-11-23T12:41:28Z</time>
      </trkpt>
      <trkpt lat="43.41165" lon="5.49064">
        <ele>506.399</ele>
        <time>2011-11-23T12:41:38Z</time>
      </trkpt>
      <trkpt lat="43.41166" lon="5.49063">
        <ele>506.658</ele>
        <time>2011-11-23T12:41:48Z</time>
      </trkpt>
      <trkpt lat="43.41165" lon="5.4907">
        <ele>507.426</ele>
        <time>2011-11-23T12:41:58Z</time>
      </trkpt>
      <trkpt lat="43.41165" lon="5.49069">
        <ele>507.824</ele>
        <time>2011-11-23T12:42:08Z</time>
      </trkpt>
      <trkpt lat="43.41164" lon="5.49075">
        <ele>508.233</ele>
        <time>2011-11-23T12:42:18Z</time>
      </trkpt>
      <trkpt lat="43.41163" lon="5.49078">
        <ele>508.923</ele>
        <time>2011-11-23T12:42:28Z</time>
      </trkpt>
      <trkpt lat="43.41163" lon="5.49078">
        <ele>508.784</ele>
        <time>2011-11-23T12:42:38Z</time>
      </trkpt>
      <trkpt lat="43.41163" lon="5.49078">
        <ele>508.539</ele>
        <time>2011-11-23T12:42:48Z</time>
      </trkpt>
      <trkpt lat="43.41163" lon="5.49078">
        <ele>509.168</ele>
        <time>2011-11-23T12:42:58Z</time>
      </trkpt>
      <trkpt lat="43.41163" lon="5.49078">
        <ele>509.571</ele>
        <time>2011-11-23T12:43:08Z</time>
      </trkpt>
      <trkpt lat="43.41162" lon="5.49078">
        <ele>508.961</ele>
        <time>2011-11-23T12:43:18Z</time>
      </trkpt>
      <trkpt lat="43.41162" lon="5.49078">
        <ele>509.176</ele>
        <time>2011-11-23T12:43:28Z</time>
      </trkpt>
      <trkpt lat="43.41162" lon="5.49078">
        <ele>509.105</ele>
        <time>2011-11-23T12:43:38Z</time>
      </trkpt>
      <trkpt lat="43.41162" lon="5.49078">
        <ele>509.232</ele>
        <time>2011-11-23T12:43:48Z</time>
      </trkpt>
      <trkpt lat="43.41163" lon="5.49072">
        <ele>508.509</ele>
        <time>2011-11-23T12:43:58Z</time>
      </trkpt>
      <trkpt lat="43.41168" lon="5.4906">
        <ele>506.966</ele>
        <time>2011-11-23T12:44:08Z</time>
      </trkpt>
      <trkpt lat="43.41172" lon="5.49049">
        <ele>505.317</ele>
        <time>2011-11-23T12:44:18Z</time>
      </trkpt>
      <trkpt lat="43.41178" lon="5.49036">
        <ele>502.939</ele>
        <time>2011-11-23T12:44:28Z</time>
      </trkpt>
      <trkpt lat="43.41183" lon="5.49024">
        <ele>500.771</ele>
        <time>2011-11-23T12:44:38Z</time>
      </trkpt>
      <trkpt lat="43.41184" lon="5.49011">
        <ele>499.082</ele>
        <time>2011-11-23T12:44:48Z</time>
      </trkpt>
      <trkpt lat="43.41184" lon="5.48995">
        <ele>497.353</ele>
        <time>2011-11-23T12:44:58Z</time>
      </trkpt>
      <trkpt lat="43.41187" lon="5.48979">
        <ele>495.361</ele>
        <time>2011-11-23T12:45:08Z</time>
      </trkpt>
      <trkpt lat="43.41186" lon="5.48966">
        <ele>494.03</ele>
        <time>2011-11-23T12:45:18Z</time>
      </trkpt>
      <trkpt lat="43.41186" lon="5.4895">
        <ele>492.073</ele>
        <time>2011-11-23T12:45:28Z</time>
      </trkpt>
      <trkpt lat="43.41185" lon="5.48939">
        <ele>491.224</ele>
        <time>2011-11-23T12:45:38Z</time>
      </trkpt>
      <trkpt lat="43.41184" lon="5.48928">
        <ele>490.666</ele>
        <time>2011-11-23T12:45:48Z</time>
      </trkpt>
      <trkpt lat="43.41183" lon="5.48918">
        <ele>490.429</ele>
        <time>2011-11-23T12:45:58Z</time>
      </trkpt>
      <trkpt lat="43.41184" lon="5.48919">
        <ele>488.786</ele>
        <time>2011-11-23T12:46:08Z</time>
      </trkpt>
      <trkpt lat="43.41191" lon="5.4892">
        <ele>486.355</ele>
        <time>2011-11-23T12:46:18Z</time>
      </trkpt>
      <trkpt lat="43.412" lon="5.48917">
        <ele>483.274</ele>
        <time>2011-11-23T12:46:28Z</time>
      </trkpt>
      <trkpt lat="43.41209" lon="5.48918">
        <ele>482.736</ele>
        <time>2011-11-23T12:46:38Z</time>
      </trkpt>
      <trkpt lat="43.41211" lon="5.48919">
        <ele>482.878</ele>
        <time>2011-11-23T12:46:48Z</time>
      </trkpt>
      <trkpt lat="43.4121" lon="5.48921">
        <ele>482.851</ele>
        <time>2011-11-23T12:46:58Z</time>
      </trkpt>
      <trkpt lat="43.41216" lon="5.48914">
        <ele>481.897</ele>
        <time>2011-11-23T12:47:08Z</time>
      </trkpt>
      <trkpt lat="43.41216" lon="5.48899">
        <ele>481.498</ele>
        <time>2011-11-23T12:47:18Z</time>
      </trkpt>
      <trkpt lat="43.41219" lon="5.48887">
        <ele>479.822</ele>
        <time>2011-11-23T12:47:28Z</time>
      </trkpt>
      <trkpt lat="43.41227" lon="5.48873">
        <ele>478.328</ele>
        <time>2011-11-23T12:47:38Z</time>
      </trkpt>
      <trkpt lat="43.41233" lon="5.4886">
        <ele>477.852</ele>
        <time>2011-11-23T12:47:48Z</time>
      </trkpt>
      <trkpt lat="43.4124" lon="5.48855">
        <ele>478.023</ele>
        <time>2011-11-23T12:47:58Z</time>
      </trkpt>
      <trkpt lat="43.41249" lon="5.48851">
        <ele>477.593</ele>
        <time>2011-11-23T12:48:08Z</time>
      </trkpt>
      <trkpt lat="43.4125" lon="5.4885">
        <ele>478.529</ele>
        <time>2011-11-23T12:48:18Z</time>
      </trkpt>
      <trkpt lat="43.41252" lon="5.48838">
        <ele>477.241</ele>
        <time>2011-11-23T12:48:28Z</time>
      </trkpt>
      <trkpt lat="43.41256" lon="5.48829">
        <ele>477.059</ele>
        <time>2011-11-23T12:48:38Z</time>
      </trkpt>
      <trkpt lat="43.41262" lon="5.48821">
        <ele>476.822</ele>
        <time>2011-11-23T12:48:48Z</time>
      </trkpt>
      <trkpt lat="43.41267" lon="5.4881">
        <ele>475.73</ele>
        <time>2011-11-23T12:48:58Z</time>
      </trkpt>
      <trkpt lat="43.41271" lon="5.48798">
        <ele>475.852</ele>
        <time>2011-11-23T12:49:08Z</time>
      </trkpt>
      <trkpt lat="43.41277" lon="5.48786">
        <ele>474.777</ele>
        <time>2011-11-23T12:49:18Z</time>
      </trkpt>
      <trkpt lat="43.41282" lon="5.48776">
        <ele>474.199</ele>
        <time>2011-11-23T12:49:28Z</time>
      </trkpt>
      <trkpt lat="43.4129" lon="5.48766">
        <ele>473.981</ele>
        <time>2011-11-23T12:49:38Z</time>
      </trkpt>
      <trkpt lat="43.41294" lon="5.48753">
        <ele>473.041</ele>
        <time>2011-11-23T12:49:48Z</time>
      </trkpt>
      <trkpt lat="43.41294" lon="5.48741">
        <ele>472.246</ele>
        <time>2011-11-23T12:49:58Z</time>
      </trkpt>
      <trkpt lat="43.41297" lon="5.48727">
        <ele>470.852</ele>
        <time>2011-11-23T12:50:08Z</time>
      </trkpt>
      <trkpt lat="43.41296" lon="5.48715">
        <ele>469.854</ele>
        <time>2011-11-23T12:50:18Z</time>
      </trkpt>
      <trkpt lat="43.41296" lon="5.48701">
        <ele>468.394</ele>
        <time>2011-11-23T12:50:28Z</time>
      </trkpt>
      <trkpt lat="43.41293" lon="5.4869">
        <ele>467.304</ele>
        <time>2011-11-23T12:50:38Z</time>
      </trkpt>
      <trkpt lat="43.41296" lon="5.48682">
        <ele>467.136</ele>
        <time>2011-11-23T12:50:48Z</time>
      </trkpt>
      <trkpt lat="43.41297" lon="5.48669">
        <ele>466.702</ele>
        <time>2011-11-23T12:50:58Z</time>
      </trkpt>
      <trkpt lat="43.413" lon="5.48657">
        <ele>466.004</ele>
        <time>2011-11-23T12:51:08Z</time>
      </trkpt>
      <trkpt lat="43.41302" lon="5.48643">
        <ele>465.111</ele>
        <time>2011-11-23T12:51:18Z</time>
      </trkpt>
      <trkpt lat="43.41308" lon="5.4863">
        <ele>464.164</ele>
        <time>2011-11-23T12:51:28Z</time>
      </trkpt>
      <trkpt lat="43.41316" lon="5.48626">
        <ele>463.927</ele>
        <time>2011-11-23T12:51:38Z</time>
      </trkpt>
      <trkpt lat="43.41321" lon="5.48623">
        <ele>463.588</ele>
        <time>2011-11-23T12:51:48Z</time>
      </trkpt>
      <trkpt lat="43.41329" lon="5.48621">
        <ele>462.631</ele>
        <time>2011-11-23T12:51:58Z</time>
      </trkpt>
      <trkpt lat="43.41338" lon="5.48611">
        <ele>462.276</ele>
        <time>2011-11-23T12:52:08Z</time>
      </trkpt>
      <trkpt lat="43.4134" lon="5.48599">
        <ele>461.196</ele>
        <time>2011-11-23T12:52:18Z</time>
      </trkpt>
      <trkpt lat="43.4134" lon="5.48593">
        <ele>462.058</ele>
        <time>2011-11-23T12:52:28Z</time>
      </trkpt>
      <trkpt lat="43.41339" lon="5.48593">
        <ele>461.233</ele>
        <time>2011-11-23T12:52:38Z</time>
      </trkpt>
      <trkpt lat="43.41339" lon="5.48593">
        <ele>461.277</ele>
        <time>2011-11-23T12:52:48Z</time>
      </trkpt>
      <trkpt lat="43.41341" lon="5.48588">
        <ele>461.23</ele>
        <time>2011-11-23T12:52:58Z</time>
      </trkpt>
      <trkpt lat="43.41345" lon="5.48575">
        <ele>460.481</ele>
        <time>2011-11-23T12:53:08Z</time>
      </trkpt>
      <trkpt lat="43.4135" lon="5.48563">
        <ele>459.12</ele>
        <time>2011-11-23T12:53:18Z</time>
      </trkpt>
      <trkpt lat="43.41349" lon="5.48563">
        <ele>459.514</ele>
        <time>2011-11-23T12:53:28Z</time>
      </trkpt>
      <trkpt lat="43.41352" lon="5.48561">
        <ele>458.216</ele>
        <time>2011-11-23T12:53:38Z</time>
      </trkpt>
      <trkpt lat="43.41352" lon="5.48562">
        <ele>457.982</ele>
        <time>2011-11-23T12:53:48Z</time>
      </trkpt>
      <trkpt lat="43.4135" lon="5.48564">
        <ele>458.873</ele>
        <time>2011-11-23T12:53:58Z</time>
      </trkpt>
      <trkpt lat="43.4135" lon="5.48564">
        <ele>459.91</ele>
        <time>2011-11-23T12:54:08Z</time>
      </trkpt>
      <trkpt lat="43.41346" lon="5.48574">
        <ele>459.367</ele>
        <time>2011-11-23T12:54:18Z</time>
      </trkpt>
      <trkpt lat="43.41339" lon="5.48582">
        <ele>460.49</ele>
        <time>2011-11-23T12:54:28Z</time>
      </trkpt>
      <trkpt lat="43.41333" lon="5.48587">
        <ele>460.62</ele>
        <time>2011-11-23T12:54:38Z</time>
      </trkpt>
      <trkpt lat="43.41323" lon="5.48591">
        <ele>460.719</ele>
        <time>2011-11-23T12:54:48Z</time>
      </trkpt>
      <trkpt lat="43.41313" lon="5.48587">
        <ele>459.418</ele>
        <time>2011-11-23T12:54:58Z</time>
      </trkpt>
      <trkpt lat="43.41303" lon="5.48579">
        <ele>458.768</ele>
        <time>2011-11-23T12:55:08Z</time>
      </trkpt>
      <trkpt lat="43.41291" lon="5.48573">
        <ele>457.634</ele>
        <time>2011-11-23T12:55:18Z</time>
      </trkpt>
      <trkpt lat="43.41281" lon="5.48569">
        <ele>456.872</ele>
        <time>2011-11-23T12:55:28Z</time>
      </trkpt>
      <trkpt lat="43.41275" lon="5.48562">
        <ele>455.476</ele>
        <time>2011-11-23T12:55:38Z</time>
      </trkpt>
      <trkpt lat="43.41271" lon="5.48553">
        <ele>453.996</ele>
        <time>2011-11-23T12:55:48Z</time>
      </trkpt>
      <trkpt lat="43.41264" lon="5.48542">
        <ele>452.097</ele>
        <time>2011-11-23T12:55:58Z</time>
      </trkpt>
      <trkpt lat="43.41258" lon="5.48534">
        <ele>450.398</ele>
        <time>2011-11-23T12:56:08Z</time>
      </trkpt>
      <trkpt lat="43.41252" lon="5.48519">
        <ele>448.497</ele>
        <time>2011-11-23T12:56:18Z</time>
      </trkpt>
      <trkpt lat="43.41246" lon="5.48506">
        <ele>447.47</ele>
        <time>2011-11-23T12:56:28Z</time>
      </trkpt>
      <trkpt lat="43.41236" lon="5.48507">
        <ele>446.644</ele>
        <time>2011-11-23T12:56:38Z</time>
      </trkpt>
      <trkpt lat="43.41236" lon="5.48517">
        <ele>447.056</ele>
        <time>2011-11-23T12:56:48Z</time>
      </trkpt>
      <trkpt lat="43.41235" lon="5.48529">
        <ele>448.717</ele>
        <time>2011-11-23T12:56:58Z</time>
      </trkpt>
      <trkpt lat="43.4123" lon="5.48547">
        <ele>450.569</ele>
        <time>2011-11-23T12:57:08Z</time>
      </trkpt>
      <trkpt lat="43.41228" lon="5.48557">
        <ele>452.494</ele>
        <time>2011-11-23T12:57:18Z</time>
      </trkpt>
      <trkpt lat="43.41222" lon="5.48576">
        <ele>452.936</ele>
        <time>2011-11-23T12:57:28Z</time>
      </trkpt>
      <trkpt lat="43.41222" lon="5.48592">
        <ele>453.429</ele>
        <time>2011-11-23T12:57:38Z</time>
      </trkpt>
      <trkpt lat="43.41217" lon="5.48608">
        <ele>453.131</ele>
        <time>2011-11-23T12:57:48Z</time>
      </trkpt>
      <trkpt lat="43.41217" lon="5.48621">
        <ele>455.277</ele>
        <time>2011-11-23T12:57:58Z</time>
      </trkpt>
      <trkpt lat="43.41216" lon="5.48626">
        <ele>454.817</ele>
        <time>2011-11-23T12:58:08Z</time>
      </trkpt>
      <trkpt lat="43.41218" lon="5.48634">
        <ele>455.264</ele>
        <time>2011-11-23T12:58:18Z</time>
      </trkpt>
      <trkpt lat="43.41219" lon="5.48637">
        <ele>454.621</ele>
        <time>2011-11-23T12:58:28Z</time>
      </trkpt>
      <trkpt lat="43.41216" lon="5.48636">
        <ele>455.22</ele>
        <time>2011-11-23T12:58:38Z</time>
      </trkpt>
      <trkpt lat="43.41208" lon="5.48623">
        <ele>456.314</ele>
        <time>2011-11-23T12:58:48Z</time>
      </trkpt>
      <trkpt lat="43.41204" lon="5.48617">
        <ele>456.443</ele>
        <time>2011-11-23T12:58:58Z</time>
      </trkpt>
      <trkpt lat="43.41204" lon="5.48624">
        <ele>457.393</ele>
        <time>2011-11-23T12:59:08Z</time>
      </trkpt>
      <trkpt lat="43.41203" lon="5.48634">
        <ele>459.593</ele>
        <time>2011-11-23T12:59:18Z</time>
      </trkpt>
      <trkpt lat="43.41202" lon="5.48645">
        <ele>460.294</ele>
        <time>2011-11-23T12:59:28Z</time>
      </trkpt>
      <trkpt lat="43.41203" lon="5.48653">
        <ele>460.242</ele>
        <time>2011-11-23T12:59:38Z</time>
      </trkpt>
      <trkpt lat="43.41203" lon="5.48654">
        <ele>460.387</ele>
        <time>2011-11-23T12:59:48Z</time>
      </trkpt>
      <trkpt lat="43.41204" lon="5.48654">
        <ele>460.025</ele>
        <time>2011-11-23T12:59:58Z</time>
      </trkpt>
      <trkpt lat="43.41204" lon="5.48651">
        <ele>460.059</ele>
        <time>2011-11-23T13:00:08Z</time>
      </trkpt>
      <trkpt lat="43.41205" lon="5.48651">
        <ele>460.221</ele>
        <time>2011-11-23T13:00:18Z</time>
      </trkpt>
      <trkpt lat="43.41207" lon="5.4865">
        <ele>459.367</ele>
        <time>2011-11-23T13:00:28Z</time>
      </trkpt>
      <trkpt lat="43.4121" lon="5.48649">
        <ele>457.985</ele>
        <time>2011-11-23T13:00:38Z</time>
      </trkpt>
      <trkpt lat="43.41215" lon="5.48647">
        <ele>457.942</ele>
        <time>2011-11-23T13:00:48Z</time>
      </trkpt>
      <trkpt lat="43.41218" lon="5.48656">
        <ele>458.686</ele>
        <time>2011-11-23T13:00:58Z</time>
      </trkpt>
      <trkpt lat="43.41221" lon="5.48669">
        <ele>459.6</ele>
        <time>2011-11-23T13:01:08Z</time>
      </trkpt>
      <trkpt lat="43.41222" lon="5.48676">
        <ele>460.192</ele>
        <time>2011-11-23T13:01:18Z</time>
      </trkpt>
      <trkpt lat="43.41222" lon="5.48677">
        <ele>460.249</ele>
        <time>2011-11-23T13:01:28Z</time>
      </trkpt>
      <trkpt lat="43.41221" lon="5.48694">
        <ele>460.982</ele>
        <time>2011-11-23T13:01:38Z</time>
      </trkpt>
      <trkpt lat="43.41219" lon="5.4871">
        <ele>461.325</ele>
        <time>2011-11-23T13:01:48Z</time>
      </trkpt>
      <trkpt lat="43.41217" lon="5.48725">
        <ele>463.082</ele>
        <time>2011-11-23T13:01:58Z</time>
      </trkpt>
      <trkpt lat="43.41217" lon="5.4874">
        <ele>463.968</ele>
        <time>2011-11-23T13:02:08Z</time>
      </trkpt>
      <trkpt lat="43.41215" lon="5.4875">
        <ele>464.233</ele>
        <time>2011-11-23T13:02:18Z</time>
      </trkpt>
      <trkpt lat="43.41211" lon="5.48755">
        <ele>465.48</ele>
        <time>2011-11-23T13:02:28Z</time>
      </trkpt>
      <trkpt lat="43.41213" lon="5.48765">
        <ele>466.417</ele>
        <time>2011-11-23T13:02:38Z</time>
      </trkpt>
      <trkpt lat="43.41217" lon="5.48778">
        <ele>466.892</ele>
        <time>2011-11-23T13:02:48Z</time>
      </trkpt>
      <trkpt lat="43.41223" lon="5.48795">
        <ele>467.567</ele>
        <time>2011-11-23T13:02:58Z</time>
      </trkpt>
      <trkpt lat="43.41227" lon="5.48806">
        <ele>468.599</ele>
        <time>2011-11-23T13:03:08Z</time>
      </trkpt>
      <trkpt lat="43.4123" lon="5.48819">
        <ele>470.102</ele>
        <time>2011-11-23T13:03:18Z</time>
      </trkpt>
      <trkpt lat="43.4123" lon="5.48829">
        <ele>471.725</ele>
        <time>2011-11-23T13:03:28Z</time>
      </trkpt>
      <trkpt lat="43.41226" lon="5.4884">
        <ele>472.886</ele>
        <time>2011-11-23T13:03:38Z</time>
      </trkpt>
      <trkpt lat="43.4123" lon="5.48848">
        <ele>474.48</ele>
        <time>2011-11-23T13:03:48Z</time>
      </trkpt>
      <trkpt lat="43.41239" lon="5.48852">
        <ele>476.356</ele>
        <time>2011-11-23T13:03:58Z</time>
      </trkpt>
      <trkpt lat="43.41238" lon="5.48851">
        <ele>475.922</ele>
        <time>2011-11-23T13:04:08Z</time>
      </trkpt>
      <trkpt lat="43.41239" lon="5.4885">
        <ele>476.007</ele>
        <time>2011-11-23T13:04:18Z</time>
      </trkpt>
      <trkpt lat="43.41238" lon="5.4885">
        <ele>476.359</ele>
        <time>2011-11-23T13:04:28Z</time>
      </trkpt>
      <trkpt lat="43.41238" lon="5.48852">
        <ele>476.705</ele>
        <time>2011-11-23T13:04:38Z</time>
      </trkpt>
      <trkpt lat="43.41237" lon="5.48851">
        <ele>476.191</ele>
        <time>2011-11-23T13:04:48Z</time>
      </trkpt>
      <trkpt lat="43.41237" lon="5.4885">
        <ele>476.235</ele>
        <time>2011-11-23T13:04:58Z</time>
      </trkpt>
      <trkpt lat="43.41236" lon="5.48849">
        <ele>476.014</ele>
        <time>2011-11-23T13:05:08Z</time>
      </trkpt>
      <trkpt lat="43.41236" lon="5.48849">
        <ele>476.322</ele>
        <time>2011-11-23T13:05:18Z</time>
      </trkpt>
      <trkpt lat="43.41236" lon="5.4885">
        <ele>476.315</ele>
        <time>2011-11-23T13:05:28Z</time>
      </trkpt>
      <trkpt lat="43.41237" lon="5.48851">
        <ele>476.555</ele>
        <time>2011-11-23T13:05:38Z</time>
      </trkpt>
      <trkpt lat="43.41237" lon="5.48851">
        <ele>477.346</ele>
        <time>2011-11-23T13:05:48Z</time>
      </trkpt>
      <trkpt lat="43.41237" lon="5.48851">
        <ele>477.29</ele>
        <time>2011-11-23T13:05:58Z</time>
      </trkpt>
      <trkpt lat="43.41237" lon="5.48851">
        <ele>476.482</ele>
        <time>2011-11-23T13:06:08Z</time>
      </trkpt>
      <trkpt lat="43.41237" lon="5.48851">
        <ele>476.784</ele>
        <time>2011-11-23T13:06:18Z</time>
      </trkpt>
      <trkpt lat="43.41237" lon="5.48851">
        <ele>477.018</ele>
        <time>2011-11-23T13:06:28Z</time>
      </trkpt>
      <trkpt lat="43.41236" lon="5.48851">
        <ele>477.419</ele>
        <time>2011-11-23T13:06:38Z</time>
      </trkpt>
      <trkpt lat="43.41236" lon="5.48851">
        <ele>476.722</ele>
        <time>2011-11-23T13:06:48Z</time>
      </trkpt>
      <trkpt lat="43.41236" lon="5.48851">
        <ele>476.637</ele>
        <time>2011-11-23T13:06:58Z</time>
      </trkpt>
      <trkpt lat="43.41236" lon="5.48851">
        <ele>476.969</ele>
        <time>2011-11-23T13:07:08Z</time>
      </trkpt>
      <trkpt lat="43.41236" lon="5.48851">
        <ele>477.077</ele>
        <time>2011-11-23T13:07:18Z</time>
      </trkpt>
      <trkpt lat="43.41236" lon="5.4885">
        <ele>475.678</ele>
        <time>2011-11-23T13:07:28Z</time>
      </trkpt>
      <trkpt lat="43.41236" lon="5.4885">
        <ele>476.274</ele>
        <time>2011-11-23T13:07:38Z</time>
      </trkpt>
      <trkpt lat="43.41236" lon="5.4885">
        <ele>476.265</ele>
        <time>2011-11-23T13:07:48Z</time>
      </trkpt>
      <trkpt lat="43.41236" lon="5.4885">
        <ele>475.961</ele>
        <time>2011-11-23T13:07:58Z</time>
      </trkpt>
      <trkpt lat="43.41236" lon="5.4885">
        <ele>475.874</ele>
        <time>2011-11-23T13:08:08Z</time>
      </trkpt>
      <trkpt lat="43.41236" lon="5.48845">
        <ele>475.583</ele>
        <time>2011-11-23T13:08:18Z</time>
      </trkpt>
      <trkpt lat="43.4124" lon="5.4884">
        <ele>474.918</ele>
        <time>2011-11-23T13:08:28Z</time>
      </trkpt>
      <trkpt lat="43.41243" lon="5.48828">
        <ele>474.917</ele>
        <time>2011-11-23T13:08:38Z</time>
      </trkpt>
      <trkpt lat="43.41249" lon="5.48816">
        <ele>474.245</ele>
        <time>2011-11-23T13:08:48Z</time>
      </trkpt>
      <trkpt lat="43.41257" lon="5.48802">
        <ele>473.564</ele>
        <time>2011-11-23T13:08:58Z</time>
      </trkpt>
      <trkpt lat="43.41267" lon="5.48794">
        <ele>473.105</ele>
        <time>2011-11-23T13:09:08Z</time>
      </trkpt>
      <trkpt lat="43.41275" lon="5.48784">
        <ele>472.919</ele>
        <time>2011-11-23T13:09:18Z</time>
      </trkpt>
      <trkpt lat="43.41281" lon="5.48776">
        <ele>472.337</ele>
        <time>2011-11-23T13:09:28Z</time>
      </trkpt>
      <trkpt lat="43.41287" lon="5.48769">
        <ele>472.288</ele>
        <time>2011-11-23T13:09:38Z</time>
      </trkpt>
      <trkpt lat="43.41295" lon="5.48759">
        <ele>471.502</ele>
        <time>2011-11-23T13:09:48Z</time>
      </trkpt>
      <trkpt lat="43.41296" lon="5.48742">
        <ele>470.326</ele>
        <time>2011-11-23T13:09:58Z</time>
      </trkpt>
      <trkpt lat="43.41294" lon="5.48728">
        <ele>469.385</ele>
        <time>2011-11-23T13:10:08Z</time>
      </trkpt>
      <trkpt lat="43.41294" lon="5.48715">
        <ele>468.106</ele>
        <time>2011-11-23T13:10:18Z</time>
      </trkpt>
      <trkpt lat="43.41292" lon="5.48702">
        <ele>466.677</ele>
        <time>2011-11-23T13:10:28Z</time>
      </trkpt>
      <trkpt lat="43.41291" lon="5.48696">
        <ele>466.214</ele>
        <time>2011-11-23T13:10:38Z</time>
      </trkpt>
      <trkpt lat="43.41293" lon="5.48711">
        <ele>467.057</ele>
        <time>2011-11-23T13:10:48Z</time>
      </trkpt>
      <trkpt lat="43.41292" lon="5.48714">
        <ele>467.929</ele>
        <time>2011-11-23T13:10:58Z</time>
      </trkpt>
      <trkpt lat="43.41292" lon="5.48714">
        <ele>467.738</ele>
        <time>2011-11-23T13:11:08Z</time>
      </trkpt>
      <trkpt lat="43.41293" lon="5.48714">
        <ele>468.439</ele>
        <time>2011-11-23T13:11:18Z</time>
      </trkpt>
      <trkpt lat="43.41291" lon="5.48713">
        <ele>468.492</ele>
        <time>2011-11-23T13:11:28Z</time>
      </trkpt>
      <trkpt lat="43.41293" lon="5.48713">
        <ele>467.438</ele>
        <time>2011-11-23T13:11:38Z</time>
      </trkpt>
      <trkpt lat="43.41292" lon="5.48712">
        <ele>467.789</ele>
        <time>2011-11-23T13:11:48Z</time>
      </trkpt>
      <trkpt lat="43.41292" lon="5.48712">
        <ele>468.042</ele>
        <time>2011-11-23T13:11:58Z</time>
      </trkpt>
      <trkpt lat="43.41293" lon="5.48714">
        <ele>467.328</ele>
        <time>2011-11-23T13:12:08Z</time>
      </trkpt>
      <trkpt lat="43.41293" lon="5.48715">
        <ele>468.069</ele>
        <time>2011-11-23T13:12:18Z</time>
      </trkpt>
      <trkpt lat="43.41293" lon="5.48714">
        <ele>467.779</ele>
        <time>2011-11-23T13:12:28Z</time>
      </trkpt>
      <trkpt lat="43.41293" lon="5.48714">
        <ele>468.265</ele>
        <time>2011-11-23T13:12:38Z</time>
      </trkpt>
      <trkpt lat="43.41293" lon="5.48714">
        <ele>468.136</ele>
        <time>2011-11-23T13:12:48Z</time>
      </trkpt>
      <trkpt lat="43.41293" lon="5.48714">
        <ele>468.375</ele>
        <time>2011-11-23T13:12:58Z</time>
      </trkpt>
      <trkpt lat="43.41293" lon="5.48714">
        <ele>468.196</ele>
        <time>2011-11-23T13:13:08Z</time>
      </trkpt>
      <trkpt lat="43.41294" lon="5.48714">
        <ele>468.573</ele>
        <time>2011-11-23T13:13:18Z</time>
      </trkpt>
      <trkpt lat="43.41294" lon="5.48714">
        <ele>468.566</ele>
        <time>2011-11-23T13:13:28Z</time>
      </trkpt>
      <trkpt lat="43.41294" lon="5.48714">
        <ele>468.496</ele>
        <time>2011-11-23T13:13:38Z</time>
      </trkpt>
      <trkpt lat="43.41294" lon="5.48714">
        <ele>468.466</ele>
        <time>2011-11-23T13:13:48Z</time>
      </trkpt>
      <trkpt lat="43.41294" lon="5.48714">
        <ele>468.663</ele>
        <time>2011-11-23T13:13:58Z</time>
      </trkpt>
      <trkpt lat="43.41294" lon="5.48714">
        <ele>468.582</ele>
        <time>2011-11-23T13:14:08Z</time>
      </trkpt>
      <trkpt lat="43.41294" lon="5.48714">
        <ele>468.205</ele>
        <time>2011-11-23T13:14:18Z</time>
      </trkpt>
      <trkpt lat="43.41294" lon="5.48714">
        <ele>468.895</ele>
        <time>2011-11-23T13:14:28Z</time>
      </trkpt>
      <trkpt lat="43.41294" lon="5.48714">
        <ele>468.948</ele>
        <time>2011-11-23T13:14:38Z</time>
      </trkpt>
      <trkpt lat="43.41294" lon="5.48714">
        <ele>469.118</ele>
        <time>2011-11-23T13:14:48Z</time>
      </trkpt>
      <trkpt lat="43.41294" lon="5.48714">
        <ele>469.104</ele>
        <time>2011-11-23T13:14:58Z</time>
      </trkpt>
      <trkpt lat="43.41294" lon="5.48714">
        <ele>468.986</ele>
        <time>2011-11-23T13:15:08Z</time>
      </trkpt>
      <trkpt lat="43.41294" lon="5.48714">
        <ele>468.463</ele>
        <time>2011-11-23T13:15:18Z</time>
      </trkpt>
      <trkpt lat="43.41293" lon="5.48714">
        <ele>468.555</ele>
        <time>2011-11-23T13:15:28Z</time>
      </trkpt>
      <trkpt lat="43.41293" lon="5.48714">
        <ele>468.921</ele>
        <time>2011-11-23T13:15:38Z</time>
      </trkpt>
      <trkpt lat="43.41293" lon="5.48714">
        <ele>468.541</ele>
        <time>2011-11-23T13:15:48Z</time>
      </trkpt>
      <trkpt lat="43.41294" lon="5.48713">
        <ele>469.015</ele>
        <time>2011-11-23T13:15:58Z</time>
      </trkpt>
      <trkpt lat="43.41294" lon="5.48713">
        <ele>468.507</ele>
        <time>2011-11-23T13:16:08Z</time>
      </trkpt>
      <trkpt lat="43.41295" lon="5.48712">
        <ele>468.854</ele>
        <time>2011-11-23T13:16:18Z</time>
      </trkpt>
      <trkpt lat="43.41296" lon="5.48711">
        <ele>468.923</ele>
        <time>2011-11-23T13:16:28Z</time>
      </trkpt>
      <trkpt lat="43.41297" lon="5.48711">
        <ele>469.308</ele>
        <time>2011-11-23T13:16:38Z</time>
      </trkpt>
      <trkpt lat="43.41297" lon="5.48711">
        <ele>468.469</ele>
        <time>2011-11-23T13:16:48Z</time>
      </trkpt>
      <trkpt lat="43.41296" lon="5.48711">
        <ele>468.816</ele>
        <time>2011-11-23T13:16:58Z</time>
      </trkpt>
      <trkpt lat="43.41295" lon="5.48711">
        <ele>468.62</ele>
        <time>2011-11-23T13:17:08Z</time>
      </trkpt>
      <trkpt lat="43.41295" lon="5.48711">
        <ele>468.947</ele>
        <time>2011-11-23T13:17:18Z</time>
      </trkpt>
      <trkpt lat="43.41295" lon="5.48711">
        <ele>468.572</ele>
        <time>2011-11-23T13:17:28Z</time>
      </trkpt>
      <trkpt lat="43.41295" lon="5.48711">
        <ele>468.723</ele>
        <time>2011-11-23T13:17:38Z</time>
      </trkpt>
      <trkpt lat="43.41295" lon="5.48711">
        <ele>468.866</ele>
        <time>2011-11-23T13:17:48Z</time>
      </trkpt>
      <trkpt lat="43.41295" lon="5.48711">
        <ele>468.641</ele>
        <time>2011-11-23T13:17:58Z</time>
      </trkpt>
      <trkpt lat="43.41295" lon="5.48711">
        <ele>468.857</ele>
        <time>2011-11-23T13:18:08Z</time>
      </trkpt>
      <trkpt lat="43.41295" lon="5.48711">
        <ele>468.598</ele>
        <time>2011-11-23T13:18:18Z</time>
      </trkpt>
      <trkpt lat="43.41295" lon="5.48711">
        <ele>468.858</ele>
        <time>2011-11-23T13:18:28Z</time>
      </trkpt>
      <trkpt lat="43.41295" lon="5.48711">
        <ele>468.597</ele>
        <time>2011-11-23T13:18:38Z</time>
      </trkpt>
      <trkpt lat="43.41295" lon="5.48711">
        <ele>468.936</ele>
        <time>2011-11-23T13:18:48Z</time>
      </trkpt>
      <trkpt lat="43.41295" lon="5.48711">
        <ele>469.054</ele>
        <time>2011-11-23T13:18:58Z</time>
      </trkpt>
      <trkpt lat="43.41295" lon="5.48711">
        <ele>469.064</ele>
        <time>2011-11-23T13:19:08Z</time>
      </trkpt>
      <trkpt lat="43.41295" lon="5.48711">
        <ele>469.114</ele>
        <time>2011-11-23T13:19:18Z</time>
      </trkpt>
      <trkpt lat="43.41295" lon="5.48711">
        <ele>468.902</ele>
        <time>2011-11-23T13:19:28Z</time>
      </trkpt>
      <trkpt lat="43.41295" lon="5.48711">
        <ele>469.104</ele>
        <time>2011-11-23T13:19:38Z</time>
      </trkpt>
      <trkpt lat="43.41295" lon="5.48711">
        <ele>468.817</ele>
        <time>2011-11-23T13:19:48Z</time>
      </trkpt>
      <trkpt lat="43.41295" lon="5.48711">
        <ele>469.192</ele>
        <time>2011-11-23T13:19:58Z</time>
      </trkpt>
      <trkpt lat="43.41295" lon="5.48711">
        <ele>469.061</ele>
        <time>2011-11-23T13:20:08Z</time>
      </trkpt>
      <trkpt lat="43.41295" lon="5.48711">
        <ele>469.142</ele>
        <time>2011-11-23T13:20:18Z</time>
      </trkpt>
      <trkpt lat="43.41295" lon="5.48711">
        <ele>468.866</ele>
        <time>2011-11-23T13:20:28Z</time>
      </trkpt>
      <trkpt lat="43.41295" lon="5.48711">
        <ele>468.813</ele>
        <time>2011-11-23T13:20:38Z</time>
      </trkpt>
      <trkpt lat="43.41295" lon="5.48711">
        <ele>469.167</ele>
        <time>2011-11-23T13:20:48Z</time>
      </trkpt>
      <trkpt lat="43.41295" lon="5.48711">
        <ele>469.055</ele>
        <time>2011-11-23T13:20:58Z</time>
      </trkpt>
      <trkpt lat="43.41295" lon="5.48711">
        <ele>469.454</ele>
        <time>2011-11-23T13:21:08Z</time>
      </trkpt>
      <trkpt lat="43.41295" lon="5.48711">
        <ele>469.369</ele>
        <time>2011-11-23T13:21:18Z</time>
      </trkpt>
      <trkpt lat="43.41295" lon="5.48711">
        <ele>469.535</ele>
        <time>2011-11-23T13:21:28Z</time>
      </trkpt>
      <trkpt lat="43.41295" lon="5.48711">
        <ele>469.549</ele>
        <time>2011-11-23T13:21:38Z</time>
      </trkpt>
      <trkpt lat="43.41294" lon="5.48713">
        <ele>469.258</ele>
        <time>2011-11-23T13:21:48Z</time>
      </trkpt>
      <trkpt lat="43.41294" lon="5.48713">
        <ele>469.549</ele>
        <time>2011-11-23T13:21:58Z</time>
      </trkpt>
      <trkpt lat="43.41294" lon="5.48713">
        <ele>469.808</ele>
        <time>2011-11-23T13:22:08Z</time>
      </trkpt>
      <trkpt lat="43.41294" lon="5.48713">
        <ele>469.267</ele>
        <time>2011-11-23T13:22:18Z</time>
      </trkpt>
      <trkpt lat="43.41294" lon="5.48713">
        <ele>469.586</ele>
        <time>2011-11-23T13:22:28Z</time>
      </trkpt>
      <trkpt lat="43.41293" lon="5.48713">
        <ele>470.001</ele>
        <time>2011-11-23T13:22:38Z</time>
      </trkpt>
      <trkpt lat="43.41293" lon="5.48714">
        <ele>469.868</ele>
        <time>2011-11-23T13:22:48Z</time>
      </trkpt>
      <trkpt lat="43.41293" lon="5.48714">
        <ele>469.811</ele>
        <time>2011-11-23T13:22:58Z</time>
      </trkpt>
      <trkpt lat="43.41293" lon="5.48714">
        <ele>468.983</ele>
        <time>2011-11-23T13:23:08Z</time>
      </trkpt>
      <trkpt lat="43.41293" lon="5.48714">
        <ele>470.002</ele>
        <time>2011-11-23T13:23:18Z</time>
      </trkpt>
      <trkpt lat="43.41293" lon="5.48714">
        <ele>470.05</ele>
        <time>2011-11-23T13:23:28Z</time>
      </trkpt>
      <trkpt lat="43.41293" lon="5.48714">
        <ele>469.774</ele>
        <time>2011-11-23T13:23:38Z</time>
      </trkpt>
      <trkpt lat="43.41293" lon="5.48714">
        <ele>469.882</ele>
        <time>2011-11-23T13:23:48Z</time>
      </trkpt>
      <trkpt lat="43.41293" lon="5.48714">
        <ele>469.641</ele>
        <time>2011-11-23T13:23:58Z</time>
      </trkpt>
      <trkpt lat="43.41292" lon="5.48714">
        <ele>470.008</ele>
        <time>2011-11-23T13:24:08Z</time>
      </trkpt>
      <trkpt lat="43.41292" lon="5.48714">
        <ele>470.105</ele>
        <time>2011-11-23T13:24:18Z</time>
      </trkpt>
      <trkpt lat="43.41292" lon="5.48714">
        <ele>469.999</ele>
        <time>2011-11-23T13:24:28Z</time>
      </trkpt>
      <trkpt lat="43.41292" lon="5.48714">
        <ele>470.082</ele>
        <time>2011-11-23T13:24:38Z</time>
      </trkpt>
      <trkpt lat="43.41292" lon="5.48714">
        <ele>470.267</ele>
        <time>2011-11-23T13:24:48Z</time>
      </trkpt>
      <trkpt lat="43.41292" lon="5.48714">
        <ele>470.057</ele>
        <time>2011-11-23T13:24:58Z</time>
      </trkpt>
      <trkpt lat="43.41292" lon="5.48714">
        <ele>470.162</ele>
        <time>2011-11-23T13:25:08Z</time>
      </trkpt>
      <trkpt lat="43.41292" lon="5.48714">
        <ele>470.116</ele>
        <time>2011-11-23T13:25:18Z</time>
      </trkpt>
      <trkpt lat="43.41292" lon="5.48714">
        <ele>470.1</ele>
        <time>2011-11-23T13:25:28Z</time>
      </trkpt>
      <trkpt lat="43.41292" lon="5.48714">
        <ele>470.407</ele>
        <time>2011-11-23T13:25:38Z</time>
      </trkpt>
      <trkpt lat="43.41292" lon="5.48714">
        <ele>470.223</ele>
        <time>2011-11-23T13:25:48Z</time>
      </trkpt>
      <trkpt lat="43.41292" lon="5.48713">
        <ele>470.039</ele>
        <time>2011-11-23T13:25:58Z</time>
      </trkpt>
      <trkpt lat="43.41292" lon="5.48713">
        <ele>469.617</ele>
        <time>2011-11-23T13:26:08Z</time>
      </trkpt>
      <trkpt lat="43.41292" lon="5.48711">
        <ele>470.069</ele>
        <time>2011-11-23T13:26:18Z</time>
      </trkpt>
      <trkpt lat="43.41292" lon="5.4871">
        <ele>470.123</ele>
        <time>2011-11-23T13:26:28Z</time>
      </trkpt>
      <trkpt lat="43.41293" lon="5.48709">
        <ele>469.676</ele>
        <time>2011-11-23T13:26:38Z</time>
      </trkpt>
      <trkpt lat="43.41293" lon="5.48709">
        <ele>469.811</ele>
        <time>2011-11-23T13:26:48Z</time>
      </trkpt>
      <trkpt lat="43.41293" lon="5.4871">
        <ele>470.241</ele>
        <time>2011-11-23T13:26:58Z</time>
      </trkpt>
      <trkpt lat="43.41294" lon="5.4871">
        <ele>470.222</ele>
        <time>2011-11-23T13:27:08Z</time>
      </trkpt>
      <trkpt lat="43.41294" lon="5.48703">
        <ele>469.242</ele>
        <time>2011-11-23T13:27:18Z</time>
      </trkpt>
      <trkpt lat="43.41294" lon="5.48685">
        <ele>468.431</ele>
        <time>2011-11-23T13:27:28Z</time>
      </trkpt>
      <trkpt lat="43.41295" lon="5.48673">
        <ele>467.56</ele>
        <time>2011-11-23T13:27:38Z</time>
      </trkpt>
      <trkpt lat="43.41299" lon="5.48662">
        <ele>466.595</ele>
        <time>2011-11-23T13:27:48Z</time>
      </trkpt>
      <trkpt lat="43.41304" lon="5.4865">
        <ele>465.436</ele>
        <time>2011-11-23T13:27:58Z</time>
      </trkpt>
      <trkpt lat="43.4131" lon="5.48637">
        <ele>465.294</ele>
        <time>2011-11-23T13:28:08Z</time>
      </trkpt>
      <trkpt lat="43.41316" lon="5.48629">
        <ele>464.527</ele>
        <time>2011-11-23T13:28:18Z</time>
      </trkpt>
      <trkpt lat="43.41329" lon="5.48624">
        <ele>464.327</ele>
        <time>2011-11-23T13:28:28Z</time>
      </trkpt>
      <trkpt lat="43.41336" lon="5.48616">
        <ele>462.826</ele>
        <time>2011-11-23T13:28:38Z</time>
      </trkpt>
      <trkpt lat="43.41339" lon="5.48601">
        <ele>462.722</ele>
        <time>2011-11-23T13:28:48Z</time>
      </trkpt>
      <trkpt lat="43.41344" lon="5.48589">
        <ele>462.173</ele>
        <time>2011-11-23T13:28:58Z</time>
      </trkpt>
      <trkpt lat="43.41349" lon="5.48577">
        <ele>461.134</ele>
        <time>2011-11-23T13:29:08Z</time>
      </trkpt>
      <trkpt lat="43.41357" lon="5.48568">
        <ele>459.103</ele>
        <time>2011-11-23T13:29:18Z</time>
      </trkpt>
      <trkpt lat="43.41364" lon="5.48553">
        <ele>457.504</ele>
        <time>2011-11-23T13:29:28Z</time>
      </trkpt>
      <trkpt lat="43.4137" lon="5.48542">
        <ele>456.537</ele>
        <time>2011-11-23T13:29:38Z</time>
      </trkpt>
      <trkpt lat="43.41375" lon="5.48541">
        <ele>456.102</ele>
        <time>2011-11-23T13:29:48Z</time>
      </trkpt>
      <trkpt lat="43.41383" lon="5.48545">
        <ele>458.119</ele>
        <time>2011-11-23T13:29:58Z</time>
      </trkpt>
      <trkpt lat="43.41391" lon="5.48549">
        <ele>459.136</ele>
        <time>2011-11-23T13:30:08Z</time>
      </trkpt>
      <trkpt lat="43.41399" lon="5.48552">
        <ele>459.402</ele>
        <time>2011-11-23T13:30:18Z</time>
      </trkpt>
      <trkpt lat="43.41403" lon="5.48556">
        <ele>460.248</ele>
        <time>2011-11-23T13:30:28Z</time>
      </trkpt>
      <trkpt lat="43.41399" lon="5.48553">
        <ele>459.62</ele>
        <time>2011-11-23T13:30:38Z</time>
      </trkpt>
      <trkpt lat="43.41391" lon="5.48553">
        <ele>459.297</ele>
        <time>2011-11-23T13:30:48Z</time>
      </trkpt>
      <trkpt lat="43.41382" lon="5.48544">
        <ele>458.143</ele>
        <time>2011-11-23T13:30:58Z</time>
      </trkpt>
      <trkpt lat="43.41375" lon="5.48537">
        <ele>456.176</ele>
        <time>2011-11-23T13:31:08Z</time>
      </trkpt>
      <trkpt lat="43.41384" lon="5.48525">
        <ele>454.823</ele>
        <time>2011-11-23T13:31:18Z</time>
      </trkpt>
      <trkpt lat="43.41386" lon="5.4851">
        <ele>453.24</ele>
        <time>2011-11-23T13:31:28Z</time>
      </trkpt>
      <trkpt lat="43.41388" lon="5.48494">
        <ele>451.426</ele>
        <time>2011-11-23T13:31:38Z</time>
      </trkpt>
      <trkpt lat="43.41391" lon="5.48477">
        <ele>449.866</ele>
        <time>2011-11-23T13:31:48Z</time>
      </trkpt>
      <trkpt lat="43.41394" lon="5.48458">
        <ele>448.341</ele>
        <time>2011-11-23T13:31:58Z</time>
      </trkpt>
      <trkpt lat="43.41397" lon="5.48444">
        <ele>447.195</ele>
        <time>2011-11-23T13:32:08Z</time>
      </trkpt>
      <trkpt lat="43.41398" lon="5.48427">
        <ele>445.976</ele>
        <time>2011-11-23T13:32:18Z</time>
      </trkpt>
      <trkpt lat="43.41399" lon="5.48413">
        <ele>444.519</ele>
        <time>2011-11-23T13:32:28Z</time>
      </trkpt>
      <trkpt lat="43.41402" lon="5.48395">
        <ele>444.222</ele>
        <time>2011-11-23T13:32:38Z</time>
      </trkpt>
      <trkpt lat="43.41403" lon="5.48379">
        <ele>443.016</ele>
        <time>2011-11-23T13:32:48Z</time>
      </trkpt>
      <trkpt lat="43.4141" lon="5.48365">
        <ele>442.309</ele>
        <time>2011-11-23T13:32:58Z</time>
      </trkpt>
      <trkpt lat="43.41419" lon="5.48352">
        <ele>442.382</ele>
        <time>2011-11-23T13:33:08Z</time>
      </trkpt>
      <trkpt lat="43.4143" lon="5.48342">
        <ele>441.631</ele>
        <time>2011-11-23T13:33:18Z</time>
      </trkpt>
      <trkpt lat="43.41437" lon="5.4833">
        <ele>440.868</ele>
        <time>2011-11-23T13:33:28Z</time>
      </trkpt>
      <trkpt lat="43.41439" lon="5.48317">
        <ele>441.079</ele>
        <time>2011-11-23T13:33:38Z</time>
      </trkpt>
      <trkpt lat="43.41442" lon="5.48301">
        <ele>440.294</ele>
        <time>2011-11-23T13:33:48Z</time>
      </trkpt>
      <trkpt lat="43.41444" lon="5.48288">
        <ele>440.61</ele>
        <time>2011-11-23T13:33:58Z</time>
      </trkpt>
      <trkpt lat="43.4145" lon="5.48274">
        <ele>439.789</ele>
        <time>2011-11-23T13:34:08Z</time>
      </trkpt>
      <trkpt lat="43.41453" lon="5.4826">
        <ele>440.209</ele>
        <time>2011-11-23T13:34:18Z</time>
      </trkpt>
      <trkpt lat="43.41455" lon="5.48243">
        <ele>439.781</ele>
        <time>2011-11-23T13:34:28Z</time>
      </trkpt>
      <trkpt lat="43.41456" lon="5.48228">
        <ele>440.073</ele>
        <time>2011-11-23T13:34:38Z</time>
      </trkpt>
      <trkpt lat="43.41457" lon="5.48215">
        <ele>440.159</ele>
        <time>2011-11-23T13:34:48Z</time>
      </trkpt>
      <trkpt lat="43.41462" lon="5.48202">
        <ele>439.947</ele>
        <time>2011-11-23T13:34:58Z</time>
      </trkpt>
      <trkpt lat="43.41467" lon="5.48186">
        <ele>439.814</ele>
        <time>2011-11-23T13:35:08Z</time>
      </trkpt>
      <trkpt lat="43.41469" lon="5.48171">
        <ele>439.643</ele>
        <time>2011-11-23T13:35:18Z</time>
      </trkpt>
      <trkpt lat="43.41475" lon="5.48154">
        <ele>439.519</ele>
        <time>2011-11-23T13:35:28Z</time>
      </trkpt>
      <trkpt lat="43.41482" lon="5.48142">
        <ele>439.583</ele>
        <time>2011-11-23T13:35:38Z</time>
      </trkpt>
      <trkpt lat="43.41487" lon="5.48127">
        <ele>439.523</ele>
        <time>2011-11-23T13:35:48Z</time>
      </trkpt>
      <trkpt lat="43.4149" lon="5.48109">
        <ele>438.604</ele>
        <time>2011-11-23T13:35:58Z</time>
      </trkpt>
      <trkpt lat="43.41498" lon="5.48097">
        <ele>438.553</ele>
        <time>2011-11-23T13:36:08Z</time>
      </trkpt>
      <trkpt lat="43.415" lon="5.48083">
        <ele>437.549</ele>
        <time>2011-11-23T13:36:18Z</time>
      </trkpt>
      <trkpt lat="43.41504" lon="5.48066">
        <ele>437.03</ele>
        <time>2011-11-23T13:36:28Z</time>
      </trkpt>
      <trkpt lat="43.4151" lon="5.48052">
        <ele>436.267</ele>
        <time>2011-11-23T13:36:38Z</time>
      </trkpt>
      <trkpt lat="43.41517" lon="5.4804">
        <ele>435.611</ele>
        <time>2011-11-23T13:36:48Z</time>
      </trkpt>
      <trkpt lat="43.41525" lon="5.48031">
        <ele>433.774</ele>
        <time>2011-11-23T13:36:58Z</time>
      </trkpt>
      <trkpt lat="43.41524" lon="5.48029">
        <ele>434.309</ele>
        <time>2011-11-23T13:37:08Z</time>
      </trkpt>
      <trkpt lat="43.41518" lon="5.48042">
        <ele>434.812</ele>
        <time>2011-11-23T13:37:18Z</time>
      </trkpt>
      <trkpt lat="43.41516" lon="5.48032">
        <ele>434.775</ele>
        <time>2011-11-23T13:37:28Z</time>
      </trkpt>
      <trkpt lat="43.41518" lon="5.48017">
        <ele>433.769</ele>
        <time>2011-11-23T13:37:38Z</time>
      </trkpt>
      <trkpt lat="43.41521" lon="5.48001">
        <ele>432.31</ele>
        <time>2011-11-23T13:37:48Z</time>
      </trkpt>
      <trkpt lat="43.41525" lon="5.47988">
        <ele>430.912</ele>
        <time>2011-11-23T13:37:58Z</time>
      </trkpt>
      <trkpt lat="43.41527" lon="5.47971">
        <ele>428.605</ele>
        <time>2011-11-23T13:38:08Z</time>
      </trkpt>
      <trkpt lat="43.41531" lon="5.47957">
        <ele>426.467</ele>
        <time>2011-11-23T13:38:18Z</time>
      </trkpt>
      <trkpt lat="43.4153" lon="5.47944">
        <ele>425.229</ele>
        <time>2011-11-23T13:38:28Z</time>
      </trkpt>
      <trkpt lat="43.41533" lon="5.47929">
        <ele>423.052</ele>
        <time>2011-11-23T13:38:38Z</time>
      </trkpt>
      <trkpt lat="43.41533" lon="5.47917">
        <ele>421.223</ele>
        <time>2011-11-23T13:38:48Z</time>
      </trkpt>
      <trkpt lat="43.41536" lon="5.47906">
        <ele>419.058</ele>
        <time>2011-11-23T13:38:58Z</time>
      </trkpt>
      <trkpt lat="43.41539" lon="5.47892">
        <ele>417.458</ele>
        <time>2011-11-23T13:39:08Z</time>
      </trkpt>
      <trkpt lat="43.41541" lon="5.47877">
        <ele>415.785</ele>
        <time>2011-11-23T13:39:18Z</time>
      </trkpt>
      <trkpt lat="43.41544" lon="5.47865">
        <ele>413.978</ele>
        <time>2011-11-23T13:39:28Z</time>
      </trkpt>
      <trkpt lat="43.41544" lon="5.47851">
        <ele>412.071</ele>
        <time>2011-11-23T13:39:38Z</time>
      </trkpt>
      <trkpt lat="43.41546" lon="5.47838">
        <ele>410.514</ele>
        <time>2011-11-23T13:39:48Z</time>
      </trkpt>
      <trkpt lat="43.41544" lon="5.47823">
        <ele>408.356</ele>
        <time>2011-11-23T13:39:58Z</time>
      </trkpt>
      <trkpt lat="43.41544" lon="5.47814">
        <ele>406.683</ele>
        <time>2011-11-23T13:40:08Z</time>
      </trkpt>
      <trkpt lat="43.41552" lon="5.47811">
        <ele>406.488</ele>
        <time>2011-11-23T13:40:18Z</time>
      </trkpt>
      <trkpt lat="43.4156" lon="5.47803">
        <ele>405.805</ele>
        <time>2011-11-23T13:40:28Z</time>
      </trkpt>
      <trkpt lat="43.41564" lon="5.478">
        <ele>404.674</ele>
        <time>2011-11-23T13:40:38Z</time>
      </trkpt>
      <trkpt lat="43.41573" lon="5.47789">
        <ele>404.099</ele>
        <time>2011-11-23T13:40:48Z</time>
      </trkpt>
      <trkpt lat="43.4158" lon="5.47779">
        <ele>403.377</ele>
        <time>2011-11-23T13:40:58Z</time>
      </trkpt>
      <trkpt lat="43.41592" lon="5.47767">
        <ele>402.601</ele>
        <time>2011-11-23T13:41:08Z</time>
      </trkpt>
      <trkpt lat="43.416" lon="5.47759">
        <ele>402.048</ele>
        <time>2011-11-23T13:41:18Z</time>
      </trkpt>
      <trkpt lat="43.41608" lon="5.47753">
        <ele>400.704</ele>
        <time>2011-11-23T13:41:28Z</time>
      </trkpt>
      <trkpt lat="43.41607" lon="5.4775">
        <ele>400.724</ele>
        <time>2011-11-23T13:41:38Z</time>
      </trkpt>
      <trkpt lat="43.41607" lon="5.47751">
        <ele>400.607</ele>
        <time>2011-11-23T13:41:48Z</time>
      </trkpt>
      <trkpt lat="43.41607" lon="5.4775">
        <ele>400.924</ele>
        <time>2011-11-23T13:41:58Z</time>
      </trkpt>
      <trkpt lat="43.41608" lon="5.4775">
        <ele>400.785</ele>
        <time>2011-11-23T13:42:08Z</time>
      </trkpt>
      <trkpt lat="43.41618" lon="5.47741">
        <ele>399.642</ele>
        <time>2011-11-23T13:42:18Z</time>
      </trkpt>
      <trkpt lat="43.41629" lon="5.47732">
        <ele>399.324</ele>
        <time>2011-11-23T13:42:28Z</time>
      </trkpt>
      <trkpt lat="43.41641" lon="5.47727">
        <ele>398.049</ele>
        <time>2011-11-23T13:42:38Z</time>
      </trkpt>
      <trkpt lat="43.41653" lon="5.47717">
        <ele>397.211</ele>
        <time>2011-11-23T13:42:48Z</time>
      </trkpt>
      <trkpt lat="43.41663" lon="5.47707">
        <ele>396.711</ele>
        <time>2011-11-23T13:42:58Z</time>
      </trkpt>
      <trkpt lat="43.41673" lon="5.47697">
        <ele>395.661</ele>
        <time>2011-11-23T13:43:08Z</time>
      </trkpt>
      <trkpt lat="43.41683" lon="5.4769">
        <ele>395.01</ele>
        <time>2011-11-23T13:43:18Z</time>
      </trkpt>
      <trkpt lat="43.41692" lon="5.47683">
        <ele>394.999</ele>
        <time>2011-11-23T13:43:28Z</time>
      </trkpt>
      <trkpt lat="43.41705" lon="5.47672">
        <ele>394.276</ele>
        <time>2011-11-23T13:43:38Z</time>
      </trkpt>
      <trkpt lat="43.41718" lon="5.47662">
        <ele>393.531</ele>
        <time>2011-11-23T13:43:48Z</time>
      </trkpt>
      <trkpt lat="43.41726" lon="5.47649">
        <ele>392.858</ele>
        <time>2011-11-23T13:43:58Z</time>
      </trkpt>
      <trkpt lat="43.41736" lon="5.4764">
        <ele>392.18</ele>
        <time>2011-11-23T13:44:08Z</time>
      </trkpt>
      <trkpt lat="43.41745" lon="5.47627">
        <ele>391.95</ele>
        <time>2011-11-23T13:44:18Z</time>
      </trkpt>
      <trkpt lat="43.4176" lon="5.47618">
        <ele>390.881</ele>
        <time>2011-11-23T13:44:28Z</time>
      </trkpt>
      <trkpt lat="43.4177" lon="5.47613">
        <ele>390.091</ele>
        <time>2011-11-23T13:44:38Z</time>
      </trkpt>
      <trkpt lat="43.41783" lon="5.4761">
        <ele>389.544</ele>
        <time>2011-11-23T13:44:48Z</time>
      </trkpt>
      <trkpt lat="43.41794" lon="5.47609">
        <ele>389.14</ele>
        <time>2011-11-23T13:44:58Z</time>
      </trkpt>
      <trkpt lat="43.41807" lon="5.47606">
        <ele>388.659</ele>
        <time>2011-11-23T13:45:08Z</time>
      </trkpt>
      <trkpt lat="43.41822" lon="5.47612">
        <ele>387.983</ele>
        <time>2011-11-23T13:45:18Z</time>
      </trkpt>
      <trkpt lat="43.41832" lon="5.47624">
        <ele>387.753</ele>
        <time>2011-11-23T13:45:28Z</time>
      </trkpt>
      <trkpt lat="43.41845" lon="5.47632">
        <ele>387.761</ele>
        <time>2011-11-23T13:45:38Z</time>
      </trkpt>
      <trkpt lat="43.41854" lon="5.47636">
        <ele>387.821</ele>
        <time>2011-11-23T13:45:48Z</time>
      </trkpt>
      <trkpt lat="43.41862" lon="5.47625">
        <ele>387.856</ele>
        <time>2011-11-23T13:45:58Z</time>
      </trkpt>
      <trkpt lat="43.41866" lon="5.47612">
        <ele>387.89</ele>
        <time>2011-11-23T13:46:08Z</time>
      </trkpt>
      <trkpt lat="43.4187" lon="5.47598">
        <ele>387.351</ele>
        <time>2011-11-23T13:46:18Z</time>
      </trkpt>
      <trkpt lat="43.41873" lon="5.47586">
        <ele>386.314</ele>
        <time>2011-11-23T13:46:28Z</time>
      </trkpt>
      <trkpt lat="43.4188" lon="5.47574">
        <ele>385.878</ele>
        <time>2011-11-23T13:46:38Z</time>
      </trkpt>
      <trkpt lat="43.41886" lon="5.47557">
        <ele>385.823</ele>
        <time>2011-11-23T13:46:48Z</time>
      </trkpt>
      <trkpt lat="43.41893" lon="5.47543">
        <ele>384.776</ele>
        <time>2011-11-23T13:46:58Z</time>
      </trkpt>
      <trkpt lat="43.41903" lon="5.47533">
        <ele>384.124</ele>
        <time>2011-11-23T13:47:08Z</time>
      </trkpt>
      <trkpt lat="43.41912" lon="5.4752">
        <ele>383.627</ele>
        <time>2011-11-23T13:47:18Z</time>
      </trkpt>
      <trkpt lat="43.41913" lon="5.47505">
        <ele>382.996</ele>
        <time>2011-11-23T13:47:28Z</time>
      </trkpt>
      <trkpt lat="43.41916" lon="5.47489">
        <ele>382.914</ele>
        <time>2011-11-23T13:47:38Z</time>
      </trkpt>
      <trkpt lat="43.4192" lon="5.47474">
        <ele>382.595</ele>
        <time>2011-11-23T13:47:48Z</time>
      </trkpt>
      <trkpt lat="43.41928" lon="5.47461">
        <ele>382.292</ele>
        <time>2011-11-23T13:47:58Z</time>
      </trkpt>
      <trkpt lat="43.4193" lon="5.47452">
        <ele>382.159</ele>
        <time>2011-11-23T13:48:08Z</time>
      </trkpt>
      <trkpt lat="43.4193" lon="5.47449">
        <ele>382.733</ele>
        <time>2011-11-23T13:48:18Z</time>
      </trkpt>
      <trkpt lat="43.4193" lon="5.47449">
        <ele>382.62</ele>
        <time>2011-11-23T13:48:28Z</time>
      </trkpt>
      <trkpt lat="43.4193" lon="5.47449">
        <ele>382.547</ele>
        <time>2011-11-23T13:48:38Z</time>
      </trkpt>
      <trkpt lat="43.4193" lon="5.47449">
        <ele>382.838</ele>
        <time>2011-11-23T13:48:48Z</time>
      </trkpt>
      <trkpt lat="43.4193" lon="5.47449">
        <ele>383.251</ele>
        <time>2011-11-23T13:48:58Z</time>
      </trkpt>
      <trkpt lat="43.41933" lon="5.47444">
        <ele>382.593</ele>
        <time>2011-11-23T13:49:08Z</time>
      </trkpt>
      <trkpt lat="43.41937" lon="5.47437">
        <ele>383.518</ele>
        <time>2011-11-23T13:49:18Z</time>
      </trkpt>
      <trkpt lat="43.4193" lon="5.47445">
        <ele>382.94</ele>
        <time>2011-11-23T13:49:28Z</time>
      </trkpt>
      <trkpt lat="43.41926" lon="5.47436">
        <ele>380.129</ele>
        <time>2011-11-23T13:49:38Z</time>
      </trkpt>
      <trkpt lat="43.4192" lon="5.47428">
        <ele>378.538</ele>
        <time>2011-11-23T13:49:48Z</time>
      </trkpt>
      <trkpt lat="43.41924" lon="5.47416">
        <ele>376.777</ele>
        <time>2011-11-23T13:49:58Z</time>
      </trkpt>
      <trkpt lat="43.41925" lon="5.47401">
        <ele>375.885</ele>
        <time>2011-11-23T13:50:08Z</time>
      </trkpt>
      <trkpt lat="43.41924" lon="5.47382">
        <ele>375.108</ele>
        <time>2011-11-23T13:50:18Z</time>
      </trkpt>
      <trkpt lat="43.4192" lon="5.47366">
        <ele>374.496</ele>
        <time>2011-11-23T13:50:28Z</time>
      </trkpt>
      <trkpt lat="43.41917" lon="5.47353">
        <ele>373.613</ele>
        <time>2011-11-23T13:50:38Z</time>
      </trkpt>
      <trkpt lat="43.4192" lon="5.47338">
        <ele>373.194</ele>
        <time>2011-11-23T13:50:48Z</time>
      </trkpt>
      <trkpt lat="43.41927" lon="5.47322">
        <ele>372.675</ele>
        <time>2011-11-23T13:50:58Z</time>
      </trkpt>
      <trkpt lat="43.41932" lon="5.47305">
        <ele>372.313</ele>
        <time>2011-11-23T13:51:08Z</time>
      </trkpt>
      <trkpt lat="43.41938" lon="5.47291">
        <ele>371.904</ele>
        <time>2011-11-23T13:51:18Z</time>
      </trkpt>
      <trkpt lat="43.41942" lon="5.47275">
        <ele>371.496</ele>
        <time>2011-11-23T13:51:28Z</time>
      </trkpt>
      <trkpt lat="43.41942" lon="5.47263">
        <ele>371.048</ele>
        <time>2011-11-23T13:51:38Z</time>
      </trkpt>
      <trkpt lat="43.41941" lon="5.47247">
        <ele>370.221</ele>
        <time>2011-11-23T13:51:48Z</time>
      </trkpt>
      <trkpt lat="43.41941" lon="5.47231">
        <ele>369.423</ele>
        <time>2011-11-23T13:51:58Z</time>
      </trkpt>
      <trkpt lat="43.41943" lon="5.4721">
        <ele>369.183</ele>
        <time>2011-11-23T13:52:08Z</time>
      </trkpt>
      <trkpt lat="43.4195" lon="5.47202">
        <ele>368.171</ele>
        <time>2011-11-23T13:52:18Z</time>
      </trkpt>
      <trkpt lat="43.41953" lon="5.47188">
        <ele>367.67</ele>
        <time>2011-11-23T13:52:28Z</time>
      </trkpt>
      <trkpt lat="43.41957" lon="5.47172">
        <ele>367.711</ele>
        <time>2011-11-23T13:52:38Z</time>
      </trkpt>
      <trkpt lat="43.41962" lon="5.47155">
        <ele>367.077</ele>
        <time>2011-11-23T13:52:48Z</time>
      </trkpt>
      <trkpt lat="43.41964" lon="5.47138">
        <ele>366.159</ele>
        <time>2011-11-23T13:52:58Z</time>
      </trkpt>
      <trkpt lat="43.41967" lon="5.47124">
        <ele>366.317</ele>
        <time>2011-11-23T13:53:08Z</time>
      </trkpt>
      <trkpt lat="43.41971" lon="5.4711">
        <ele>365.527</ele>
        <time>2011-11-23T13:53:18Z</time>
      </trkpt>
      <trkpt lat="43.41974" lon="5.47094">
        <ele>364.481</ele>
        <time>2011-11-23T13:53:28Z</time>
      </trkpt>
      <trkpt lat="43.41978" lon="5.47081">
        <ele>363.262</ele>
        <time>2011-11-23T13:53:38Z</time>
      </trkpt>
      <trkpt lat="43.4198" lon="5.47062">
        <ele>363.156</ele>
        <time>2011-11-23T13:53:48Z</time>
      </trkpt>
      <trkpt lat="43.41991" lon="5.47051">
        <ele>362.815</ele>
        <time>2011-11-23T13:53:58Z</time>
      </trkpt>
      <trkpt lat="43.42001" lon="5.47043">
        <ele>362.524</ele>
        <time>2011-11-23T13:54:08Z</time>
      </trkpt>
      <trkpt lat="43.42011" lon="5.47037">
        <ele>361.993</ele>
        <time>2011-11-23T13:54:18Z</time>
      </trkpt>
      <trkpt lat="43.42021" lon="5.47027">
        <ele>361.282</ele>
        <time>2011-11-23T13:54:28Z</time>
      </trkpt>
      <trkpt lat="43.4203" lon="5.47016">
        <ele>361.128</ele>
        <time>2011-11-23T13:54:38Z</time>
      </trkpt>
      <trkpt lat="43.42035" lon="5.47">
        <ele>359.848</ele>
        <time>2011-11-23T13:54:48Z</time>
      </trkpt>
      <trkpt lat="43.4204" lon="5.46988">
        <ele>359.254</ele>
        <time>2011-11-23T13:54:58Z</time>
      </trkpt>
      <trkpt lat="43.42048" lon="5.46975">
        <ele>358.811</ele>
        <time>2011-11-23T13:55:08Z</time>
      </trkpt>
      <trkpt lat="43.42046" lon="5.46955">
        <ele>358.507</ele>
        <time>2011-11-23T13:55:18Z</time>
      </trkpt>
      <trkpt lat="43.42045" lon="5.46937">
        <ele>358.057</ele>
        <time>2011-11-23T13:55:28Z</time>
      </trkpt>
      <trkpt lat="43.42045" lon="5.46919">
        <ele>357.145</ele>
        <time>2011-11-23T13:55:38Z</time>
      </trkpt>
      <trkpt lat="43.42043" lon="5.46902">
        <ele>356.602</ele>
        <time>2011-11-23T13:55:48Z</time>
      </trkpt>
      <trkpt lat="43.42044" lon="5.46886">
        <ele>355.687</ele>
        <time>2011-11-23T13:55:58Z</time>
      </trkpt>
      <trkpt lat="43.42046" lon="5.46869">
        <ele>354.131</ele>
        <time>2011-11-23T13:56:08Z</time>
      </trkpt>
      <trkpt lat="43.4205" lon="5.46855">
        <ele>353.543</ele>
        <time>2011-11-23T13:56:18Z</time>
      </trkpt>
      <trkpt lat="43.42053" lon="5.46839">
        <ele>352.707</ele>
        <time>2011-11-23T13:56:28Z</time>
      </trkpt>
      <trkpt lat="43.42054" lon="5.46829">
        <ele>352.033</ele>
        <time>2011-11-23T13:56:38Z</time>
      </trkpt>
      <trkpt lat="43.42056" lon="5.46821">
        <ele>352.006</ele>
        <time>2011-11-23T13:56:48Z</time>
      </trkpt>
      <trkpt lat="43.42057" lon="5.46821">
        <ele>352.15</ele>
        <time>2011-11-23T13:56:58Z</time>
      </trkpt>
      <trkpt lat="43.42057" lon="5.46821">
        <ele>351.907</ele>
        <time>2011-11-23T13:57:08Z</time>
      </trkpt>
      <trkpt lat="43.42056" lon="5.46811">
        <ele>352.045</ele>
        <time>2011-11-23T13:57:18Z</time>
      </trkpt>
      <trkpt lat="43.42061" lon="5.46799">
        <ele>352.191</ele>
        <time>2011-11-23T13:57:28Z</time>
      </trkpt>
      <trkpt lat="43.42064" lon="5.46783">
        <ele>351.61</ele>
        <time>2011-11-23T13:57:38Z</time>
      </trkpt>
      <trkpt lat="43.42068" lon="5.46765">
        <ele>351.985</ele>
        <time>2011-11-23T13:57:48Z</time>
      </trkpt>
      <trkpt lat="43.4207" lon="5.46748">
        <ele>351.928</ele>
        <time>2011-11-23T13:57:58Z</time>
      </trkpt>
      <trkpt lat="43.42073" lon="5.46731">
        <ele>351.74</ele>
        <time>2011-11-23T13:58:08Z</time>
      </trkpt>
      <trkpt lat="43.42075" lon="5.46717">
        <ele>352.562</ele>
        <time>2011-11-23T13:58:18Z</time>
      </trkpt>
      <trkpt lat="43.42078" lon="5.46702">
        <ele>352.78</ele>
        <time>2011-11-23T13:58:28Z</time>
      </trkpt>
      <trkpt lat="43.42079" lon="5.46687">
        <ele>353.383</ele>
        <time>2011-11-23T13:58:38Z</time>
      </trkpt>
      <trkpt lat="43.4208" lon="5.46669">
        <ele>352.558</ele>
        <time>2011-11-23T13:58:48Z</time>
      </trkpt>
      <trkpt lat="43.42084" lon="5.46653">
        <ele>351.901</ele>
        <time>2011-11-23T13:58:58Z</time>
      </trkpt>
      <trkpt lat="43.42085" lon="5.46634">
        <ele>351.337</ele>
        <time>2011-11-23T13:59:08Z</time>
      </trkpt>
      <trkpt lat="43.42087" lon="5.46617">
        <ele>352.239</ele>
        <time>2011-11-23T13:59:18Z</time>
      </trkpt>
      <trkpt lat="43.42093" lon="5.46601">
        <ele>352.136</ele>
        <time>2011-11-23T13:59:28Z</time>
      </trkpt>
      <trkpt lat="43.42097" lon="5.46589">
        <ele>351.67</ele>
        <time>2011-11-23T13:59:38Z</time>
      </trkpt>
      <trkpt lat="43.42098" lon="5.46576">
        <ele>349.694</ele>
        <time>2011-11-23T13:59:48Z</time>
      </trkpt>
      <trkpt lat="43.42098" lon="5.46558">
        <ele>347.857</ele>
        <time>2011-11-23T13:59:58Z</time>
      </trkpt>
      <trkpt lat="43.42101" lon="5.46541">
        <ele>345.814</ele>
        <time>2011-11-23T14:00:08Z</time>
      </trkpt>
      <trkpt lat="43.42104" lon="5.46522">
        <ele>344.876</ele>
        <time>2011-11-23T14:00:18Z</time>
      </trkpt>
      <trkpt lat="43.42108" lon="5.46505">
        <ele>343.539</ele>
        <time>2011-11-23T14:00:28Z</time>
      </trkpt>
      <trkpt lat="43.42111" lon="5.46488">
        <ele>341.973</ele>
        <time>2011-11-23T14:00:38Z</time>
      </trkpt>
      <trkpt lat="43.42117" lon="5.46475">
        <ele>339.757</ele>
        <time>2011-11-23T14:00:48Z</time>
      </trkpt>
      <trkpt lat="43.42127" lon="5.4646">
        <ele>338.834</ele>
        <time>2011-11-23T14:00:58Z</time>
      </trkpt>
      <trkpt lat="43.42134" lon="5.46448">
        <ele>337.872</ele>
        <time>2011-11-23T14:01:08Z</time>
      </trkpt>
      <trkpt lat="43.42133" lon="5.46433">
        <ele>336.557</ele>
        <time>2011-11-23T14:01:18Z</time>
      </trkpt>
      <trkpt lat="43.42134" lon="5.46412">
        <ele>335.983</ele>
        <time>2011-11-23T14:01:28Z</time>
      </trkpt>
      <trkpt lat="43.42132" lon="5.46395">
        <ele>335.337</ele>
        <time>2011-11-23T14:01:38Z</time>
      </trkpt>
      <trkpt lat="43.4213" lon="5.46377">
        <ele>334.474</ele>
        <time>2011-11-23T14:01:48Z</time>
      </trkpt>
      <trkpt lat="43.42126" lon="5.46365">
        <ele>333.599</ele>
        <time>2011-11-23T14:01:58Z</time>
      </trkpt>
      <trkpt lat="43.42115" lon="5.46353">
        <ele>332.276</ele>
        <time>2011-11-23T14:02:08Z</time>
      </trkpt>
      <trkpt lat="43.42106" lon="5.4634">
        <ele>330.789</ele>
        <time>2011-11-23T14:02:18Z</time>
      </trkpt>
      <trkpt lat="43.42096" lon="5.46329">
        <ele>329.767</ele>
        <time>2011-11-23T14:02:28Z</time>
      </trkpt>
      <trkpt lat="43.42085" lon="5.46313">
        <ele>329.062</ele>
        <time>2011-11-23T14:02:38Z</time>
      </trkpt>
      <trkpt lat="43.42089" lon="5.46298">
        <ele>329.54</ele>
        <time>2011-11-23T14:02:48Z</time>
      </trkpt>
      <trkpt lat="43.42102" lon="5.46291">
        <ele>331.017</ele>
        <time>2011-11-23T14:02:58Z</time>
      </trkpt>
      <trkpt lat="43.42115" lon="5.46283">
        <ele>332.594</ele>
        <time>2011-11-23T14:03:08Z</time>
      </trkpt>
      <trkpt lat="43.42126" lon="5.46277">
        <ele>334.837</ele>
        <time>2011-11-23T14:03:18Z</time>
      </trkpt>
      <trkpt lat="43.42137" lon="5.46269">
        <ele>336.372</ele>
        <time>2011-11-23T14:03:28Z</time>
      </trkpt>
      <trkpt lat="43.42143" lon="5.46256">
        <ele>338.506</ele>
        <time>2011-11-23T14:03:38Z</time>
      </trkpt>
      <trkpt lat="43.42143" lon="5.46237">
        <ele>339.801</ele>
        <time>2011-11-23T14:03:48Z</time>
      </trkpt>
      <trkpt lat="43.42148" lon="5.4622">
        <ele>340.78</ele>
        <time>2011-11-23T14:03:58Z</time>
      </trkpt>
      <trkpt lat="43.42159" lon="5.46214">
        <ele>341.584</ele>
        <time>2011-11-23T14:04:08Z</time>
      </trkpt>
      <trkpt lat="43.42172" lon="5.46213">
        <ele>343.12</ele>
        <time>2011-11-23T14:04:18Z</time>
      </trkpt>
      <trkpt lat="43.42179" lon="5.46202">
        <ele>344.71</ele>
        <time>2011-11-23T14:04:28Z</time>
      </trkpt>
      <trkpt lat="43.42181" lon="5.46186">
        <ele>345.883</ele>
        <time>2011-11-23T14:04:38Z</time>
      </trkpt>
      <trkpt lat="43.4218" lon="5.46169">
        <ele>347.771</ele>
        <time>2011-11-23T14:04:48Z</time>
      </trkpt>
      <trkpt lat="43.42186" lon="5.46155">
        <ele>348.491</ele>
        <time>2011-11-23T14:04:58Z</time>
      </trkpt>
      <trkpt lat="43.42193" lon="5.46143">
        <ele>350.017</ele>
        <time>2011-11-23T14:05:08Z</time>
      </trkpt>
      <trkpt lat="43.42201" lon="5.46131">
        <ele>352.055</ele>
        <time>2011-11-23T14:05:18Z</time>
      </trkpt>
      <trkpt lat="43.42206" lon="5.46115">
        <ele>352.785</ele>
        <time>2011-11-23T14:05:28Z</time>
      </trkpt>
      <trkpt lat="43.42211" lon="5.46099">
        <ele>353.137</ele>
        <time>2011-11-23T14:05:38Z</time>
      </trkpt>
      <trkpt lat="43.42215" lon="5.46082">
        <ele>354.342</ele>
        <time>2011-11-23T14:05:48Z</time>
      </trkpt>
      <trkpt lat="43.42218" lon="5.46068">
        <ele>356.432</ele>
        <time>2011-11-23T14:05:58Z</time>
      </trkpt>
      <trkpt lat="43.4222" lon="5.46054">
        <ele>358.168</ele>
        <time>2011-11-23T14:06:08Z</time>
      </trkpt>
      <trkpt lat="43.42222" lon="5.46037">
        <ele>358.787</ele>
        <time>2011-11-23T14:06:18Z</time>
      </trkpt>
      <trkpt lat="43.42224" lon="5.46017">
        <ele>359.645</ele>
        <time>2011-11-23T14:06:28Z</time>
      </trkpt>
      <trkpt lat="43.42227" lon="5.46003">
        <ele>360.601</ele>
        <time>2011-11-23T14:06:38Z</time>
      </trkpt>
      <trkpt lat="43.42229" lon="5.45987">
        <ele>360.654</ele>
        <time>2011-11-23T14:06:48Z</time>
      </trkpt>
      <trkpt lat="43.42234" lon="5.45974">
        <ele>360.341</ele>
        <time>2011-11-23T14:06:58Z</time>
      </trkpt>
      <trkpt lat="43.4224" lon="5.45964">
        <ele>359.38</ele>
        <time>2011-11-23T14:07:08Z</time>
      </trkpt>
      <trkpt lat="43.4224" lon="5.45964">
        <ele>359.242</ele>
        <time>2011-11-23T14:07:18Z</time>
      </trkpt>
      <trkpt lat="43.4224" lon="5.45964">
        <ele>359.416</ele>
        <time>2011-11-23T14:07:28Z</time>
      </trkpt>
      <trkpt lat="43.4224" lon="5.45965">
        <ele>359.324</ele>
        <time>2011-11-23T14:07:38Z</time>
      </trkpt>
      <trkpt lat="43.4224" lon="5.45966">
        <ele>359.121</ele>
        <time>2011-11-23T14:07:48Z</time>
      </trkpt>
      <trkpt lat="43.4224" lon="5.45966">
        <ele>359.195</ele>
        <time>2011-11-23T14:07:58Z</time>
      </trkpt>
      <trkpt lat="43.4224" lon="5.45966">
        <ele>359.232</ele>
        <time>2011-11-23T14:08:08Z</time>
      </trkpt>
      <trkpt lat="43.4224" lon="5.45966">
        <ele>358.906</ele>
        <time>2011-11-23T14:08:18Z</time>
      </trkpt>
      <trkpt lat="43.4224" lon="5.45966">
        <ele>359.25</ele>
        <time>2011-11-23T14:08:28Z</time>
      </trkpt>
      <trkpt lat="43.42243" lon="5.45963">
        <ele>358.99</ele>
        <time>2011-11-23T14:08:38Z</time>
      </trkpt>
      <trkpt lat="43.42247" lon="5.45952">
        <ele>357.495</ele>
        <time>2011-11-23T14:08:48Z</time>
      </trkpt>
      <trkpt lat="43.42252" lon="5.45939">
        <ele>356.296</ele>
        <time>2011-11-23T14:08:58Z</time>
      </trkpt>
      <trkpt lat="43.42257" lon="5.45929">
        <ele>354.629</ele>
        <time>2011-11-23T14:09:08Z</time>
      </trkpt>
      <trkpt lat="43.42261" lon="5.45918">
        <ele>353.187</ele>
        <time>2011-11-23T14:09:18Z</time>
      </trkpt>
      <trkpt lat="43.42262" lon="5.45901">
        <ele>351.473</ele>
        <time>2011-11-23T14:09:28Z</time>
      </trkpt>
      <trkpt lat="43.42264" lon="5.45884">
        <ele>350.249</ele>
        <time>2011-11-23T14:09:38Z</time>
      </trkpt>
      <trkpt lat="43.42268" lon="5.45872">
        <ele>348.474</ele>
        <time>2011-11-23T14:09:48Z</time>
      </trkpt>
      <trkpt lat="43.42271" lon="5.45859">
        <ele>345.713</ele>
        <time>2011-11-23T14:09:58Z</time>
      </trkpt>
      <trkpt lat="43.42275" lon="5.45844">
        <ele>344.243</ele>
        <time>2011-11-23T14:10:08Z</time>
      </trkpt>
      <trkpt lat="43.42279" lon="5.45829">
        <ele>341.91</ele>
        <time>2011-11-23T14:10:18Z</time>
      </trkpt>
      <trkpt lat="43.42287" lon="5.45819">
        <ele>340.08</ele>
        <time>2011-11-23T14:10:28Z</time>
      </trkpt>
      <trkpt lat="43.42292" lon="5.45802">
        <ele>338.343</ele>
        <time>2011-11-23T14:10:38Z</time>
      </trkpt>
      <trkpt lat="43.42295" lon="5.45789">
        <ele>336.329</ele>
        <time>2011-11-23T14:10:48Z</time>
      </trkpt>
      <trkpt lat="43.42299" lon="5.45772">
        <ele>334.546</ele>
        <time>2011-11-23T14:10:58Z</time>
      </trkpt>
      <trkpt lat="43.42303" lon="5.45761">
        <ele>332.909</ele>
        <time>2011-11-23T14:11:08Z</time>
      </trkpt>
      <trkpt lat="43.42305" lon="5.45743">
        <ele>331.408</ele>
        <time>2011-11-23T14:11:18Z</time>
      </trkpt>
      <trkpt lat="43.42306" lon="5.45731">
        <ele>329.787</ele>
        <time>2011-11-23T14:11:28Z</time>
      </trkpt>
      <trkpt lat="43.42305" lon="5.45713">
        <ele>328.763</ele>
        <time>2011-11-23T14:11:38Z</time>
      </trkpt>
      <trkpt lat="43.42301" lon="5.45698">
        <ele>327.444</ele>
        <time>2011-11-23T14:11:48Z</time>
      </trkpt>
      <trkpt lat="43.42301" lon="5.45682">
        <ele>325.395</ele>
        <time>2011-11-23T14:11:58Z</time>
      </trkpt>
      <trkpt lat="43.42305" lon="5.45671">
        <ele>323.261</ele>
        <time>2011-11-23T14:12:08Z</time>
      </trkpt>
      <trkpt lat="43.42307" lon="5.45657">
        <ele>321.404</ele>
        <time>2011-11-23T14:12:18Z</time>
      </trkpt>
      <trkpt lat="43.42307" lon="5.45634">
        <ele>319.511</ele>
        <time>2011-11-23T14:12:28Z</time>
      </trkpt>
      <trkpt lat="43.42308" lon="5.45621">
        <ele>318.306</ele>
        <time>2011-11-23T14:12:38Z</time>
      </trkpt>
      <trkpt lat="43.42308" lon="5.45601">
        <ele>316.759</ele>
        <time>2011-11-23T14:12:48Z</time>
      </trkpt>
      <trkpt lat="43.42309" lon="5.45589">
        <ele>315.686</ele>
        <time>2011-11-23T14:12:58Z</time>
      </trkpt>
      <trkpt lat="43.42314" lon="5.45574">
        <ele>313.885</ele>
        <time>2011-11-23T14:13:08Z</time>
      </trkpt>
      <trkpt lat="43.42317" lon="5.45556">
        <ele>312.304</ele>
        <time>2011-11-23T14:13:18Z</time>
      </trkpt>
      <trkpt lat="43.42325" lon="5.45546">
        <ele>311.037</ele>
        <time>2011-11-23T14:13:28Z</time>
      </trkpt>
      <trkpt lat="43.42331" lon="5.45531">
        <ele>309.822</ele>
        <time>2011-11-23T14:13:38Z</time>
      </trkpt>
      <trkpt lat="43.42336" lon="5.45514">
        <ele>308.574</ele>
        <time>2011-11-23T14:13:48Z</time>
      </trkpt>
      <trkpt lat="43.42342" lon="5.45504">
        <ele>307.549</ele>
        <time>2011-11-23T14:13:58Z</time>
      </trkpt>
      <trkpt lat="43.42346" lon="5.45486">
        <ele>306.645</ele>
        <time>2011-11-23T14:14:08Z</time>
      </trkpt>
      <trkpt lat="43.42355" lon="5.45476">
        <ele>306.287</ele>
        <time>2011-11-23T14:14:18Z</time>
      </trkpt>
      <trkpt lat="43.4236" lon="5.45459">
        <ele>304.931</ele>
        <time>2011-11-23T14:14:28Z</time>
      </trkpt>
      <trkpt lat="43.42368" lon="5.45444">
        <ele>303.807</ele>
        <time>2011-11-23T14:14:38Z</time>
      </trkpt>
      <trkpt lat="43.4237" lon="5.45428">
        <ele>303.152</ele>
        <time>2011-11-23T14:14:48Z</time>
      </trkpt>
      <trkpt lat="43.42373" lon="5.45413">
        <ele>301.505</ele>
        <time>2011-11-23T14:14:58Z</time>
      </trkpt>
      <trkpt lat="43.42375" lon="5.45394">
        <ele>300.117</ele>
        <time>2011-11-23T14:15:08Z</time>
      </trkpt>
      <trkpt lat="43.42381" lon="5.4538">
        <ele>299.011</ele>
        <time>2011-11-23T14:15:18Z</time>
      </trkpt>
      <trkpt lat="43.4239" lon="5.45369">
        <ele>297.901</ele>
        <time>2011-11-23T14:15:28Z</time>
      </trkpt>
      <trkpt lat="43.42392" lon="5.45348">
        <ele>297.183</ele>
        <time>2011-11-23T14:15:38Z</time>
      </trkpt>
      <trkpt lat="43.42395" lon="5.45335">
        <ele>296.208</ele>
        <time>2011-11-23T14:15:48Z</time>
      </trkpt>
      <trkpt lat="43.42398" lon="5.45317">
        <ele>295.299</ele>
        <time>2011-11-23T14:15:58Z</time>
      </trkpt>
      <trkpt lat="43.42403" lon="5.45299">
        <ele>295.025</ele>
        <time>2011-11-23T14:16:08Z</time>
      </trkpt>
      <trkpt lat="43.42404" lon="5.45286">
        <ele>293.387</ele>
        <time>2011-11-23T14:16:18Z</time>
      </trkpt>
      <trkpt lat="43.42398" lon="5.4527">
        <ele>291.867</ele>
        <time>2011-11-23T14:16:28Z</time>
      </trkpt>
      <trkpt lat="43.42397" lon="5.45252">
        <ele>290.705</ele>
        <time>2011-11-23T14:16:38Z</time>
      </trkpt>
      <trkpt lat="43.42397" lon="5.45237">
        <ele>290.236</ele>
        <time>2011-11-23T14:16:48Z</time>
      </trkpt>
      <trkpt lat="43.424" lon="5.45224">
        <ele>290.104</ele>
        <time>2011-11-23T14:16:58Z</time>
      </trkpt>
      <trkpt lat="43.42395" lon="5.45207">
        <ele>289.779</ele>
        <time>2011-11-23T14:17:08Z</time>
      </trkpt>
      <trkpt lat="43.42398" lon="5.45193">
        <ele>289.408</ele>
        <time>2011-11-23T14:17:18Z</time>
      </trkpt>
      <trkpt lat="43.424" lon="5.45179">
        <ele>288.666</ele>
        <time>2011-11-23T14:17:28Z</time>
      </trkpt>
      <trkpt lat="43.42404" lon="5.45164">
        <ele>287.743</ele>
        <time>2011-11-23T14:17:38Z</time>
      </trkpt>
      <trkpt lat="43.42413" lon="5.45151">
        <ele>287.265</ele>
        <time>2011-11-23T14:17:48Z</time>
      </trkpt>
      <trkpt lat="43.42421" lon="5.45144">
        <ele>286.854</ele>
        <time>2011-11-23T14:17:58Z</time>
      </trkpt>
      <trkpt lat="43.42429" lon="5.45133">
        <ele>285.407</ele>
        <time>2011-11-23T14:18:08Z</time>
      </trkpt>
      <trkpt lat="43.42435" lon="5.45116">
        <ele>285.164</ele>
        <time>2011-11-23T14:18:18Z</time>
      </trkpt>
      <trkpt lat="43.42441" lon="5.45097">
        <ele>283.951</ele>
        <time>2011-11-23T14:18:28Z</time>
      </trkpt>
      <trkpt lat="43.42447" lon="5.45082">
        <ele>283.579</ele>
        <time>2011-11-23T14:18:38Z</time>
      </trkpt>
      <trkpt lat="43.42454" lon="5.45069">
        <ele>283.387</ele>
        <time>2011-11-23T14:18:48Z</time>
      </trkpt>
      <trkpt lat="43.42463" lon="5.45056">
        <ele>283.008</ele>
        <time>2011-11-23T14:18:58Z</time>
      </trkpt>
      <trkpt lat="43.42471" lon="5.45043">
        <ele>282.759</ele>
        <time>2011-11-23T14:19:08Z</time>
      </trkpt>
      <trkpt lat="43.42478" lon="5.45026">
        <ele>282.285</ele>
        <time>2011-11-23T14:19:18Z</time>
      </trkpt>
      <trkpt lat="43.42484" lon="5.45013">
        <ele>282.342</ele>
        <time>2011-11-23T14:19:28Z</time>
      </trkpt>
      <trkpt lat="43.42489" lon="5.44998">
        <ele>281.943</ele>
        <time>2011-11-23T14:19:38Z</time>
      </trkpt>
      <trkpt lat="43.42492" lon="5.4498">
        <ele>281.946</ele>
        <time>2011-11-23T14:19:48Z</time>
      </trkpt>
      <trkpt lat="43.42495" lon="5.44964">
        <ele>281.387</ele>
        <time>2011-11-23T14:19:58Z</time>
      </trkpt>
      <trkpt lat="43.42496" lon="5.44945">
        <ele>280.557</ele>
        <time>2011-11-23T14:20:08Z</time>
      </trkpt>
      <trkpt lat="43.42496" lon="5.4493">
        <ele>279.737</ele>
        <time>2011-11-23T14:20:18Z</time>
      </trkpt>
      <trkpt lat="43.4249" lon="5.44916">
        <ele>279.34</ele>
        <time>2011-11-23T14:20:28Z</time>
      </trkpt>
      <trkpt lat="43.42483" lon="5.44902">
        <ele>279.327</ele>
        <time>2011-11-23T14:20:38Z</time>
      </trkpt>
      <trkpt lat="43.42471" lon="5.44895">
        <ele>279.105</ele>
        <time>2011-11-23T14:20:48Z</time>
      </trkpt>
      <trkpt lat="43.42462" lon="5.44883">
        <ele>279.188</ele>
        <time>2011-11-23T14:20:58Z</time>
      </trkpt>
      <trkpt lat="43.4245" lon="5.44873">
        <ele>279.152</ele>
        <time>2011-11-23T14:21:08Z</time>
      </trkpt>
      <trkpt lat="43.42443" lon="5.44861">
        <ele>278.27</ele>
        <time>2011-11-23T14:21:18Z</time>
      </trkpt>
      <trkpt lat="43.42439" lon="5.44845">
        <ele>277.876</ele>
        <time>2011-11-23T14:21:28Z</time>
      </trkpt>
      <trkpt lat="43.42441" lon="5.44825">
        <ele>277.045</ele>
        <time>2011-11-23T14:21:38Z</time>
      </trkpt>
      <trkpt lat="43.42441" lon="5.44809">
        <ele>277.243</ele>
        <time>2011-11-23T14:21:48Z</time>
      </trkpt>
      <trkpt lat="43.42443" lon="5.44794">
        <ele>277.407</ele>
        <time>2011-11-23T14:21:58Z</time>
      </trkpt>
      <trkpt lat="43.42455" lon="5.44782">
        <ele>277.638</ele>
        <time>2011-11-23T14:22:08Z</time>
      </trkpt>
      <trkpt lat="43.42462" lon="5.44777">
        <ele>278.092</ele>
        <time>2011-11-23T14:22:18Z</time>
      </trkpt>
      <trkpt lat="43.42473" lon="5.44773">
        <ele>278.325</ele>
        <time>2011-11-23T14:22:28Z</time>
      </trkpt>
      <trkpt lat="43.42483" lon="5.44768">
        <ele>278.085</ele>
        <time>2011-11-23T14:22:38Z</time>
      </trkpt>
      <trkpt lat="43.42491" lon="5.44757">
        <ele>277.847</ele>
        <time>2011-11-23T14:22:48Z</time>
      </trkpt>
      <trkpt lat="43.42504" lon="5.44751">
        <ele>277.548</ele>
        <time>2011-11-23T14:22:58Z</time>
      </trkpt>
      <trkpt lat="43.42513" lon="5.44748">
        <ele>277.068</ele>
        <time>2011-11-23T14:23:08Z</time>
      </trkpt>
      <trkpt lat="43.42526" lon="5.44742">
        <ele>276.526</ele>
        <time>2011-11-23T14:23:18Z</time>
      </trkpt>
      <trkpt lat="43.42534" lon="5.44731">
        <ele>276.604</ele>
        <time>2011-11-23T14:23:28Z</time>
      </trkpt>
      <trkpt lat="43.42539" lon="5.44719">
        <ele>275.842</ele>
        <time>2011-11-23T14:23:38Z</time>
      </trkpt>
      <trkpt lat="43.42544" lon="5.44704">
        <ele>275.292</ele>
        <time>2011-11-23T14:23:48Z</time>
      </trkpt>
      <trkpt lat="43.42549" lon="5.44689">
        <ele>275.061</ele>
        <time>2011-11-23T14:23:58Z</time>
      </trkpt>
      <trkpt lat="43.42555" lon="5.44676">
        <ele>274.684</ele>
        <time>2011-11-23T14:24:08Z</time>
      </trkpt>
      <trkpt lat="43.42559" lon="5.4466">
        <ele>273.635</ele>
        <time>2011-11-23T14:24:18Z</time>
      </trkpt>
      <trkpt lat="43.42564" lon="5.44647">
        <ele>272.944</ele>
        <time>2011-11-23T14:24:28Z</time>
      </trkpt>
      <trkpt lat="43.42566" lon="5.4463">
        <ele>272.491</ele>
        <time>2011-11-23T14:24:38Z</time>
      </trkpt>
      <trkpt lat="43.4257" lon="5.44616">
        <ele>271.851</ele>
        <time>2011-11-23T14:24:48Z</time>
      </trkpt>
      <trkpt lat="43.42573" lon="5.44601">
        <ele>271.031</ele>
        <time>2011-11-23T14:24:58Z</time>
      </trkpt>
      <trkpt lat="43.42576" lon="5.44585">
        <ele>269.835</ele>
        <time>2011-11-23T14:25:08Z</time>
      </trkpt>
      <trkpt lat="43.42575" lon="5.44571">
        <ele>269.789</ele>
        <time>2011-11-23T14:25:18Z</time>
      </trkpt>
      <trkpt lat="43.42573" lon="5.4455">
        <ele>268.553</ele>
        <time>2011-11-23T14:25:28Z</time>
      </trkpt>
      <trkpt lat="43.42572" lon="5.44533">
        <ele>268.146</ele>
        <time>2011-11-23T14:25:38Z</time>
      </trkpt>
      <trkpt lat="43.42572" lon="5.44515">
        <ele>267.202</ele>
        <time>2011-11-23T14:25:48Z</time>
      </trkpt>
      <trkpt lat="43.42572" lon="5.44497">
        <ele>266.527</ele>
        <time>2011-11-23T14:25:58Z</time>
      </trkpt>
      <trkpt lat="43.42567" lon="5.44477">
        <ele>265.754</ele>
        <time>2011-11-23T14:26:08Z</time>
      </trkpt>
      <trkpt lat="43.42566" lon="5.4446">
        <ele>264.82</ele>
        <time>2011-11-23T14:26:18Z</time>
      </trkpt>
      <trkpt lat="43.42561" lon="5.44444">
        <ele>264.366</ele>
        <time>2011-11-23T14:26:28Z</time>
      </trkpt>
      <trkpt lat="43.42559" lon="5.44427">
        <ele>263.556</ele>
        <time>2011-11-23T14:26:38Z</time>
      </trkpt>
      <trkpt lat="43.4256" lon="5.44409">
        <ele>262.845</ele>
        <time>2011-11-23T14:26:48Z</time>
      </trkpt>
      <trkpt lat="43.42565" lon="5.44393">
        <ele>261.984</ele>
        <time>2011-11-23T14:26:58Z</time>
      </trkpt>
      <trkpt lat="43.42568" lon="5.4438">
        <ele>261.481</ele>
        <time>2011-11-23T14:27:08Z</time>
      </trkpt>
      <trkpt lat="43.4257" lon="5.44363">
        <ele>260.734</ele>
        <time>2011-11-23T14:27:18Z</time>
      </trkpt>
      <trkpt lat="43.42578" lon="5.44345">
        <ele>260.252</ele>
        <time>2011-11-23T14:27:28Z</time>
      </trkpt>
      <trkpt lat="43.42583" lon="5.44328">
        <ele>259.613</ele>
        <time>2011-11-23T14:27:38Z</time>
      </trkpt>
      <trkpt lat="43.42586" lon="5.44314">
        <ele>259.288</ele>
        <time>2011-11-23T14:27:48Z</time>
      </trkpt>
      <trkpt lat="43.42592" lon="5.44299">
        <ele>258.335</ele>
        <time>2011-11-23T14:27:58Z</time>
      </trkpt>
      <trkpt lat="43.42601" lon="5.44288">
        <ele>257.873</ele>
        <time>2011-11-23T14:28:08Z</time>
      </trkpt>
      <trkpt lat="43.42608" lon="5.44268">
        <ele>257.4</ele>
        <time>2011-11-23T14:28:18Z</time>
      </trkpt>
      <trkpt lat="43.42613" lon="5.44249">
        <ele>256.72</ele>
        <time>2011-11-23T14:28:28Z</time>
      </trkpt>
      <trkpt lat="43.42622" lon="5.44233">
        <ele>256.259</ele>
        <time>2011-11-23T14:28:38Z</time>
      </trkpt>
      <trkpt lat="43.42628" lon="5.44218">
        <ele>255.638</ele>
        <time>2011-11-23T14:28:48Z</time>
      </trkpt>
      <trkpt lat="43.42636" lon="5.44203">
        <ele>254.99</ele>
        <time>2011-11-23T14:28:58Z</time>
      </trkpt>
      <trkpt lat="43.42641" lon="5.44186">
        <ele>254.215</ele>
        <time>2011-11-23T14:29:08Z</time>
      </trkpt>
      <trkpt lat="43.42643" lon="5.44171">
        <ele>252.423</ele>
        <time>2011-11-23T14:29:18Z</time>
      </trkpt>
      <trkpt lat="43.42644" lon="5.44156">
        <ele>251.467</ele>
        <time>2011-11-23T14:29:28Z</time>
      </trkpt>
      <trkpt lat="43.42643" lon="5.44137">
        <ele>250.454</ele>
        <time>2011-11-23T14:29:38Z</time>
      </trkpt>
      <trkpt lat="43.42645" lon="5.4412">
        <ele>249.845</ele>
        <time>2011-11-23T14:29:48Z</time>
      </trkpt>
      <trkpt lat="43.42642" lon="5.44099">
        <ele>248.66</ele>
        <time>2011-11-23T14:29:58Z</time>
      </trkpt>
      <trkpt lat="43.42644" lon="5.44081">
        <ele>246.822</ele>
        <time>2011-11-23T14:30:08Z</time>
      </trkpt>
      <trkpt lat="43.42651" lon="5.44064">
        <ele>245.904</ele>
        <time>2011-11-23T14:30:18Z</time>
      </trkpt>
      <trkpt lat="43.42663" lon="5.44052">
        <ele>245.124</ele>
        <time>2011-11-23T14:30:28Z</time>
      </trkpt>
      <trkpt lat="43.42675" lon="5.4404">
        <ele>244.168</ele>
        <time>2011-11-23T14:30:38Z</time>
      </trkpt>
      <trkpt lat="43.42688" lon="5.44028">
        <ele>242.784</ele>
        <time>2011-11-23T14:30:48Z</time>
      </trkpt>
      <trkpt lat="43.42698" lon="5.44016">
        <ele>242.395</ele>
        <time>2011-11-23T14:30:58Z</time>
      </trkpt>
      <trkpt lat="43.42709" lon="5.44004">
        <ele>240.721</ele>
        <time>2011-11-23T14:31:08Z</time>
      </trkpt>
      <trkpt lat="43.42715" lon="5.43992">
        <ele>239.557</ele>
        <time>2011-11-23T14:31:18Z</time>
      </trkpt>
      <trkpt lat="43.42719" lon="5.43977">
        <ele>238.475</ele>
        <time>2011-11-23T14:31:28Z</time>
      </trkpt>
      <trkpt lat="43.42726" lon="5.43959">
        <ele>237.282</ele>
        <time>2011-11-23T14:31:38Z</time>
      </trkpt>
      <trkpt lat="43.42731" lon="5.43937">
        <ele>236</ele>
        <time>2011-11-23T14:31:48Z</time>
      </trkpt>
      <trkpt lat="43.42732" lon="5.43922">
        <ele>235.38</ele>
        <time>2011-11-23T14:31:58Z</time>
      </trkpt>
      <trkpt lat="43.42734" lon="5.43916">
        <ele>234.586</ele>
        <time>2011-11-23T14:32:08Z</time>
      </trkpt>
      <trkpt lat="43.42734" lon="5.43903">
        <ele>233.87</ele>
        <time>2011-11-23T14:32:18Z</time>
      </trkpt>
      <trkpt lat="43.42738" lon="5.43886">
        <ele>233.63</ele>
        <time>2011-11-23T14:32:28Z</time>
      </trkpt>
      <trkpt lat="43.42742" lon="5.43868">
        <ele>233.448</ele>
        <time>2011-11-23T14:32:38Z</time>
      </trkpt>
      <trkpt lat="43.42742" lon="5.43848">
        <ele>232.961</ele>
        <time>2011-11-23T14:32:48Z</time>
      </trkpt>
      <trkpt lat="43.42749" lon="5.43829">
        <ele>231.907</ele>
        <time>2011-11-23T14:32:58Z</time>
      </trkpt>
      <trkpt lat="43.42754" lon="5.43817">
        <ele>230.303</ele>
        <time>2011-11-23T14:33:08Z</time>
      </trkpt>
      <trkpt lat="43.4276" lon="5.43807">
        <ele>228.842</ele>
        <time>2011-11-23T14:33:18Z</time>
      </trkpt>
      <trkpt lat="43.42768" lon="5.43796">
        <ele>226.994</ele>
        <time>2011-11-23T14:33:28Z</time>
      </trkpt>
      <trkpt lat="43.42769" lon="5.43779">
        <ele>225.375</ele>
        <time>2011-11-23T14:33:38Z</time>
      </trkpt>
      <trkpt lat="43.42773" lon="5.4376">
        <ele>223.82</ele>
        <time>2011-11-23T14:33:48Z</time>
      </trkpt>
      <trkpt lat="43.42784" lon="5.43751">
        <ele>223.193</ele>
        <time>2011-11-23T14:33:58Z</time>
      </trkpt>
      <trkpt lat="43.4279" lon="5.4374">
        <ele>222.801</ele>
        <time>2011-11-23T14:34:08Z</time>
      </trkpt>
      <trkpt lat="43.42799" lon="5.43731">
        <ele>222.513</ele>
        <time>2011-11-23T14:34:18Z</time>
      </trkpt>
      <trkpt lat="43.42807" lon="5.43721">
        <ele>221.385</ele>
        <time>2011-11-23T14:34:28Z</time>
      </trkpt>
      <trkpt lat="43.42812" lon="5.43704">
        <ele>221.132</ele>
        <time>2011-11-23T14:34:38Z</time>
      </trkpt>
      <trkpt lat="43.42822" lon="5.43687">
        <ele>221.18</ele>
        <time>2011-11-23T14:34:48Z</time>
      </trkpt>
      <trkpt lat="43.42835" lon="5.43673">
        <ele>220.912</ele>
        <time>2011-11-23T14:34:58Z</time>
      </trkpt>
      <trkpt lat="43.42848" lon="5.43657">
        <ele>220.701</ele>
        <time>2011-11-23T14:35:08Z</time>
      </trkpt>
      <trkpt lat="43.42858" lon="5.43646">
        <ele>220.365</ele>
        <time>2011-11-23T14:35:18Z</time>
      </trkpt>
      <trkpt lat="43.42868" lon="5.43639">
        <ele>219.976</ele>
        <time>2011-11-23T14:35:28Z</time>
      </trkpt>
      <trkpt lat="43.42881" lon="5.43638">
        <ele>219.721</ele>
        <time>2011-11-23T14:35:38Z</time>
      </trkpt>
      <trkpt lat="43.42895" lon="5.43637">
        <ele>219.714</ele>
        <time>2011-11-23T14:35:48Z</time>
      </trkpt>
      <trkpt lat="43.42908" lon="5.43641">
        <ele>219.627</ele>
        <time>2011-11-23T14:35:58Z</time>
      </trkpt>
      <trkpt lat="43.42918" lon="5.43638">
        <ele>219.69</ele>
        <time>2011-11-23T14:36:08Z</time>
      </trkpt>
      <trkpt lat="43.42931" lon="5.43636">
        <ele>218.372</ele>
        <time>2011-11-23T14:36:18Z</time>
      </trkpt>
      <trkpt lat="43.42932" lon="5.43623">
        <ele>218.247</ele>
        <time>2011-11-23T14:36:28Z</time>
      </trkpt>
      <trkpt lat="43.42936" lon="5.43609">
        <ele>218.596</ele>
        <time>2011-11-23T14:36:38Z</time>
      </trkpt>
      <trkpt lat="43.42946" lon="5.43602">
        <ele>218.449</ele>
        <time>2011-11-23T14:36:48Z</time>
      </trkpt>
      <trkpt lat="43.42957" lon="5.43592">
        <ele>217.822</ele>
        <time>2011-11-23T14:36:58Z</time>
      </trkpt>
      <trkpt lat="43.42967" lon="5.43585">
        <ele>218.022</ele>
        <time>2011-11-23T14:37:08Z</time>
      </trkpt>
      <trkpt lat="43.42973" lon="5.43584">
        <ele>217.43</ele>
        <time>2011-11-23T14:37:18Z</time>
      </trkpt>
      <trkpt lat="43.42984" lon="5.43577">
        <ele>217.751</ele>
        <time>2011-11-23T14:37:28Z</time>
      </trkpt>
      <trkpt lat="43.42992" lon="5.43567">
        <ele>218.119</ele>
        <time>2011-11-23T14:37:38Z</time>
      </trkpt>
      <trkpt lat="43.42997" lon="5.43564">
        <ele>218.389</ele>
        <time>2011-11-23T14:37:42Z</time>
      </trkpt>
      <trkpt lat="43.42997" lon="5.43562">
        <ele>216.543</ele>
        <time>2011-11-23T14:37:48Z</time>
      </trkpt>
      <trkpt lat="43.42996" lon="5.43562">
        <ele>217.438</ele>
        <time>2011-11-23T14:37:58Z</time>
      </trkpt>
      <trkpt lat="43.42996" lon="5.43562">
        <ele>216.521</ele>
        <time>2011-11-23T14:38:08Z</time>
      </trkpt>
      <trkpt lat="43.42996" lon="5.43562">
        <ele>216.948</ele>
        <time>2011-11-23T14:38:18Z</time>
      </trkpt>
      <trkpt lat="43.42996" lon="5.43562">
        <ele>217.603</ele>
        <time>2011-11-23T14:38:28Z</time>
      </trkpt>
      <trkpt lat="43.42996" lon="5.43562">
        <ele>217.402</ele>
        <time>2011-11-23T14:38:38Z</time>
      </trkpt>
      <trkpt lat="43.42996" lon="5.43561">
        <ele>217.144</ele>
        <time>2011-11-23T14:38:48Z</time>
      </trkpt>
      <trkpt lat="43.43" lon="5.43563">
        <ele>217.814</ele>
        <time>2011-11-23T14:38:58Z</time>
      </trkpt>
      <trkpt lat="43.43" lon="5.43563">
        <ele>217.649</ele>
        <time>2011-11-23T14:39:08Z</time>
      </trkpt>
      <trkpt lat="43.43" lon="5.43563">
        <ele>217.229</ele>
        <time>2011-11-23T14:39:18Z</time>
      </trkpt>
    </trkseg>
  </trk>
  <trk>
    <name><![CDATA[ACTIVE LOG183315]]></name>
    <trkseg>
      <trkpt lat="43.43" lon="5.43563">
        <ele>12.361</ele>
        <time>2011-11-23T17:33:15Z</time>
      </trkpt>
      <trkpt lat="43.43" lon="5.43563">
        <ele>13.008</ele>
        <time>2011-11-23T17:33:24Z</time>
      </trkpt>
      <trkpt lat="43.43" lon="5.43563">
        <ele>12.77</ele>
        <time>2011-11-23T17:33:34Z</time>
      </trkpt>
    </trkseg>
  </trk>
  <trk>
    <name><![CDATA[ACTIVE LOG183336]]></name>
    <trkseg>
      <trkpt lat="43.43" lon="5.43563">
        <ele>12.77</ele>
        <time>2011-11-23T17:33:36Z</time>
      </trkpt>
      <trkpt lat="43.43" lon="5.43563">
        <ele>13.367</ele>
        <time>2011-11-23T17:33:46Z</time>
      </trkpt>
      <trkpt lat="43.43" lon="5.43563">
        <ele>12.522</ele>
        <time>2011-11-23T17:33:58Z</time>
      </trkpt>
      <trkpt lat="43.43" lon="5.43563">
        <ele>13.367</ele>
        <time>2011-11-23T17:34:07Z</time>
      </trkpt>
      <trkpt lat="43.43" lon="5.43563">
        <ele>14.549</ele>
        <time>2011-11-23T17:34:17Z</time>
      </trkpt>
      <trkpt lat="43.43" lon="5.43563">
        <ele>12.929</ele>
        <time>2011-11-23T17:34:28Z</time>
      </trkpt>
      <trkpt lat="43.43" lon="5.43563">
        <ele>12.781</ele>
        <time>2011-11-23T17:34:40Z</time>
      </trkpt>
      <trkpt lat="43.43" lon="5.43563">
        <ele>13.5</ele>
        <time>2011-11-23T17:34:51Z</time>
      </trkpt>
      <trkpt lat="43.43" lon="5.43563">
        <ele>13.893</ele>
        <time>2011-11-23T17:35:03Z</time>
      </trkpt>
      <trkpt lat="43.43" lon="5.43563">
        <ele>13.626</ele>
        <time>2011-11-23T17:35:14Z</time>
      </trkpt>
      <trkpt lat="43.43" lon="5.43563">
        <ele>13.854</ele>
        <time>2011-11-23T17:35:25Z</time>
      </trkpt>
      <trkpt lat="43.43" lon="5.43563">
        <ele>12.572</ele>
        <time>2011-11-23T17:35:37Z</time>
      </trkpt>
      <trkpt lat="43.43" lon="5.43563">
        <ele>13.447</ele>
        <time>2011-11-23T17:35:48Z</time>
      </trkpt>
      <trkpt lat="43.43" lon="5.43563">
        <ele>13.92</ele>
        <time>2011-11-23T17:36:00Z</time>
      </trkpt>
      <trkpt lat="43.43" lon="5.43563">
        <ele>13.603</ele>
        <time>2011-11-23T17:36:09Z</time>
      </trkpt>
      <trkpt lat="43.43" lon="5.43563">
        <ele>14.126</ele>
        <time>2011-11-23T17:36:20Z</time>
      </trkpt>
      <trkpt lat="43.43" lon="5.43563">
        <ele>13.51</ele>
        <time>2011-11-23T17:36:32Z</time>
      </trkpt>
      <trkpt lat="43.43" lon="5.43563">
        <ele>14.784</ele>
        <time>2011-11-23T17:36:43Z</time>
      </trkpt>
      <trkpt lat="43.43" lon="5.43563">
        <ele>13.394</ele>
        <time>2011-11-23T17:36:55Z</time>
      </trkpt>
      <trkpt lat="43.43" lon="5.43563">
        <ele>12.86</ele>
        <time>2011-11-23T17:37:06Z</time>
      </trkpt>
      <trkpt lat="43.43" lon="5.43563">
        <ele>13.648</ele>
        <time>2011-11-23T17:37:17Z</time>
      </trkpt>
      <trkpt lat="43.43" lon="5.43563">
        <ele>14.276</ele>
        <time>2011-11-23T17:37:29Z</time>
      </trkpt>
      <trkpt lat="43.43" lon="5.43563">
        <ele>14.213</ele>
        <time>2011-11-23T17:37:40Z</time>
      </trkpt>
      <trkpt lat="43.43" lon="5.43563">
        <ele>13.909</ele>
        <time>2011-11-23T17:37:52Z</time>
      </trkpt>
      <trkpt lat="43.43" lon="5.43563">
        <ele>13.862</ele>
        <time>2011-11-23T17:38:03Z</time>
      </trkpt>
      <trkpt lat="43.43" lon="5.43563">
        <ele>14.221</ele>
        <time>2011-11-23T17:38:14Z</time>
      </trkpt>
      <trkpt lat="43.43" lon="5.43563">
        <ele>14.213</ele>
        <time>2011-11-23T17:38:26Z</time>
      </trkpt>
      <trkpt lat="43.43" lon="5.43563">
        <ele>12.651</ele>
        <time>2011-11-23T17:38:37Z</time>
      </trkpt>
      <trkpt lat="43.43" lon="5.43563">
        <ele>13.936</ele>
        <time>2011-11-23T17:38:47Z</time>
      </trkpt>
    </trkseg>
  </trk>
</gpx>